[[{"header":{"parameterUnit":"m.s-1","parameterCategory":1,"la1":30.6,"la2":28.766,"lo1":-90.7593,"lo2":-88.6598,"dy":0.0162,"dx":0.0183,"nx":116,"ny":114,"refTime":"2023-08-20T18:00:00:Z","depth":0,"parameterNumber":2,"parameterNumberName":"U-component_of_WINDS"},"data":[0.0,0.0,0.0,0.0,0.0,0.0,0.0,0.0,0.0,0.0,0.0,0.0,0.0,0.0,0.0,0.0,0.0,0.0,0.0,0.0,0.0,0.0,0.0,0.0,0.0,0.0,0.0,0.0,0.0,0.0,0.0,0.0,0.0,0.0,0.0,0.0,0.0,0.0,0.0,0.0,0.0,0.0,0.0,0.0,0.0,0.0,0.0,0.0,0.0,0.0,0.0,0.0,0.0,0.0,0.0,0.0,0.0,0.0,0.0,0.0,0.0,0.0,0.0,0.0,0.0,0.0,0.0,0.0,0.0,0.0,0.0,0.0,0.0,0.0,0.0,0.0,0.0,0.0,0.0,0.0,0.0,0.0,0.0,0.0,0.0,0.0,0.0,0.0,0.0,0.0,0.0,0.0,0.0,0.0,0.0,0.0,0.0,0.0,0.0,0.0,0.0,0.0,0.0,0.0,0.0,0.0,0.0,0.0,0.0,0.0,0.0,0.0,0.0,0.0,0.0,0.0,0.0,0.0,0.0,0.0,0.0,0.0,0.0,0.0,0.0,0.0,0.0,0.0,0.0,0.0,0.0,0.0,0.0,0.0,0.0,0.0,0.0,0.0,0.0,0.0,0.0,0.0,0.0,0.0,0.0,0.0,0.0,0.0,0.0,0.0,0.0,0.0,0.0,0.0,0.0,0.0,0.0,0.0,0.0,0.0,0.0,0.0,0.0,0.0,0.0,0.0,0.0,0.0,0.0,0.0,0.0,0.0,0.0,0.0,0.0,0.0,0.0,0.0,0.0,0.0,0.0,0.0,0.0,0.0,0.0,0.0,0.0,0.0,0.0,0.0,0.0,0.0,0.0,0.0,0.0,0.0,0.0,0.0,0.0,0.0,0.0,0.0,0.0,0.0,0.0,0.0,0.0,0.0,0.0,0.0,0.0,0.0,0.0,0.0,0.0,0.0,0.0,0.0,0.0,0.0,0.0,0.0,0.0,0.0,0.0,0.0,0.0,0.0,0.0,0.0,0.0,0.0,0.0,0.0,0.0,0.0,0.0,0.0,0.0,0.0,0.0,0.0,0.0,0.0,0.0,0.0,0.0,0.0,0.0,0.0,0.0,0.0,0.0,0.0,0.0,0.0,0.0,0.0,0.0,0.0,0.0,0.0,0.0,0.0,0.0,0.0,0.0,0.0,0.0,0.0,0.0,0.0,0.0,0.0,0.0,0.0,0.0,0.0,0.0,0.0,0.0,0.0,0.0,0.0,0.0,0.0,0.0,0.0,0.0,0.0,0.0,0.0,0.0,0.0,0.0,0.0,0.0,0.0,0.0,0.0,0.0,0.0,0.0,0.0,0.0,0.0,0.0,0.0,0.0,0.0,0.0,0.0,0.0,0.0,0.0,0.0,0.0,0.0,0.0,0.0,0.0,0.0,0.0,0.0,0.0,0.0,0.0,0.0,0.0,0.0,0.0,0.0,0.0,0.0,0.0,0.0,0.0,0.0,0.0,0.0,0.0,0.0,0.0,0.0,0.0,0.0,0.0,0.0,0.0,0.0,0.0,0.0,0.0,0.0,0.0,0.0,0.0,0.0,0.0,0.0,0.0,0.0,0.0,0.0,0.0,0.0,0.0,0.0,0.0,0.0,0.0,0.0,0.0,0.0,0.0,0.0,0.0,0.0,0.0,0.0,0.0,0.0,0.0,0.0,0.0,0.0,0.0,0.0,0.0,0.0,0.0,0.0,0.0,0.0,0.0,0.0,0.0,0.0,0.0,0.0,0.0,0.0,0.0,0.0,0.0,0.0,0.0,0.0,0.0,0.0,0.0,0.0,0.0,0.0,0.0,0.0,0.0,0.0,0.0,0.0,0.0,0.0,0.0,0.0,0.0,0.0,0.0,0.0,0.0,0.0,0.0,0.0,0.0,0.0,0.0,0.0,0.0,0.0,0.0,0.0,0.0,0.0,0.0,0.0,0.0,0.0,0.0,0.0,0.0,0.0,0.0,0.0,0.0,0.0,0.0,0.0,0.0,0.0,0.0,0.0,0.0,0.0,0.0,0.0,0.0,0.0,0.0,0.0,0.0,0.0,0.0,0.0,0.0,0.0,0.0,0.0,0.0,0.0,0.0,0.0,0.0,0.0,0.0,0.0,0.0,0.0,0.0,0.0,0.0,0.0,0.0,0.0,0.0,0.0,0.0,0.0,0.0,0.0,0.0,0.0,0.0,0.0,0.0,0.0,0.0,0.0,0.0,0.0,0.0,0.0,0.0,0.0,0.0,0.0,0.0,0.0,0.0,0.0,0.0,0.0,0.0,0.0,0.0,0.0,0.0,0.0,0.0,0.0,0.0,0.0,0.0,0.0,0.0,0.0,0.0,0.0,0.0,0.0,0.0,0.0,0.0,0.0,0.0,0.0,0.0,0.0,0.0,0.0,0.0,0.0,0.0,0.0,0.0,0.0,0.0,0.0,0.0,0.0,0.0,0.0,0.0,0.0,0.0,0.0,0.0,0.0,0.0,0.0,0.0,0.0,0.0,0.0,0.0,0.0,0.0,0.0,0.0,0.0,0.0,0.0,0.0,0.0,0.0,0.0,0.0,0.0,0.0,0.0,0.0,0.0,0.0,0.0,0.0,0.0,0.0,0.0,0.0,0.0,0.0,0.0,0.0,0.0,0.0,0.0,0.0,0.0,0.0,0.0,0.0,0.0,0.0,0.0,0.0,0.0,0.0,0.0,0.0,0.0,0.0,0.0,0.0,0.0,0.0,0.0,0.0,0.0,0.0,0.0,0.0,0.0,0.0,0.0,0.0,0.0,0.0,0.0,0.0,0.0,0.0,0.0,0.0,0.0,0.0,0.0,0.0,0.0,0.0,0.0,0.0,0.0,0.0,0.0,0.0,0.0,0.0,0.0,0.0,0.0,0.0,0.0,0.0,0.0,0.0,0.0,0.0,0.0,0.0,0.0,0.0,0.0,0.0,0.0,0.0,0.0,0.0,0.0,0.0,0.0,0.0,0.0,0.0,0.0,0.0,0.0,0.0,0.0,0.0,0.0,0.0,0.0,0.0,0.0,0.0,0.0,0.0,0.0,0.0,0.0,0.0,0.0,0.0,0.0,0.0,0.0,0.0,0.0,0.0,0.0,0.0,0.0,0.0,0.0,0.0,0.0,0.0,0.0,0.0,0.0,0.0,0.0,0.0,0.0,0.0,0.0,0.0,0.0,0.0,0.0,0.0,0.0,0.0,0.0,0.0,0.0,0.0,0.0,0.0,0.0,0.0,0.0,0.0,0.0,0.0,0.0,0.0,0.0,0.0,0.0,0.0,0.0,0.0,0.0,0.0,0.0,0.0,0.0,0.0,0.0,0.0,0.0,0.0,0.0,0.0,0.0,0.0,0.0,0.0,0.0,0.0,0.0,0.0,0.0,0.0,0.0,0.0,0.0,0.0,0.0,0.0,0.0,0.0,0.0,0.0,0.0,0.0,0.0,0.0,0.0,0.0,0.0,0.0,0.0,0.0,0.0,0.0,0.0,0.0,0.0,0.0,0.0,0.0,0.0,0.0,0.0,0.0,0.0,0.0,0.0,0.0,0.0,0.0,0.0,0.0,0.0,0.0,0.0,0.0,0.0,0.0,0.0,0.0,0.0,0.0,0.0,0.0,0.0,0.0,0.0,0.0,0.0,0.0,0.0,0.0,0.0,0.0,0.0,0.0,0.0,0.0,0.0,0.0,0.0,0.0,0.0,0.0,0.0,0.0,0.0,0.0,0.0,0.0,0.0,0.0,0.0,0.0,0.0,0.0,0.0,0.0,0.0,0.0,0.0,0.0,0.0,0.0,0.0,0.0,0.0,0.0,0.0,0.0,0.0,0.0,0.0,0.0,0.0,0.0,0.0,0.0,0.0,0.0,0.0,0.0,0.0,0.0,0.0,0.0,0.0,0.0,0.0,0.0,0.0,0.0,0.0,0.0,0.0,0.0,0.0,0.0,0.0,0.0,0.0,0.0,0.0,0.0,0.0,0.0,0.0,0.0,0.0,0.0,0.0,0.0,0.0,0.0,0.0,0.0,0.0,0.0,0.0,0.0,0.0,0.0,0.0,0.0,0.0,0.0,0.0,0.0,0.0,0.0,0.0,0.0,0.0,0.0,0.0,0.0,0.0,0.0,0.0,0.0,0.0,0.0,0.0,0.0,0.0,0.0,0.0,0.0,0.0,0.0,0.0,0.0,0.0,0.0,0.0,0.0,0.0,0.0,0.0,0.0,0.0,0.0,0.0,0.0,0.0,0.0,0.0,0.0,0.0,0.0,0.0,0.0,0.0,0.0,0.0,0.0,0.0,0.0,0.0,0.0,0.0,0.0,0.0,0.0,0.0,0.0,0.0,0.0,0.0,0.0,0.0,0.0,0.0,0.0,0.0,0.0,0.0,0.0,0.0,0.0,0.0,0.0,0.0,0.0,0.0,0.0,0.0,0.0,0.0,0.0,0.0,0.0,0.0,0.0,0.0,0.0,0.0,0.0,0.0,0.0,0.0,0.0,0.0,0.0,0.0,0.0,0.0,0.0,0.0,0.0,0.0,0.0,0.0,0.0,0.0,0.0,0.0,0.0,0.0,0.0,0.0,0.0,0.0,0.0,0.0,0.0,0.0,0.0,0.0,0.0,0.0,0.0,0.0,0.0,0.0,0.0,0.0,0.0,0.0,0.0,0.0,0.0,0.0,0.0,0.0,0.0,0.0,0.0,0.0,0.0,0.0,0.0,0.0,0.0,0.0,0.0,0.0,0.0,0.0,0.0,0.0,0.0,0.0,0.0,0.0,0.0,0.0,0.0,0.0,0.0,0.0,0.0,0.0,0.0,0.0,0.0,0.0,0.0,0.0,0.0,0.0,0.0,0.0,0.0,0.0,0.0,0.0,0.0,0.0,0.0,0.0,0.0,0.0,0.0,0.0,0.0,0.0,0.0,0.0,0.0,0.0,0.0,0.0,0.0,0.0,0.0,0.0,0.0,0.0,0.0,0.0,0.0,0.0,0.0,0.0,0.0,0.0,0.0,0.0,0.0,0.0,0.0,0.0,0.0,0.0,0.0,0.0,0.0,0.0,0.0,0.0,0.0,0.0,0.0,0.0,0.0,0.0,0.0,0.0,0.0,0.0,0.0,0.0,0.0,0.0,0.0,0.0,0.0,0.0,0.0,0.0,0.0,0.0,0.0,0.0,0.0,0.0,0.0,0.0,0.0,0.0,0.0,0.0,0.0,0.0,0.0,0.0,0.0,0.0,0.0,0.0,0.0,0.0,0.0,0.0,0.0,0.0,0.0,0.0,0.0,0.0,0.0,0.0,0.0,0.0,0.0,0.0,0.0,0.0,0.0,0.0,0.0,0.0,0.0,0.0,0.0,0.0,0.0,0.0,0.0,0.0,0.0,0.0,0.0,0.0,0.0,0.0,0.0,0.0,0.0,0.0,0.0,0.0,0.0,0.0,0.0,0.0,0.0,0.0,0.0,0.0,0.0,0.0,0.0,0.0,0.0,0.0,0.0,0.0,0.0,0.0,0.0,0.0,0.0,0.0,0.0,0.0,0.0,0.0,0.0,0.0,0.0,0.0,0.0,0.0,0.0,0.0,0.0,0.0,0.0,0.0,0.0,0.0,0.0,0.0,0.0,0.0,0.0,0.0,0.0,0.0,0.0,0.0,0.0,0.0,0.0,0.0,0.0,0.0,0.0,0.0,0.0,0.0,0.0,0.0,0.0,0.0,0.0,0.0,0.0,0.0,0.0,0.0,0.0,0.0,0.0,0.0,0.0,0.0,0.0,0.0,0.0,0.0,0.0,0.0,0.0,0.0,0.0,0.0,0.0,0.0,0.0,0.0,0.0,0.0,0.0,0.0,0.0,0.0,0.0,0.0,0.0,0.0,0.0,0.0,0.0,0.0,0.0,0.0,0.0,0.0,0.0,0.0,0.0,0.0,0.0,0.0,0.0,0.0,0.0,0.0,0.0,0.0,0.0,0.0,0.0,0.0,0.0,0.0,0.0,0.0,0.0,0.0,0.0,0.0,0.0,0.0,0.0,0.0,0.0,0.0,0.0,0.0,0.0,0.0,0.0,0.0,0.0,0.0,-5.41,0.0,0.0,0.0,0.0,0.0,0.0,0.0,0.0,0.0,0.0,0.0,0.0,0.0,0.0,0.0,0.0,0.0,0.0,0.0,0.0,0.0,0.0,0.0,0.0,0.0,0.0,0.0,0.0,0.0,0.0,0.0,0.0,0.0,0.0,0.0,0.0,0.0,0.0,0.0,-4.2784,-4.2843,-4.2565,-4.3381,-4.4366,-4.5511,0.0,0.0,0.0,0.0,0.0,0.0,0.0,0.0,0.0,0.0,0.0,0.0,0.0,0.0,0.0,0.0,0.0,0.0,0.0,0.0,0.0,0.0,0.0,0.0,0.0,0.0,0.0,0.0,0.0,0.0,0.0,0.0,0.0,0.0,0.0,0.0,0.0,0.0,0.0,0.0,0.0,0.0,0.0,0.0,0.0,0.0,0.0,0.0,0.0,0.0,0.0,0.0,0.0,0.0,0.0,0.0,0.0,0.0,0.0,0.0,0.0,0.0,0.0,0.0,0.0,0.0,0.0,0.0,0.0,0.0,0.0,-5.3611,0.0,0.0,0.0,0.0,0.0,0.0,0.0,0.0,0.0,0.0,0.0,0.0,0.0,0.0,0.0,0.0,0.0,0.0,0.0,0.0,0.0,0.0,0.0,0.0,0.0,0.0,0.0,0.0,0.0,0.0,0.0,0.0,0.0,0.0,0.0,0.0,0.0,-4.0762,-4.0928,-4.0839,-4.0536,-4.058,-4.173,-4.3799,-4.3931,0.0,0.0,0.0,0.0,0.0,0.0,0.0,0.0,0.0,0.0,0.0,0.0,0.0,0.0,0.0,0.0,0.0,0.0,0.0,0.0,0.0,0.0,0.0,0.0,0.0,0.0,0.0,0.0,0.0,0.0,0.0,0.0,0.0,0.0,0.0,0.0,0.0,0.0,0.0,0.0,0.0,0.0,0.0,0.0,0.0,0.0,0.0,0.0,0.0,0.0,0.0,0.0,0.0,0.0,0.0,0.0,0.0,0.0,0.0,0.0,0.0,0.0,0.0,-5.2761,-5.2761,-5.2741,-5.2021,-5.1713,-5.1818,-5.264,-5.3057,-5.3136,0.0,0.0,0.0,0.0,0.0,0.0,0.0,0.0,0.0,0.0,0.0,0.0,0.0,0.0,0.0,0.0,0.0,0.0,0.0,0.0,0.0,0.0,0.0,0.0,0.0,0.0,0.0,0.0,0.0,0.0,0.0,0.0,0.0,0.0,-3.9172,-3.934,-3.9022,-3.8486,-3.7962,-3.7484,-3.7956,-3.8421,-3.9061,-4.2133,-4.3584,-4.3764,0.0,0.0,0.0,0.0,0.0,0.0,0.0,0.0,0.0,0.0,0.0,0.0,0.0,0.0,0.0,0.0,0.0,0.0,0.0,0.0,0.0,0.0,0.0,0.0,0.0,0.0,0.0,0.0,0.0,0.0,0.0,0.0,0.0,0.0,0.0,0.0,0.0,0.0,0.0,0.0,0.0,-4.614,-4.6576,0.0,0.0,0.0,0.0,0.0,0.0,0.0,0.0,0.0,0.0,0.0,0.0,0.0,0.0,-5.0826,-5.096,-5.1039,-5.1039,-5.1039,-5.1039,-5.1039,-5.0904,-5.0866,-5.0875,-5.101,0.0,-5.1258,-5.1327,0.0,0.0,0.0,0.0,0.0,0.0,0.0,0.0,0.0,0.0,0.0,0.0,0.0,0.0,0.0,0.0,0.0,0.0,0.0,0.0,0.0,0.0,0.0,0.0,0.0,0.0,0.0,0.0,0.0,0.0,0.0,-3.5162,-3.5322,-3.589,-3.6304,-3.6438,-3.6238,-3.6096,-3.6082,-3.6612,-3.7003,-3.7344,-3.9393,-4.0583,-4.1126,-4.1937,0.0,0.0,0.0,0.0,0.0,0.0,0.0,0.0,0.0,0.0,0.0,0.0,0.0,0.0,0.0,0.0,0.0,0.0,0.0,0.0,0.0,0.0,0.0,0.0,0.0,0.0,0.0,0.0,0.0,0.0,0.0,0.0,0.0,0.0,0.0,0.0,0.0,0.0,0.0,-4.6515,-4.6636,-4.6924,-4.7628,-4.8367,0.0,0.0,0.0,0.0,0.0,0.0,0.0,0.0,0.0,-4.9767,-5.0254,-5.05,-5.05,-5.1075,-5.1375,-5.1375,-5.1875,-5.2106,-5.2106,-5.2106,-5.2106,-5.2087,-5.1587,-5.1405,-5.1431,-5.1045,-5.0963,-5.1094,0.0,0.0,0.0,0.0,0.0,-5.1277,0.0,0.0,0.0,0.0,0.0,0.0,0.0,0.0,0.0,0.0,0.0,0.0,0.0,0.0,0.0,-2.8702,0.0,0.0,0.0,0.0,0.0,0.0,0.0,-3.2419,-3.2538,-3.3164,-3.3668,-3.4077,-3.4235,-3.4416,-3.4588,-3.5139,-3.558,-3.5906,-3.6646,-3.7671,-3.8942,-3.9954,-4.0653,-4.1248,0.0,0.0,0.0,0.0,0.0,0.0,0.0,0.0,0.0,0.0,0.0,0.0,0.0,0.0,0.0,0.0,0.0,0.0,0.0,0.0,0.0,0.0,0.0,0.0,0.0,0.0,0.0,0.0,0.0,0.0,0.0,0.0,0.0,0.0,0.0,0.0,0.0,-4.6439,-4.6433,-4.6635,-4.707,-4.7682,0.0,0.0,0.0,0.0,0.0,0.0,-4.8411,-4.9041,-4.9595,-4.9977,-5.0309,-5.0585,-5.0826,-5.1535,-5.199,-5.2231,-5.2895,-5.3203,-5.3203,-5.3203,-5.3087,-5.2837,-5.2173,-5.1769,-5.1548,-5.0997,-5.083,-5.0952,-5.1043,-5.1131,-5.1186,-5.1249,-5.1316,-5.118,0.0,0.0,0.0,0.0,0.0,0.0,0.0,0.0,0.0,0.0,0.0,0.0,0.0,0.0,-2.5664,-2.6235,-2.6473,-2.6952,0.0,0.0,0.0,-2.9399,-2.9966,-3.0569,-3.1287,-3.2123,-3.2511,-3.2422,-3.2675,-3.2649,-3.2366,-3.2924,-3.334,-3.3676,-3.4223,-3.5887,-3.8288,-3.8912,-3.947,-4.0,-4.1193,0.0,0.0,0.0,0.0,0.0,0.0,0.0,0.0,0.0,0.0,0.0,0.0,0.0,0.0,0.0,0.0,0.0,0.0,0.0,0.0,0.0,0.0,0.0,0.0,0.0,0.0,0.0,0.0,0.0,0.0,0.0,0.0,0.0,0.0,0.0,0.0,0.0,0.0,-4.4888,-4.5278,0.0,0.0,0.0,0.0,-4.6556,-4.8029,-4.8258,-4.671,-4.8926,-4.9901,-4.9186,-4.9958,-5.0829,-5.1738,-5.1773,-5.2247,-5.3145,-5.3183,-5.3203,-5.3203,-5.3203,-5.275,-5.1962,-5.1923,-5.1471,-5.077,-5.0721,-5.0748,-5.0819,-5.0959,-5.105,-5.1117,-5.1189,-5.1215,-5.0984,0.0,0.0,0.0,0.0,0.0,0.0,0.0,0.0,0.0,0.0,0.0,0.0,0.0,-2.3402,-2.3867,-2.4308,-2.4607,-2.5117,-2.5961,0.0,0.0,-2.7399,-2.8049,-2.8726,-2.9315,-2.9965,-3.0424,-3.069,-3.0993,-3.1235,-3.1437,-3.1921,-3.2327,-3.2687,-3.3308,-3.4219,-3.5342,-3.6932,-3.791,-3.8494,-3.9852,-4.0958,0.0,0.0,0.0,0.0,0.0,0.0,0.0,0.0,0.0,0.0,0.0,0.0,0.0,0.0,0.0,0.0,0.0,0.0,0.0,0.0,0.0,0.0,0.0,0.0,0.0,0.0,0.0,0.0,0.0,0.0,0.0,0.0,0.0,0.0,0.0,0.0,0.0,-4.5352,-4.5283,0.0,-4.6266,-4.6859,-4.7143,-4.7062,-4.7656,-4.8064,-4.8113,-4.8972,-4.9587,-4.9862,-5.0226,-5.0566,-5.0905,-5.1508,-5.1973,-5.231,-5.2828,-5.3078,-5.3078,-5.3078,-5.2927,-5.2632,-5.2075,-5.1711,-5.1433,-5.0914,-5.0721,-5.0736,-5.0852,-5.0914,-5.0969,-5.1056,-5.1076,-5.0905,0.0,0.0,0.0,0.0,0.0,0.0,0.0,0.0,0.0,0.0,0.0,-2.0709,-2.1204,-2.1695,-2.2138,-2.2702,-2.2761,-2.3175,-2.4129,0.0,0.0,-2.5504,-2.6424,-2.7181,-2.7762,-2.8222,-2.8739,-2.931,-2.967,-3.0101,-3.0598,-3.1131,-3.1581,-3.1938,-3.2586,-3.3002,-3.3377,-3.4972,-3.6127,-3.6978,-3.8359,-3.954,-4.0558,0.0,0.0,0.0,0.0,0.0,0.0,0.0,0.0,0.0,0.0,0.0,0.0,0.0,0.0,0.0,0.0,0.0,0.0,0.0,0.0,0.0,0.0,0.0,0.0,0.0,0.0,0.0,0.0,0.0,0.0,0.0,0.0,0.0,0.0,0.0,-4.4562,-4.5203,-4.4818,-4.4814,-4.5608,-4.6177,-4.6581,-4.6843,-4.7465,-4.8156,-4.8864,-4.9229,-4.9666,-5.0248,-5.0325,-5.0524,-5.0853,-5.1453,-5.1908,-5.2217,-5.2743,-5.2992,-5.2992,-5.2992,-5.288,-5.2636,-5.2052,-5.168,-5.1422,-5.0914,-5.05,-5.025,-5.0632,-5.0791,-5.0841,-5.0909,-5.0755,-5.0373,0.0,0.0,0.0,0.0,0.0,0.0,0.0,0.0,0.0,0.0,-1.8434,-1.8934,-1.95,-1.9965,-2.051,-2.1266,-2.097,-2.1214,-2.2247,-2.2156,0.0,-2.3708,-2.5028,-2.5998,-2.6595,-2.6981,-2.7497,-2.8254,-2.873,-2.9237,-2.9777,-3.0434,-3.0925,-3.1278,-3.1881,-3.2315,-3.2586,-3.3103,-3.4112,-3.5424,-3.6786,-3.7659,-3.8366,0.0,0.0,0.0,0.0,0.0,0.0,0.0,0.0,0.0,0.0,0.0,0.0,0.0,0.0,0.0,0.0,0.0,0.0,0.0,0.0,0.0,0.0,0.0,0.0,0.0,0.0,0.0,0.0,0.0,0.0,0.0,0.0,0.0,-4.5001,-4.4664,-4.4268,-4.4268,-4.3815,-4.3548,-4.3679,-4.4697,-4.548,-4.5787,-4.7485,-4.858,-4.872,-4.9657,-5.0207,-5.02,-5.0267,-5.0738,-5.1656,-5.1656,-5.2093,-5.2916,-5.2916,-5.2916,-5.2916,-5.2916,-5.2494,-5.1757,-5.1734,-5.1265,-5.0565,-5.0606,-5.0077,-4.9345,-5.0288,-5.0634,-5.0624,-5.0698,-5.022,-4.9331,0.0,0.0,0.0,0.0,0.0,0.0,0.0,0.0,0.0,0.0,-1.7124,-1.763,-1.8149,-1.8519,-1.898,-1.9729,-1.9669,-1.9911,-2.0671,0.0,0.0,-2.2723,-2.3806,-2.4493,-2.4826,-2.5615,-2.6321,-2.6921,-2.7591,-2.8195,-2.8739,-2.939,-2.9886,-3.0237,-3.0733,-3.1204,-3.1695,-3.2018,-3.2648,-3.3495,-3.498,-3.6254,-3.7348,0.0,0.0,0.0,0.0,0.0,0.0,0.0,0.0,0.0,0.0,0.0,0.0,0.0,0.0,0.0,0.0,0.0,0.0,0.0,0.0,0.0,0.0,0.0,0.0,0.0,0.0,0.0,0.0,0.0,0.0,0.0,0.0,-4.3064,-4.3498,-4.3409,-4.332,-4.3432,-4.3342,-4.3375,-4.3614,-4.5038,-4.6071,-4.6361,-4.8062,-4.9164,-4.9344,-4.98,-5.0089,-5.0188,-5.0267,-5.0428,-5.0669,-5.0669,-5.0815,-5.1036,-5.1036,-5.1036,-5.1036,-5.1036,-5.0956,-5.0741,-5.0131,-4.9742,-4.9534,-4.8979,-4.8585,-4.8451,-4.9336,-4.9307,-4.8759,-4.8808,-4.8729,-4.8527,0.0,0.0,0.0,0.0,0.0,0.0,0.0,0.0,0.0,0.0,-1.5812,-1.619,-1.6702,-1.6976,-1.749,-1.8334,-1.8295,-1.8613,-1.9444,0.0,-2.0566,-2.1545,-2.2414,-2.301,-2.3379,-2.4217,-2.4898,-2.5451,-2.6193,-2.6888,-2.7537,-2.8149,-2.8634,-2.9062,-2.9549,-3.0011,-3.0478,-3.0837,-3.1319,-3.1918,-3.294,-3.4283,-3.577,-3.6486,-3.7266,-3.8044,-3.8525,-3.9116,-3.9742,-4.0118,0.0,0.0,0.0,0.0,0.0,0.0,0.0,0.0,0.0,0.0,0.0,0.0,0.0,0.0,0.0,0.0,0.0,0.0,0.0,0.0,0.0,0.0,0.0,0.0,-4.2901,-4.2901,-4.2901,-4.2901,-4.2938,-4.3012,-4.3087,-4.3214,-4.3375,-4.4689,-4.5619,-4.5819,-4.7257,-4.8209,-4.8415,-4.871,-4.8928,-4.9066,-4.917,-4.9228,-4.9251,-4.9251,-4.9442,-4.9786,-4.9423,-4.9442,-4.9786,-4.9423,-4.9263,0.0,-4.8813,-4.8616,-4.862,-4.818,-4.7767,0.0,0.0,0.0,0.0,0.0,-4.7549,-4.7575,0.0,0.0,0.0,0.0,0.0,0.0,0.0,0.0,0.0,0.0,0.0,-1.4729,-1.5201,-1.5473,-1.6028,-1.7016,-1.7018,-1.7444,0.0,0.0,-1.962,-2.0226,-2.0904,-2.1527,-2.2086,-2.2761,-2.3353,-2.3854,-2.4684,-2.5463,-2.6193,-2.6705,-2.7232,-2.7808,-2.8252,-2.873,-2.9139,-2.958,-3.0072,-3.0614,-3.0867,-3.2106,-3.3885,-3.4929,-3.5572,-3.6019,-3.6684,-3.7251,-3.7729,-3.8448,0.0,0.0,0.0,0.0,0.0,0.0,0.0,0.0,0.0,0.0,0.0,0.0,0.0,0.0,0.0,0.0,0.0,0.0,0.0,0.0,0.0,0.0,0.0,0.0,-4.29,-4.2882,-4.2901,-4.2901,-4.2901,-4.2901,-4.3012,-4.3086,-4.3104,-4.398,-4.4619,-4.4759,-4.5808,-4.6536,-4.6734,0.0,0.0,0.0,0.0,-4.7709,-4.7766,-4.7777,-4.8189,-4.8926,-4.817,-4.822,-4.8938,-4.8162,-4.7788,-4.7799,-4.7758,-4.7733,-4.7733,-4.7709,-4.72,-4.6536,-4.7364,-4.7691,-4.7605,-4.6847,-4.6589,0.0,0.0,0.0,0.0,0.0,0.0,0.0,0.0,0.0,0.0,-1.3389,-1.3588,-1.3871,-1.4148,-1.443,-1.4908,-1.571,-1.6049,-1.6631,0.0,-1.7935,-1.8247,-1.8727,-1.9511,-2.0021,-2.0138,-2.126,-2.2059,-2.2499,-2.3279,-2.4047,-2.4791,-2.524,-2.5787,-2.6476,-2.6849,-2.7398,-2.8025,-2.8298,-2.8698,-2.9219,-2.9535,-3.0808,-3.2497,-3.2823,-3.3203,-3.3587,-3.3973,-3.4623,-3.5398,-3.5875,-3.6825,-3.7919,-3.8429,0.0,0.0,0.0,0.0,0.0,0.0,0.0,0.0,0.0,0.0,0.0,0.0,0.0,0.0,0.0,0.0,0.0,0.0,0.0,0.0,-4.2765,-4.2822,-4.2842,-4.2882,-4.2901,-4.2901,-4.2901,-4.2919,-4.2975,-4.3086,-4.3851,-4.4399,-4.4474,-4.5532,-4.6237,-4.6385,-4.678,0.0,-4.7251,-4.7429,-4.754,-4.7552,-4.7674,-4.7797,-4.7968,0.0,0.0,-4.8048,-4.7884,-4.7788,-4.775,-4.7065,-4.677,-4.6732,-4.6073,-4.571,-4.5566,-4.5748,-4.5856,-4.5878,-4.5705,-4.5658,-4.5649,0.0,0.0,0.0,0.0,0.0,0.0,0.0,0.0,0.0,0.0,-1.3055,-1.3195,-1.3335,-1.3576,-1.3962,-1.4573,-1.5127,0.0,-1.63,-1.6583,-1.6919,-1.7497,-1.8256,-1.8727,-1.8966,-1.9786,-2.045,-2.0865,-2.1535,-2.228,-2.3073,-2.3478,-2.4085,-2.4791,-2.5192,-2.5706,-2.6361,-2.6646,-2.7051,-2.7551,-2.7736,-2.8589,-2.9852,-3.0881,-3.1446,-3.173,-3.2038,-3.253,-3.313,-3.3775,-3.4632,-3.5514,-3.6112,-3.6998,-3.7927,0.0,0.0,0.0,0.0,0.0,0.0,0.0,0.0,0.0,0.0,0.0,0.0,0.0,0.0,-4.1401,0.0,0.0,-4.2103,-4.2409,-4.245,-4.251,-4.2632,-4.2709,-4.2786,-4.2882,-4.2901,-4.2938,-4.2994,-4.3375,-4.3649,-4.3742,-4.4309,-4.4726,-4.4898,-4.5172,-4.5436,-4.5654,-4.5841,-4.5987,-4.6051,-4.6177,-4.6509,-4.6987,-4.6584,-4.6645,-4.7079,-4.666,-4.645,-4.6412,-4.5993,-4.5824,-4.5808,-4.5439,-4.5307,-4.5307,-4.5307,-4.5317,-4.5348,-4.5348,-4.5379,-4.5409,0.0,0.0,0.0,0.0,0.0,0.0,0.0,0.0,0.0,0.0,-1.2813,-1.2813,-1.2813,-1.2953,-1.3238,0.0,0.0,-1.4751,-1.4968,-1.5284,-1.5692,-1.6278,-1.7009,-1.7538,-1.7861,-1.8447,-1.8917,-1.9283,-1.9924,-2.0614,-2.1354,-2.1735,-2.2301,-2.3036,-2.3404,-2.3916,-2.4553,-2.4874,-2.5286,-2.5763,-2.5844,-2.6224,-2.6938,-2.8589,-2.9558,-3.0104,-3.0421,-3.0719,-3.1072,-3.1856,-3.2493,-3.3054,-3.3719,-3.4788,-3.5886,-3.6314,-3.7162,0.0,0.0,0.0,0.0,0.0,0.0,0.0,0.0,0.0,-4.0213,-4.0531,-4.0628,-4.0819,-4.1277,-4.1408,-4.1542,-4.1852,-4.1959,-4.2082,-4.2272,-4.2432,-4.2609,-4.2768,-4.2844,-4.2901,-4.2901,-4.2901,-4.2938,-4.3049,-4.3142,-4.3269,-4.3427,-4.3629,-4.3807,-4.3999,-4.4188,-4.436,-4.4484,-4.4616,-4.511,-4.5931,-4.5242,-4.5316,-4.6083,-4.5349,-4.5068,-4.5091,-4.5084,-4.5136,-4.5181,-4.5254,-4.5265,-4.5265,-4.5265,-4.5265,-4.5256,-4.5297,-4.5328,-4.535,0.0,0.0,0.0,0.0,0.0,0.0,0.0,0.0,0.0,0.0,0.0,0.0,0.0,0.0,0.0,0.0,-1.363,-1.3818,-1.4263,-1.4468,-1.4643,-1.4901,-1.5782,-1.6294,-1.6335,-1.7335,-1.7965,-1.8198,-1.8838,-1.9502,-2.009,-2.0168,-2.0595,-2.1392,-2.1583,-2.214,-2.2877,-2.3099,-2.343,-2.3832,-2.4205,-2.4397,-2.4565,-2.5449,-2.6878,-2.8492,-2.883,-2.9083,-2.938,-2.9915,-3.0623,-3.1346,-3.1712,-3.2673,-3.3759,-3.4194,0.0,-3.5433,-3.5899,-3.6983,-3.819,-3.8912,-3.9104,-3.9131,0.0,0.0,-3.9484,-3.9781,-4.002,-4.0254,-4.049,-4.0731,-4.0966,-4.1185,-4.1463,-4.1719,-4.1941,-4.2169,-4.2351,-4.2452,-4.271,-4.2901,-4.2901,-4.2901,-4.2919,-4.2919,-4.3049,-4.3142,-4.3233,-4.3427,-4.3563,-4.3646,-4.3791,-4.3934,-4.4064,-4.4196,-4.4374,-4.4602,-4.4576,-4.4687,-4.4985,-4.4878,-4.4895,-4.5003,-4.5061,-4.5095,-4.5114,-4.5125,-4.5125,-4.5125,-4.5125,-4.5125,-4.5136,-4.5265,-4.5307,-4.5192,0.0,0.0,0.0,0.0,0.0,0.0,0.0,0.0,0.0,0.0,0.0,0.0,0.0,0.0,0.0,-1.3104,-1.2931,-1.3003,-1.3321,-1.3401,-1.3614,-1.4101,-1.4656,-1.5026,-1.5284,-1.5858,-1.6304,-1.6494,-1.7147,-1.7755,-1.823,-1.8479,-1.8997,-1.965,-1.9875,-2.0343,-2.1038,-2.1219,-2.1638,-2.214,-2.2451,-2.2798,-2.3169,-2.3562,-2.447,-2.5634,-2.6992,-2.7664,0.0,0.0,-2.9118,-2.9595,-2.9834,-3.0668,-3.1642,-3.2112,-3.299,0.0,-3.4961,-3.5788,0.0,0.0,-3.7948,-3.8199,-3.8827,-3.8996,-3.905,-3.9239,-3.9398,-3.9566,-3.9927,-4.0087,-4.0262,0.0,-4.0741,-4.0931,-4.122,-4.1574,-4.1852,-4.2089,-4.2396,-4.265,-4.2709,-4.2728,-4.2728,-4.2728,-4.286,-4.2936,-4.2974,-4.316,-4.3287,-4.3304,-4.3425,-4.3579,-4.3716,-4.3793,-4.3918,-4.405,-4.4162,-4.4265,-4.4383,-4.4426,-4.4554,-4.4725,-4.4858,-4.4943,-4.4979,-4.508,-4.5103,-4.5045,-4.457,-4.4398,-4.441,-4.4465,-4.4494,-4.4361,0.0,0.0,0.0,0.0,0.0,0.0,0.0,0.0,0.0,0.0,0.0,0.0,0.0,0.0,0.0,-1.2565,-1.231,-1.222,-1.2409,-1.2467,-1.2682,-1.3097,-1.3558,-1.3923,-1.4146,-1.4524,-1.4817,-1.5061,-1.5643,-1.6139,-1.6583,-1.696,-1.748,-1.8069,-1.8221,-1.8661,-1.9304,-1.9462,-1.9846,-2.0362,-2.0682,-2.1135,-2.1669,-2.2042,-2.2521,-2.322,-2.5216,-2.6193,-2.6676,-2.7224,-2.767,-2.8059,-2.8241,-2.8896,-2.9693,-3.0182,-3.125,-3.2599,-3.3927,0.0,0.0,-3.6338,-3.6736,-3.7079,-3.8072,-3.8345,-3.8477,-3.8772,-3.8887,-3.905,-3.9398,-3.9478,-3.9609,-3.9893,-3.9995,-4.0154,-4.049,-4.0873,-4.1243,-4.16,-4.1963,-4.2228,-4.2369,-4.251,-4.2609,-4.2609,-4.2688,-4.2745,-4.2745,-4.2879,-4.2955,-4.2955,-4.3068,-4.316,-4.3304,-4.3375,-4.3442,-4.3575,-4.373,-4.3809,-4.3902,-4.4075,-4.4244,-4.4411,-4.4581,-4.47,-4.4783,-4.4649,-4.4602,-4.455,-4.3715,-4.3434,-4.3418,-4.3209,-4.33,-4.342,0.0,0.0,0.0,0.0,0.0,0.0,0.0,0.0,0.0,0.0,0.0,0.0,0.0,0.0,-1.2322,-1.2029,-1.1778,-1.1652,-1.1652,-1.1889,-1.1925,-1.1654,-1.2557,-1.2958,-1.2753,-1.3415,-1.3873,-1.4139,-1.4566,-1.4985,-1.5436,-1.565,-1.6139,-1.678,-1.678,-1.7155,-1.7772,-1.7772,-1.8014,-1.8416,-1.8877,-1.9313,-1.9795,-2.0624,-2.1203,-2.1794,-2.3562,-2.4552,-2.5146,-2.5744,-2.6324,-2.6782,-2.7007,-2.7423,0.0,-2.8436,-2.9515,-3.0908,-3.2375,0.0,-3.3779,-3.5133,-3.5558,-3.5887,-3.675,-3.7157,-3.7545,-3.8274,-3.8628,-3.8805,-3.8832,-3.8942,-3.9023,-3.905,-3.9249,-3.9523,-3.9791,-4.0195,-4.0587,-4.0977,-4.1386,-4.167,0.0,-4.229,-4.2609,-4.2609,-4.2609,-4.2609,-4.2609,-4.2609,-4.2609,-4.2609,-4.2629,-4.2688,-4.2822,-4.2822,-4.2899,-4.3032,-4.316,-4.3285,-4.344,-4.3825,-4.4033,-4.4106,-4.4265,-4.4383,-4.4439,-4.3665,-4.3399,-4.3371,-4.2485,-4.2234,-4.2248,-4.146,-4.1802,-4.2525,0.0,0.0,0.0,0.0,0.0,0.0,0.0,0.0,0.0,0.0,0.0,0.0,0.0,0.0,0.0,0.0,-1.1764,-1.1531,-1.1337,-1.1229,-1.1172,-1.1052,-1.1272,-1.1428,-1.1481,-1.1749,-1.2003,-1.2223,-1.2693,-1.316,-1.3626,-1.3795,-1.43,-1.4963,-1.4963,-1.5428,-1.6173,-1.6304,-1.6706,-1.7269,-1.7885,-1.8367,-1.8816,-1.9569,-2.0206,-2.0828,0.0,-2.2872,-2.4168,-2.485,-2.5394,-2.5838,-2.6324,-2.6598,-2.6892,-2.7637,-2.8583,-2.9574,-3.0515,0.0,-3.2103,-3.3364,-3.3906,-3.4404,-3.5335,-3.582,-3.6266,-3.7086,-3.7428,-3.7725,-3.8407,-3.8572,-3.8655,-3.8832,-3.8925,-3.9061,-3.9249,-3.961,-3.9978,-4.0302,-4.0843,0.0,0.0,0.0,0.0,-4.2269,-4.2427,-4.2526,-4.2526,-4.2588,-4.2609,-4.2609,-4.2609,-4.2629,-4.2686,-4.2686,-4.2688,-4.2747,-4.2861,-4.2975,-4.3087,-4.3356,-4.3512,-4.3559,-4.3249,-4.3166,-4.3182,-4.242,-4.2156,-4.2188,-4.1314,-4.1089,-4.113,-4.0352,-4.0273,-4.0598,0.0,0.0,0.0,0.0,0.0,0.0,0.0,0.0,0.0,0.0,0.0,0.0,0.0,0.0,0.0,0.0,0.0,-1.1194,-1.0949,-1.0731,-1.0631,-1.0562,-1.0543,-1.0497,-1.0462,-1.0558,-1.0665,-1.0747,-1.1192,-1.1585,-1.1972,-1.2357,-1.2826,-1.3372,-1.3506,-1.4006,-1.4713,-1.5019,-1.547,-1.6041,-1.6624,-1.7164,-1.7691,-1.8376,-1.9094,0.0,-2.0352,-2.1441,-2.2771,-2.3694,-2.4288,-2.4791,-2.5358,-2.5804,-2.6233,-2.6994,-2.7683,-2.839,-2.9129,-2.9844,-3.0627,-3.1634,-3.2209,-3.2825,-3.3816,-3.4346,-3.4877,-3.5799,-3.6375,-3.6949,-3.7641,-3.8032,-3.8278,-3.8444,-3.8528,-3.8628,-3.8766,-3.9071,-3.9401,-3.9671,-4.022,-4.0676,0.0,0.0,0.0,-4.2082,-4.2305,-4.2425,-4.2425,-4.2468,-4.249,-4.249,-4.249,-4.249,-4.249,-4.249,-4.251,-4.2568,-4.2665,-4.2725,-4.2787,-4.2685,-4.265,-4.2704,-4.2107,-4.1905,-4.1894,-4.1142,-4.0888,-4.0908,-4.0073,-3.9872,-4.0,-3.9524,-3.9427,-3.9551,0.0,0.0,0.0,0.0,0.0,0.0,0.0,0.0,0.0,0.0,0.0,0.0,0.0,0.0,0.0,0.0,0.0,0.0,-1.0413,-1.0364,-1.0285,-1.0058,-1.0232,-1.0134,-0.966,-0.9785,-0.9773,-0.9723,-1.0069,-1.0323,-1.0541,-1.1235,-1.171,-1.192,-1.2398,-1.2906,-1.3404,-1.3884,-1.4355,-1.4741,-1.5236,-1.582,-1.649,-1.7131,-1.7936,-1.8763,-1.9578,-2.0284,-2.1011,-2.2241,-2.3054,-2.3658,-2.4204,-2.5052,-2.5933,-2.6474,-2.6871,-2.7351,-2.8182,-2.8839,-2.9376,-2.9952,-3.0496,-3.1161,-3.2124,-3.273,-3.3334,-3.4388,-3.5462,-3.6324,0.0,0.0,-3.7828,-3.7889,-3.8049,-3.8221,-3.8379,-3.86,-3.8871,0.0,0.0,0.0,0.0,0.0,0.0,-4.1959,0.0,-4.2267,-4.2267,-4.2267,-4.2287,-4.2287,-4.2287,-4.2287,-4.2287,-4.2287,-4.2348,-4.243,-4.243,-4.2436,-4.2446,-4.1806,-4.154,-4.1578,-4.0907,-4.0648,-4.0642,-3.9823,-3.9528,-3.9536,-3.8831,-3.8685,-3.8882,-3.9008,-3.9178,-3.9389,0.0,0.0,0.0,0.0,0.0,0.0,0.0,0.0,0.0,0.0,0.0,0.0,0.0,0.0,0.0,0.0,0.0,0.0,-1.0117,-1.0117,-1.0002,-0.9759,-0.9477,-0.9288,-0.9192,-0.8874,-0.8779,-0.8914,-0.9008,-0.9217,-0.9633,-0.9812,-1.0222,-1.0809,-1.1352,-1.208,-1.2933,-1.3824,-1.4451,-1.4899,-1.5565,-1.6038,-1.6415,-1.7063,-1.7615,-1.8128,-1.8991,-1.9571,-2.0148,-2.1558,-2.2542,-2.3213,-2.3655,-2.4251,-2.4898,-2.5476,-2.6104,-2.6722,-2.725,-2.7835,-2.8409,-2.8712,-2.916,-2.9625,-3.0152,-3.0727,-3.1531,-3.2809,-3.358,-3.4446,0.0,0.0,0.0,-3.765,-3.7876,0.0,-3.802,-3.816,0.0,-3.8572,0.0,-3.9348,-3.9714,-4.0153,0.0,0.0,-4.148,-4.1823,-4.1931,-4.1931,-4.197,-4.2072,-4.2072,-4.2097,-4.2145,-4.2246,-4.2022,-4.1453,-4.1453,-4.1151,-4.0581,-4.046,-4.0427,-4.0392,-3.9623,-3.9282,-3.9247,-3.8438,-3.8133,-3.8202,-3.8003,-3.8079,-3.8311,-3.8404,-3.86,-3.8818,0.0,0.0,0.0,0.0,0.0,0.0,0.0,0.0,0.0,0.0,0.0,0.0,0.0,0.0,0.0,0.0,0.0,0.0,0.0,-0.9821,-0.9776,-0.9628,-0.9384,-0.9133,-0.8934,-0.8578,-0.8354,-0.8251,-0.8276,-0.843,-0.8715,-0.8897,-0.9266,-0.9828,-1.0565,-1.1395,-1.2318,-1.3411,-1.4179,0.0,0.0,-1.5665,-1.5924,-1.636,-1.6985,-1.7717,-1.8515,-1.9315,0.0,0.0,0.0,-2.259,-2.315,-2.3644,-2.4179,-2.4945,0.0,-2.6035,-2.6586,-2.7095,-2.7484,-2.7809,-2.8176,-2.8551,-2.8903,-2.9425,-3.0142,-3.1186,-3.2139,0.0,-3.4708,0.0,0.0,0.0,0.0,0.0,-3.7669,-3.7873,-3.8046,0.0,-3.8427,0.0,-3.9001,-3.942,-3.9757,0.0,-4.0808,-4.1391,-4.152,-4.1648,-4.1758,-4.1902,-4.1984,-4.1849,-4.1523,-4.1606,-4.1238,-4.0455,-4.0455,-4.0204,-3.9759,-3.9459,-3.9354,-3.93,0.0,-3.8142,-3.8107,-3.7662,-3.7485,-3.754,-3.7559,-3.7703,-3.7892,-3.7959,-3.8111,-3.831,0.0,0.0,0.0,0.0,0.0,0.0,0.0,0.0,0.0,0.0,0.0,0.0,0.0,0.0,0.0,0.0,0.0,0.0,0.0,0.0,0.0,-0.9727,-0.9677,-0.9426,-0.8973,-0.8792,-0.8475,-0.7987,-0.805,-0.8077,-0.8077,-0.8494,-0.8828,-0.9165,-1.0141,-1.1023,-1.1863,-1.3106,-1.389,-1.4378,-1.4889,-1.5212,-1.54,0.0,0.0,0.0,-1.83,-1.9393,0.0,0.0,-2.1119,-2.1807,-2.259,-2.3113,-2.3629,-2.4587,-2.5016,-2.537,-2.607,-2.644,-2.6726,-2.7079,-2.739,-2.7743,-2.8105,-2.8519,-2.9048,-2.9749,0.0,-3.2302,-3.3381,-3.4561,-3.5658,-3.6461,0.0,-3.7298,-3.7298,-3.7581,-3.7801,-3.7831,-3.796,-3.8116,-3.8242,-3.8645,-3.892,-3.9071,-4.0086,-4.0784,-4.103,-4.1277,-4.1498,-4.1692,-4.1753,-4.1449,-4.0742,-4.0678,-4.0238,-3.9441,-3.9441,-3.9388,-3.9264,-3.8606,-3.8306,-3.827,0.0,0.0,-3.7259,-3.7239,-3.7239,-3.7239,-3.7298,-3.7392,-3.7485,-3.7577,-3.7685,-3.7826,0.0,0.0,0.0,0.0,0.0,0.0,0.0,0.0,0.0,0.0,-1.4342,-1.3292,0.0,0.0,0.0,0.0,0.0,0.0,0.0,0.0,0.0,0.0,-1.0068,-0.9871,-0.9768,-0.9546,-0.9284,-0.8943,-0.8962,-0.8996,-0.8996,-0.9045,-0.9339,-0.9873,-1.0697,-1.1521,-1.2346,-1.3635,-1.445,-1.4978,-1.549,-1.5678,-1.5725,0.0,0.0,0.0,-1.8937,0.0,-2.0354,-2.0893,-2.1086,-2.1167,-2.1807,-2.2289,-2.2815,-2.3813,-2.4443,-2.4898,-2.537,-2.5886,-2.6305,-2.6374,-2.6624,-2.6985,-2.739,-2.7743,0.0,0.0,-2.9769,-3.0785,-3.2629,-3.3452,-3.4379,-3.5871,-3.6414,-3.6693,0.0,0.0,-3.7373,0.0,0.0,0.0,0.0,0.0,0.0,0.0,0.0,0.0,-4.0178,-4.0368,-4.0693,-4.121,-4.0863,-4.0615,-4.0475,-4.0029,-3.9423,-3.8697,-3.8697,-3.8343,-3.7686,-3.7448,-3.7341,-3.7321,0.0,0.0,-3.7046,-3.6928,-3.6888,-3.6888,-3.6891,-3.6928,-3.6946,-3.7091,-3.7171,-3.7238,0.0,0.0,0.0,0.0,0.0,0.0,0.0,-1.6789,-1.6789,-1.6789,-1.6194,-1.5331,-1.3954,-1.3324,-1.2798,0.0,0.0,0.0,0.0,0.0,0.0,0.0,0.0,0.0,0.0,-1.0314,0.0,0.0,0.0,0.0,0.0,0.0,0.0,0.0,0.0,-1.2019,-1.284,-1.401,-1.4831,-1.5356,-1.5689,-1.5784,0.0,0.0,0.0,0.0,0.0,0.0,-2.0862,-2.1134,-2.1143,-2.1125,-2.1391,-2.1769,-2.2289,-2.3298,-2.3911,-2.4443,-2.5087,-2.55,-2.5793,-2.6131,-2.6339,-2.6533,-2.6897,0.0,0.0,0.0,-2.8944,-2.9954,-3.1646,-3.2518,0.0,-3.4913,-3.5688,-3.6148,0.0,0.0,0.0,0.0,0.0,0.0,0.0,0.0,0.0,0.0,0.0,0.0,-3.9437,-3.9505,-3.9691,-4.0038,-3.9588,-3.9177,-3.879,-3.8597,-3.8163,-3.7451,-3.7451,-3.7279,-3.6985,-3.6928,-3.6888,-3.6888,-3.6849,0.0,-3.6846,-3.6768,-3.6745,-3.6745,-3.6745,-3.6745,-3.6763,-3.6815,-3.6818,-3.6803,0.0,0.0,0.0,0.0,0.0,0.0,0.0,-1.7793,-1.7793,-1.7793,-1.7793,-1.7173,-1.5591,-1.4675,-1.3958,0.0,0.0,0.0,0.0,0.0,0.0,0.0,0.0,0.0,0.0,0.0,0.0,0.0,0.0,0.0,0.0,0.0,0.0,0.0,0.0,0.0,0.0,-1.4394,-1.507,0.0,0.0,0.0,0.0,0.0,0.0,0.0,0.0,0.0,0.0,0.0,-2.1268,-2.1192,-2.1113,-2.1349,-2.1845,-2.2777,-2.3372,-2.3959,-2.4778,-2.5135,-2.5418,-2.5945,-2.6131,-2.6305,-2.6624,-2.693,0.0,-2.7656,-2.8314,-2.9265,-3.074,-3.166,-3.2583,0.0,-3.4824,-3.5415,-3.5593,0.0,0.0,0.0,0.0,0.0,0.0,0.0,0.0,0.0,0.0,0.0,-3.8597,-3.8503,-3.8503,-3.8667,-3.8206,-3.7678,-3.7131,-3.7127,-3.6879,-3.6339,-3.6343,-3.6423,-3.6523,-3.6544,-3.6564,-3.6564,-3.6602,0.0,0.0,-3.662,-3.6599,-3.6599,-3.6599,-3.6579,-3.6561,-3.6582,-3.652,-3.6402,0.0,0.0,0.0,0.0,0.0,0.0,0.0,-1.8318,-1.8318,-1.8318,-1.8318,-1.8192,-1.7756,-1.6733,-1.5831,0.0,0.0,0.0,0.0,0.0,0.0,0.0,0.0,0.0,0.0,0.0,0.0,0.0,0.0,0.0,0.0,0.0,0.0,0.0,0.0,0.0,0.0,0.0,0.0,0.0,0.0,0.0,0.0,0.0,0.0,0.0,0.0,0.0,0.0,0.0,0.0,-2.1162,-2.0781,-2.0925,-2.1397,-2.2025,0.0,0.0,-2.3922,-2.4635,-2.5347,-2.5606,-2.5945,-2.6305,-2.6624,0.0,-2.6884,-2.7423,-2.7756,-2.8432,-3.0167,-3.0793,-3.1567,-3.3128,-3.3879,-3.4375,-3.4662,0.0,0.0,0.0,0.0,0.0,0.0,0.0,0.0,0.0,0.0,0.0,0.0,-3.7118,-3.7034,-3.727,-3.6764,-3.6535,-3.6572,-3.6163,-3.5939,-3.5871,-3.5924,-3.595,-3.5972,-3.6097,-3.6156,-3.6156,0.0,0.0,0.0,-3.6306,-3.6264,-3.6337,-3.6264,-3.6165,-3.6062,-3.6187,-3.6165,-3.6041,0.0,0.0,0.0,0.0,0.0,0.0,-1.8959,-1.8952,-1.8952,-1.8952,-1.8952,-1.8909,-1.8786,-1.8222,-1.7375,-1.6293,0.0,0.0,0.0,0.0,0.0,0.0,0.0,0.0,0.0,0.0,0.0,-1.428,0.0,0.0,0.0,0.0,0.0,0.0,0.0,0.0,0.0,0.0,0.0,0.0,0.0,0.0,0.0,0.0,0.0,0.0,0.0,0.0,0.0,0.0,0.0,0.0,-2.083,-2.0722,0.0,0.0,-2.2149,-2.274,-2.3519,-2.4177,-2.4754,-2.5276,-2.5723,-2.6084,-2.6327,0.0,-2.6782,-2.7146,-2.7436,-2.8078,-2.9632,-3.0192,-3.0862,-3.2253,-3.3023,0.0,-3.3885,0.0,0.0,0.0,0.0,0.0,0.0,0.0,0.0,0.0,0.0,0.0,0.0,-3.5524,-3.5721,-3.5834,-3.5366,-3.5119,-3.5184,-3.507,-3.5038,-3.5075,-3.5191,-3.5283,-3.5351,-3.5504,-3.5549,-3.5571,0.0,0.0,0.0,-3.5817,-3.5817,-3.5773,-3.5922,-3.5927,-3.5905,-3.6036,-3.5975,-3.5883,0.0,0.0,0.0,0.0,0.0,-1.9635,-1.9532,-1.9532,-1.9532,-1.9532,-1.9532,-1.9532,-1.9532,-1.9324,-1.8802,-1.7745,-1.7287,0.0,0.0,0.0,0.0,0.0,0.0,0.0,0.0,0.0,-1.5764,-1.5764,-1.5581,-1.5581,0.0,0.0,0.0,0.0,0.0,0.0,0.0,0.0,0.0,0.0,0.0,0.0,0.0,0.0,0.0,0.0,0.0,0.0,0.0,0.0,0.0,0.0,0.0,-2.0869,-2.0848,0.0,-2.1655,-2.2176,-2.3001,-2.3714,-2.437,-2.4993,-2.55,-2.5945,0.0,0.0,-2.6692,-2.6875,-2.7146,-2.7788,-2.9158,-2.9706,-3.0338,-3.1542,-3.2264,-3.281,-3.3136,-3.3713,0.0,0.0,0.0,0.0,0.0,0.0,0.0,0.0,0.0,0.0,0.0,-3.41,-3.4409,-3.4436,-3.4121,-3.3975,-3.4,-3.4151,-3.4234,-3.4276,-3.4399,-3.4521,-3.4617,-3.4738,-3.4849,-3.4873,0.0,0.0,0.0,-3.5195,-3.5224,-3.5144,-3.5379,-3.5503,-3.5549,-3.5644,-3.5622,-3.5515,0.0,0.0,0.0,0.0,0.0,0.0,-2.013,-2.0078,-2.0078,-2.0078,-2.0078,-2.0078,-2.0078,-2.0078,-2.0043,-1.9965,-1.863,0.0,0.0,0.0,0.0,0.0,0.0,0.0,0.0,0.0,-1.7279,-1.7279,-1.7279,-1.7279,-1.7279,-1.7279,0.0,0.0,0.0,0.0,0.0,0.0,0.0,0.0,0.0,0.0,0.0,0.0,0.0,0.0,0.0,0.0,0.0,0.0,0.0,0.0,0.0,-2.1567,-2.1177,-2.0945,-2.132,-2.1883,-2.2289,-2.3298,-2.4298,-2.4612,-2.5312,-2.5945,0.0,-2.6374,-2.6521,-2.6692,-2.6863,-2.7426,-2.8757,-2.9319,-2.9998,-3.1125,-3.1656,0.0,-3.2345,0.0,0.0,0.0,0.0,0.0,0.0,0.0,0.0,0.0,0.0,0.0,0.0,-3.2912,-3.2993,-3.3112,-3.3112,-3.3176,-3.3309,-3.345,-3.3503,-3.3503,-3.3658,-3.3694,-3.372,-3.3848,-3.4,0.0,0.0,0.0,0.0,-3.4538,-3.4464,-3.4421,-3.4642,-3.4787,-3.4923,-3.4923,-3.4923,-3.4807,0.0,0.0,0.0,0.0,0.0,0.0,0.0,-2.1062,-2.0909,-2.0909,-2.0763,-2.066,-2.066,-2.0806,-2.092,-2.091,-1.993,0.0,0.0,0.0,0.0,0.0,0.0,0.0,0.0,0.0,-1.8796,-1.8796,-1.865,-1.8742,-1.9063,-1.8888,-1.9018,-1.9413,0.0,0.0,0.0,0.0,0.0,0.0,0.0,0.0,0.0,0.0,0.0,0.0,0.0,0.0,0.0,0.0,0.0,0.0,0.0,0.0,0.0,-2.1128,-2.1359,0.0,-2.2252,-2.3075,-2.3959,-2.4731,-2.5418,-2.5945,-2.6131,-2.6374,-2.6521,-2.6692,-2.6863,-2.7391,-2.8757,-2.9226,-2.9761,-3.0902,-3.1323,0.0,0.0,0.0,0.0,0.0,0.0,0.0,0.0,0.0,0.0,0.0,0.0,0.0,0.0,-3.2277,-3.2499,-3.2951,-3.2951,-3.2978,-3.3032,-3.3085,-3.3085,-3.3096,-3.3229,-3.3282,-3.3309,-3.3424,0.0,0.0,0.0,0.0,0.0,-3.3527,-3.3614,-3.3582,-3.3869,-3.4052,-3.4161,-3.3738,-3.3655,-3.3652,0.0,0.0,0.0,0.0,0.0,0.0,0.0,-2.2316,-2.2165,-2.2072,-2.1928,-2.1827,-2.1827,-2.2064,-2.2266,-2.2375,-2.1954,0.0,0.0,0.0,0.0,0.0,0.0,0.0,-2.0348,-2.0339,-2.0339,-2.0339,-2.0204,-2.0286,-2.0565,-2.0393,-2.052,-2.0863,-2.0863,0.0,0.0,0.0,0.0,0.0,0.0,0.0,-2.2969,0.0,0.0,0.0,0.0,0.0,0.0,0.0,0.0,0.0,0.0,0.0,0.0,0.0,-2.1502,-2.1807,-2.2289,-2.3038,-2.3886,-2.4683,-2.5382,-2.5945,-2.6131,-2.6374,-2.6521,-2.6624,-2.6807,-2.7391,-2.865,-2.9119,-2.9653,-3.079,-3.1099,-3.1272,0.0,0.0,0.0,0.0,0.0,0.0,0.0,0.0,0.0,0.0,0.0,0.0,0.0,0.0,-3.1925,-3.2373,-3.2554,-3.2664,-3.2718,-3.2664,-3.2636,-3.2636,-3.2664,-3.2691,-3.2691,-3.2757,0.0,0.0,0.0,0.0,0.0,-3.2815,-3.2781,-3.2599,-3.2777,-3.2806,-3.272,-3.2357,-3.2255,-3.224,0.0,0.0,0.0,0.0,0.0,0.0,0.0,-2.384,-2.3701,-2.347,-2.3429,-2.3429,-2.3429,-2.3651,-2.3899,-2.4174,0.0,0.0,0.0,0.0,0.0,0.0,0.0,0.0,-2.1784,-2.1784,-2.1828,-2.1828,-2.1828,-2.1828,-2.1872,-2.1872,-2.1996,-2.2164,-2.2164,-2.2306,0.0,0.0,0.0,0.0,0.0,0.0,0.0,0.0,0.0,0.0,0.0,0.0,0.0,0.0,0.0,0.0,0.0,0.0,0.0,0.0,0.0,0.0,0.0,-2.315,-2.4032,-2.4576,-2.5312,-2.5945,-2.6166,-2.6361,0.0,-2.6571,-2.6837,-2.7421,-2.8585,-2.909,-2.9742,-3.0803,-3.0986,0.0,0.0,0.0,0.0,0.0,0.0,0.0,0.0,0.0,0.0,0.0,0.0,0.0,0.0,0.0,-3.1307,-3.1451,-3.1866,-3.2163,-3.2342,-3.2247,-3.2191,-3.2191,-3.2066,-3.1996,-3.1996,-3.1996,0.0,0.0,0.0,0.0,0.0,-3.2192,-3.1901,-3.1449,-3.1449,-3.1182,-3.0832,-3.0785,-3.0754,-3.0685,0.0,0.0,0.0,0.0,0.0,0.0,0.0,0.0,0.0,0.0,-2.4648,-2.4501,-2.4501,-2.4747,-2.4943,0.0,0.0,0.0,0.0,0.0,0.0,0.0,0.0,0.0,-2.2784,-2.2775,-2.2862,-2.3091,-2.3091,-2.3256,-2.3627,-2.3627,-2.3714,-2.392,-2.392,-2.3973,0.0,0.0,0.0,0.0,0.0,0.0,0.0,0.0,0.0,0.0,-2.4325,-2.4325,0.0,0.0,0.0,0.0,0.0,0.0,0.0,0.0,-2.1921,-2.2176,-2.2515,0.0,-2.4068,-2.4767,-2.5418,-2.598,0.0,-2.6465,-2.6647,-2.7237,-2.7535,-2.8068,-2.9295,-2.9733,-3.0163,-3.0869,-3.0986,-3.1024,0.0,0.0,0.0,0.0,0.0,0.0,0.0,0.0,0.0,0.0,0.0,0.0,0.0,0.0,-3.0569,-3.0955,-3.0911,-3.1204,-3.1866,-3.1981,-3.2053,-3.2053,-3.2025,-3.1996,-3.1996,-3.1996,0.0,0.0,0.0,0.0,-3.0745,-3.0125,-2.9936,-3.006,-3.006,-3.0141,-3.0138,-2.953,-2.9358,-2.9327,0.0,0.0,0.0,0.0,0.0,0.0,0.0,0.0,0.0,0.0,0.0,0.0,0.0,0.0,0.0,0.0,0.0,0.0,0.0,0.0,0.0,0.0,0.0,-2.4561,-2.4405,-2.4191,-2.4176,-2.4433,-2.4433,-2.468,-2.5137,-2.5137,-2.521,-2.5421,-2.5421,-2.5421,0.0,0.0,0.0,0.0,-2.5031,0.0,0.0,0.0,0.0,0.0,-2.47,-2.4615,0.0,-2.4497,-2.3939,-2.3184,0.0,0.0,0.0,0.0,-2.1959,-2.2138,-2.2365,-2.3001,-2.3813,-2.4575,-2.5135,-2.5606,-2.6107,-2.6479,-2.6917,-2.7487,-2.7979,-2.8569,-2.9613,-2.9978,-3.0283,-3.0895,-3.0986,0.0,0.0,0.0,0.0,0.0,0.0,0.0,0.0,0.0,0.0,0.0,0.0,0.0,0.0,0.0,-2.9654,-2.9993,-3.007,-3.0569,-3.1509,-3.1538,-3.1611,-3.1668,-3.1668,-3.1518,-3.1217,-3.1217,0.0,0.0,0.0,0.0,-2.9725,-2.9273,-2.9045,-2.8955,-2.8955,-2.8868,-2.867,-2.8222,-2.8113,-2.8105,0.0,0.0,0.0,0.0,0.0,0.0,0.0,0.0,0.0,0.0,0.0,0.0,0.0,0.0,0.0,0.0,0.0,0.0,0.0,0.0,0.0,0.0,-2.6404,-2.6051,-2.6087,-2.5722,-2.5602,-2.5737,-2.5737,-2.5988,-2.6434,-2.6434,-2.6517,-2.6682,-2.6682,-2.6682,0.0,0.0,-2.6434,0.0,-2.5946,0.0,0.0,0.0,0.0,0.0,0.0,0.0,0.0,-2.4583,-2.3929,-2.3184,-2.3184,0.0,0.0,0.0,0.0,0.0,-2.2111,-2.259,-2.3335,-2.4152,-2.4683,-2.5111,-2.575,-2.6413,-2.7057,0.0,0.0,-2.8984,-2.9757,-3.0071,0.0,0.0,0.0,0.0,0.0,0.0,0.0,0.0,0.0,0.0,0.0,0.0,0.0,0.0,0.0,0.0,0.0,0.0,0.0,-2.8908,-2.9198,-2.9782,-3.069,-3.0793,-3.0925,-3.1013,-3.1013,-3.0672,-3.0079,-3.0079,0.0,0.0,0.0,0.0,-2.8868,-2.8737,-2.8397,-2.7992,-2.7992,-2.7668,-2.7207,-2.7181,-2.7155,-2.7155,0.0,0.0,0.0,0.0,0.0,0.0,0.0,0.0,0.0,0.0,0.0,0.0,0.0,0.0,0.0,0.0,0.0,0.0,0.0,0.0,0.0,-2.9294,-2.8453,-2.7613,-2.6842,-2.6945,-2.6942,-2.6928,-2.6928,-2.7174,-2.7557,-2.7557,-2.7557,-2.7597,-2.7597,-2.7597,-2.7597,-2.7568,-2.7557,-2.7516,-2.7092,0.0,0.0,0.0,0.0,0.0,0.0,0.0,0.0,-2.4828,-2.4096,-2.3184,-2.3184,0.0,0.0,0.0,0.0,0.0,-2.2063,-2.2176,-2.2515,-2.3482,-2.4238,-2.4944,-2.5647,-2.6178,-2.681,0.0,0.0,0.0,0.0,-3.048,-3.0707,0.0,0.0,0.0,0.0,0.0,0.0,0.0,0.0,0.0,0.0,0.0,0.0,0.0,0.0,0.0,0.0,0.0,0.0,-2.802,-2.8039,-2.8032,-2.7995,-2.9494,-3.0038,-2.9696,-2.9696,-2.9421,-2.8951,-2.8951,-2.8893,0.0,0.0,-2.7742,-2.7699,-2.7016,-2.6837,-2.7004,-2.7004,-2.7088,-2.7181,-2.7067,-2.7029,-2.7029,0.0,0.0,0.0,0.0,0.0,0.0,0.0,0.0,0.0,0.0,0.0,0.0,0.0,0.0,0.0,0.0,0.0,0.0,0.0,0.0,-3.0566,-3.0767,-3.0723,-3.0077,-2.8738,-2.8684,-2.8542,-2.8315,-2.8426,-2.8566,-2.8648,-2.8794,-2.8834,-2.8834,-2.8834,-2.8834,-2.8834,-2.8727,-2.8648,-2.8609,0.0,0.0,0.0,0.0,0.0,0.0,0.0,0.0,0.0,0.0,-2.4304,-2.3346,-2.3224,0.0,0.0,0.0,0.0,0.0,-2.1911,-2.2035,-2.2277,-2.2988,-2.376,-2.4519,-2.5373,-2.6191,-2.699,0.0,0.0,0.0,0.0,0.0,0.0,0.0,0.0,0.0,0.0,0.0,0.0,0.0,0.0,0.0,0.0,0.0,0.0,0.0,0.0,0.0,0.0,0.0,0.0,0.0,-2.7157,-2.6974,-2.6878,-2.7503,-2.7939,-2.8141,-2.8333,-2.811,-2.7556,-2.7654,-2.7511,-2.7154,0.0,-2.6631,-2.6603,-2.6248,-2.6215,-2.6418,-2.6414,-2.6529,-2.6712,-2.664,-2.6671,-2.67,0.0,0.0,0.0,0.0,0.0,0.0,0.0,0.0,0.0,0.0,0.0,0.0,0.0,0.0,0.0,0.0,0.0,0.0,0.0,0.0,-3.1737,-3.1933,-3.2525,-3.2136,-3.0639,-3.0477,-3.0143,-2.965,-2.984,-2.9809,-2.9651,-2.9793,-2.9858,-2.9858,-2.9858,-2.9858,-2.9871,-2.969,-2.9613,-2.9613,0.0,0.0,0.0,0.0,0.0,0.0,0.0,0.0,0.0,0.0,0.0,0.0,0.0,0.0,0.0,-2.1915,-2.1845,-2.1807,-2.1807,-2.1994,-2.2307,-2.2778,-2.3384,-2.4117,-2.5055,-2.6073,-2.6897,0.0,0.0,0.0,0.0,0.0,0.0,0.0,0.0,0.0,0.0,0.0,0.0,0.0,0.0,0.0,0.0,0.0,0.0,0.0,0.0,0.0,0.0,0.0,0.0,0.0,-2.6242,-2.5968,-2.5839,-2.5604,-2.588,-2.6641,-2.6909,-2.671,-2.6101,-2.6216,-2.6022,-2.5647,-2.5647,-2.5674,-2.5702,-2.57,-2.5768,-2.589,-2.5888,-2.5994,-2.614,-2.6042,-2.6042,-2.6124,0.0,0.0,0.0,0.0,0.0,0.0,0.0,0.0,0.0,0.0,0.0,0.0,0.0,0.0,0.0,0.0,0.0,0.0,0.0,0.0,-3.2711,-3.2902,-3.3172,-3.2865,-3.1782,-3.2022,-3.1678,-3.077,-3.0822,-3.0621,-3.033,-3.0355,-3.0368,-3.0368,-3.0368,-3.0368,-3.0368,-3.0317,-3.033,-3.033,-3.0113,0.0,0.0,0.0,0.0,0.0,0.0,0.0,0.0,0.0,0.0,0.0,0.0,0.0,-2.2628,-2.2199,-2.1959,-2.1807,-2.1807,-2.2118,-2.2592,-2.3058,-2.3327,-2.374,-2.4942,-2.5547,-2.6026,-2.6464,0.0,0.0,0.0,0.0,0.0,0.0,0.0,0.0,0.0,0.0,0.0,0.0,0.0,0.0,0.0,0.0,0.0,0.0,0.0,0.0,0.0,0.0,0.0,0.0,0.0,-2.4664,-2.418,-2.4285,-2.4666,-2.5336,-2.5366,-2.5119,-2.4633,-2.4662,-2.4734,-2.4863,-2.4863,-2.4948,-2.5061,-2.5048,-2.5148,-2.5273,-2.5245,-2.5467,-2.57,-2.5247,-2.5089,-2.5045,0.0,0.0,0.0,0.0,0.0,0.0,0.0,0.0,0.0,0.0,0.0,0.0,0.0,0.0,0.0,0.0,0.0,0.0,0.0,-3.2988,-3.3428,-3.3683,-3.3894,-3.3833,-3.3476,-3.3418,-3.3034,-3.2333,-3.1745,-3.1228,-3.0748,-3.0748,-3.0748,-3.0785,-3.0898,-3.0973,-3.0973,-3.1099,-3.1061,-3.0973,-3.0861,-3.0685,0.0,0.0,0.0,0.0,0.0,0.0,0.0,0.0,-2.6303,-2.5308,-2.4306,-2.3448,-2.272,-2.2248,-2.1949,-2.1807,-2.1807,-2.2149,-2.2604,-2.307,-2.3469,-2.3954,-2.4962,-2.5529,-2.5926,-2.6102,-2.6415,0.0,0.0,0.0,0.0,0.0,0.0,0.0,0.0,0.0,0.0,0.0,0.0,0.0,0.0,0.0,0.0,0.0,0.0,0.0,0.0,0.0,0.0,0.0,0.0,-2.4217,-2.4004,-2.3671,-2.3634,-2.391,-2.4103,-2.4105,-2.3927,-2.4057,-2.4157,-2.4245,-2.4319,-2.4392,-2.4421,-2.4305,-2.4376,-2.4478,-2.4229,-2.411,-2.4055,-2.3784,-2.3762,-2.3768,0.0,0.0,0.0,0.0,0.0,0.0,0.0,0.0,0.0,0.0,0.0,0.0,0.0,0.0,0.0,0.0,0.0,0.0,-3.3416,-3.3882,-3.423,-3.441,-3.4535,-3.4564,-3.4535,-3.4369,-3.397,-3.3329,-3.2293,-3.164,-3.1323,-3.1178,-3.1136,-3.1187,-3.1323,-3.1397,-3.1397,-3.1522,-3.1522,-3.1397,-3.1397,-3.1211,0.0,0.0,0.0,0.0,0.0,0.0,0.0,0.0,-2.7243,-2.6234,-2.5101,-2.4047,-2.3126,-2.2573,-2.2102,-2.1838,-2.1983,-2.2366,-2.2822,-2.3287,-2.3753,-2.4294,-2.4957,-2.5422,-2.5686,-2.5686,-2.5748,-2.5946,0.0,0.0,0.0,0.0,0.0,0.0,0.0,0.0,0.0,0.0,0.0,0.0,0.0,0.0,0.0,0.0,0.0,0.0,0.0,0.0,0.0,0.0,0.0,0.0,-2.3586,-2.3199,-2.2969,-2.3,-2.321,-2.333,-2.339,-2.3522,-2.3582,-2.3582,-2.3675,-2.3647,-2.3509,-2.3376,-2.3299,-2.3244,-2.3051,-2.2844,-2.2664,-2.2416,-2.2392,-2.2432,0.0,0.0,0.0,0.0,0.0,0.0,0.0,0.0,0.0,0.0,0.0,0.0,0.0,0.0,0.0,0.0,0.0,0.0,-3.4397,-3.4867,-3.5127,-3.5127,-3.5127,-3.5003,-3.4797,-3.4797,-3.4397,-3.3587,-3.2385,-3.1913,-3.2079,-3.1536,-3.1397,-3.1609,-3.1609,-3.1609,-3.1609,-3.1609,-3.1609,-3.1609,-3.1609,-3.1609,-3.1609,0.0,0.0,0.0,0.0,0.0,0.0,0.0,-2.8383,-2.7596,-2.6457,-2.5214,-2.4068,-2.3332,-2.2468,-2.1901,-2.2366,-2.2832,-2.3298,-2.3764,0.0,0.0,-2.4828,-2.5031,-2.52,-2.52,-2.5031,-2.5031,-2.5411,0.0,0.0,0.0,0.0,0.0,0.0,0.0,0.0,0.0,0.0,0.0,0.0,0.0,0.0,0.0,0.0,0.0,0.0,0.0,0.0,0.0,0.0,0.0,-2.2678,-2.2678,-2.272,-2.272,-2.272,-2.2769,-2.2909,-2.2909,-2.2909,-2.2896,-2.2896,-2.2645,-2.2297,-2.228,-2.1958,-2.1501,-2.169,-2.1783,-2.1712,-2.1271,-2.1079,-2.1002,0.0,0.0,0.0,0.0,0.0,0.0,0.0,0.0,0.0,0.0,0.0,0.0,0.0,0.0,0.0,0.0,0.0,0.0,-3.51,-3.5358,-3.5521,-3.5521,-3.5521,-3.548,-3.544,-3.5277,-3.4752,-3.3831,-3.3054,-3.2539,-3.2372,-3.1787,-3.1522,-3.1609,-3.1743,-3.189,-3.2036,-3.2036,-3.2036,-3.2,-3.1853,-3.172,-3.1609,0.0,0.0,0.0,0.0,0.0,0.0,0.0,0.0,0.0,-2.6839,-2.5464,-2.4226,-2.3371,-2.2468,-2.1901,-2.2366,-2.2832,-2.3298,-2.3764,0.0,0.0,0.0,-2.4946,0.0,0.0,-2.4786,-2.47,0.0,0.0,0.0,0.0,0.0,0.0,0.0,0.0,0.0,0.0,0.0,0.0,0.0,0.0,0.0,0.0,0.0,0.0,0.0,0.0,0.0,0.0,0.0,0.0,-2.2149,-2.2266,-2.2352,-2.2352,-2.2352,-2.2494,-2.2769,-2.2769,-2.2559,-2.2201,-2.2201,-2.1922,-2.1444,-2.1289,-2.0917,-2.0442,-2.0517,-2.037,-2.0108,-1.995,-1.989,-1.9877,0.0,0.0,0.0,0.0,0.0,0.0,0.0,0.0,0.0,0.0,-3.5696,0.0,0.0,0.0,0.0,0.0,0.0,0.0,0.0,-3.623,-3.6389,-3.6455,-3.6455,-3.6375,-3.6177,-3.5897,-3.548,-3.4848,-3.37,-3.3063,-3.2909,-3.2094,-3.178,-3.1913,-3.2046,-3.2191,-3.2408,-3.2408,-3.2444,-3.2516,-3.2372,-3.2264,-3.2155,0.0,0.0,0.0,0.0,0.0,0.0,0.0,0.0,0.0,-2.7707,-2.6176,-2.4742,-2.3781,-2.2769,-2.2018,-2.2633,-2.2977,0.0,-2.3981,-2.4301,-2.454,-2.47,0.0,0.0,0.0,0.0,0.0,0.0,0.0,0.0,0.0,0.0,0.0,0.0,0.0,0.0,0.0,0.0,0.0,0.0,0.0,0.0,0.0,0.0,0.0,0.0,0.0,0.0,0.0,0.0,0.0,-2.1388,-2.1506,-2.1549,-2.158,-2.1643,-2.18,-2.1975,-2.2122,-2.1976,-2.1546,-2.1209,-2.0889,-2.0543,-2.0213,-1.9884,-1.9597,-1.9597,-1.9462,-1.9243,-1.9247,-1.9235,-1.9235,0.0,0.0,0.0,0.0,0.0,0.0,0.0,0.0,0.0,0.0,-3.6677,-3.6413,0.0,0.0,0.0,0.0,0.0,0.0,0.0,0.0,-3.7519,-3.7682,-3.772,-3.7529,-3.7092,-3.6688,-3.6492,-3.6452,-3.4411,-3.3508,-3.3663,-3.2516,-3.2119,-3.2417,-3.2417,-3.2561,-3.2739,-3.2739,-3.2846,-3.3058,-3.3058,-3.3058,-3.3094,-3.3058,0.0,0.0,0.0,0.0,0.0,0.0,0.0,0.0,-2.8779,-2.7156,-2.5383,-2.4482,-2.3246,-2.2325,-2.3026,-2.3215,-2.3463,-2.428,-2.4497,0.0,-2.4497,-2.4627,-2.4798,-2.4798,0.0,0.0,0.0,0.0,0.0,0.0,0.0,0.0,0.0,0.0,0.0,0.0,0.0,0.0,0.0,0.0,0.0,0.0,0.0,0.0,0.0,0.0,0.0,0.0,0.0,0.0,-2.0474,-2.0506,-2.0506,0.0,-2.07,-2.0807,-2.0816,-2.1176,-2.1194,-2.089,-2.0069,-1.9681,-1.9645,-1.9164,-1.896,-1.896,-1.896,-1.896,-1.896,-1.896,-1.896,-1.8972,0.0,0.0,0.0,0.0,0.0,0.0,0.0,0.0,0.0,0.0,0.0,0.0,0.0,0.0,0.0,0.0,0.0,0.0,0.0,0.0,-3.8486,-3.856,-3.856,-3.8472,-3.8397,-3.8159,-3.7857,-3.7567,-3.5322,-3.43,-3.4379,-3.3115,-3.2561,-3.2632,-3.2632,-3.2739,-3.2952,-3.2952,-3.3129,-3.3479,-3.3416,-3.3485,-3.3624,-3.3514,-3.3199,0.0,0.0,0.0,0.0,0.0,0.0,0.0,-2.9067,-2.7469,-2.5785,-2.4747,-2.3599,-2.2744,-2.3109,-2.3453,0.0,-2.4363,-2.4497,-2.4497,-2.4497,-2.4133,-2.3876,0.0,0.0,0.0,0.0,0.0,0.0,0.0,0.0,0.0,0.0,0.0,0.0,0.0,0.0,0.0,0.0,0.0,0.0,0.0,0.0,0.0,0.0,0.0,0.0,0.0,0.0,-1.9562,-1.9573,-1.9726,-1.9835,0.0,-1.9868,-1.9966,-2.0139,-2.0641,-2.0446,-1.9733,-1.9128,-1.886,-1.8848,-1.8741,-1.8694,-1.8694,-1.8694,-1.8694,-1.8694,-1.8694,-1.8694,-1.8726,0.0,0.0,0.0,0.0,0.0,0.0,0.0,0.0,0.0,0.0,0.0,0.0,0.0,0.0,0.0,0.0,0.0,0.0,0.0,0.0,-3.9343,-3.9358,-3.9271,-3.9235,-3.9235,-3.9038,-3.873,-3.8337,-3.6444,-3.5221,-3.4691,-3.332,-3.2739,-3.2846,-3.2846,-3.2966,-3.3157,-3.3262,-3.3577,-3.3991,-3.4031,-3.4167,-3.4303,-3.4182,-3.377,-3.3234,-3.2739,0.0,0.0,0.0,0.0,0.0,0.0,0.0,-2.6608,-2.5357,-2.4234,-2.3462,-2.3513,0.0,0.0,-2.4265,0.0,-2.4274,-2.3825,-2.3313,0.0,0.0,0.0,0.0,0.0,0.0,0.0,0.0,0.0,0.0,0.0,0.0,0.0,0.0,0.0,0.0,0.0,0.0,0.0,0.0,0.0,0.0,0.0,0.0,0.0,0.0,-1.8787,-1.8854,-1.8931,-1.9008,-1.9075,-1.9075,-1.9175,-1.9225,-1.9286,-1.968,-1.9365,-1.8573,-1.8285,-1.817,-1.817,-1.817,-1.817,-1.817,-1.817,-1.817,-1.8193,-1.8407,-1.8499,-1.858,0.0,0.0,0.0,0.0,0.0,0.0,0.0,0.0,0.0,0.0,0.0,0.0,0.0,0.0,0.0,0.0,0.0,0.0,0.0,0.0,0.0,-4.0137,-3.9945,-3.9824,-3.9824,-3.9666,-3.9364,-3.898,-3.7435,-3.6179,-3.5087,-3.3573,-3.2931,-3.3072,-3.3072,-3.3143,-3.3326,-3.3536,-3.3951,-3.4414,-3.465,-3.485,-3.4968,-3.4783,-3.4298,-3.3618,-3.3023,-3.2538,-3.2132,-3.1569,0.0,0.0,0.0,0.0,-2.7463,-2.6046,-2.4967,-2.4148,-2.3971,-2.3939,-2.4,-2.4114,-2.4006,0.0,-2.2909,-2.2276,0.0,0.0,0.0,0.0,0.0,0.0,0.0,0.0,0.0,0.0,0.0,0.0,0.0,0.0,0.0,0.0,0.0,0.0,0.0,0.0,0.0,0.0,0.0,0.0,-1.8511,-1.8364,-1.8275,-1.8313,-1.8414,-1.8414,-1.8414,-1.8414,-1.8617,-1.8606,-1.8435,-1.8643,-1.832,-1.7651,-1.7562,-1.7529,-1.754,-1.7618,-1.7651,-1.7662,-1.7751,-1.7784,-1.7829,-1.8222,-1.8338,-1.8444,0.0,0.0,0.0,0.0,0.0,0.0,0.0,0.0,0.0,0.0,0.0,0.0,0.0,0.0,0.0,0.0,0.0,0.0,-4.073,0.0,0.0,-4.0696,-4.0489,-4.0385,-4.0385,-4.0385,-4.0106,-3.9574,-3.7943,-3.6711,-3.592,-3.4257,-3.3382,-3.3241,-3.3241,-3.3276,-3.3326,-3.3709,-3.4088,-3.4414,-3.4735,-3.5082,-3.5359,-3.5016,-3.4505,-3.3948,-3.3409,-3.2789,-3.2146,-3.1927,-3.1582,0.0,0.0,0.0,-2.7722,-2.6484,-2.544,-2.4577,-2.4065,0.0,-2.4125,0.0,-2.3335,-2.2696,0.0,0.0,0.0,0.0,0.0,0.0,0.0,0.0,0.0,0.0,0.0,0.0,0.0,0.0,0.0,0.0,0.0,0.0,0.0,0.0,0.0,0.0,0.0,0.0,0.0,-1.8964,-1.8578,-1.8555,-1.8237,-1.8042,-1.8076,-1.8076,-1.8076,-1.8076,-1.8269,-1.8141,-1.7735,-1.7954,-1.7812,-1.7429,-1.7063,-1.692,-1.6952,-1.7291,-1.7421,-1.7493,-1.788,-1.8039,-1.805,-1.8114,-1.8135,-1.8199,0.0,0.0,0.0,0.0,0.0,0.0,0.0,0.0,0.0,0.0,0.0,0.0,0.0,0.0,0.0,-4.1423,-4.1489,-4.1456,-4.1256,-4.1156,-4.1003,-4.0799,-4.073,-4.0627,-4.0489,-4.0489,-4.0366,-4.0051,-3.8562,-3.7345,-3.6357,-3.4938,-3.3917,-3.329,-3.329,-3.329,-3.3326,-3.3605,-3.3937,-3.4269,-3.4635,-3.4868,-3.4971,-3.4835,-3.4419,-3.3894,-3.3458,-3.2945,-3.2444,-3.2169,-3.1817,-3.1323,-3.0634,0.0,0.0,0.0,-2.6192,-2.5326,-2.4013,-2.3482,-2.3138,0.0,-2.1938,-2.1254,-2.0307,0.0,0.0,0.0,0.0,0.0,0.0,0.0,0.0,0.0,0.0,0.0,0.0,0.0,0.0,0.0,0.0,0.0,0.0,0.0,0.0,0.0,0.0,0.0,-1.9107,-1.8929,-1.8773,-1.8663,-1.8579,-1.8437,-1.816,-1.829,-1.8208,-1.8008,-1.8076,-1.8002,-1.7805,-1.7678,-1.7512,-1.7287,-1.7092,-1.7039,-1.705,-1.7215,-1.7297,-1.7318,-1.7523,-1.7595,-1.7626,-1.7883,-1.7976,-1.8079,0.0,0.0,0.0,0.0,0.0,0.0,0.0,0.0,0.0,0.0,0.0,0.0,0.0,0.0,0.0,0.0,-4.2381,-4.2172,-4.1719,-4.1489,-4.1239,-4.0867,-4.0833,-4.0696,-4.0489,-4.0489,-4.0436,-4.0312,-3.9003,-3.7803,-3.6576,-3.5337,-3.4278,-3.329,-3.329,-3.329,-3.3326,-3.3501,-3.375,-3.4051,-3.4399,-3.4553,-3.4558,-3.4534,-3.423,-3.377,-3.3417,-3.3051,-3.2668,-3.2336,-3.1963,-3.1485,-3.0823,-3.0037,0.0,0.0,0.0,-2.5352,0.0,0.0,-2.2216,-2.139,-2.0639,-1.9814,0.0,0.0,0.0,0.0,0.0,0.0,0.0,0.0,0.0,0.0,0.0,0.0,0.0,0.0,0.0,0.0,0.0,0.0,0.0,0.0,0.0,0.0,0.0,0.0,-1.8521,-1.8674,-1.872,-1.8592,-1.8647,-1.855,-1.8309,-1.8559,-1.8582,-1.834,-1.834,-1.8281,-1.812,-1.7842,-1.756,-1.732,-1.7143,-1.7075,-1.7085,-1.7195,-1.7244,-1.7254,-1.7364,-1.7372,-1.738,-1.7707,-1.7836,-1.7853,0.0,0.0,0.0,0.0,0.0,0.0,0.0,0.0,0.0,0.0,0.0,0.0,-4.4209,-4.4293,-4.4053,-4.3214,-4.315,-4.278,-4.1946,-4.1703,-4.1439,-4.1102,-4.0916,0.0,-4.0489,-4.0489,-4.0436,-4.0312,-3.9003,-3.7803,-3.6576,-3.5337,-3.4278,-3.329,-3.329,-3.329,-3.3326,-3.3501,-3.3695,-3.3839,-3.4059,-3.423,-3.438,-3.4196,-3.3991,-3.377,-3.3417,-3.3051,-3.2668,-3.2453,-3.2046,-3.1572,-3.1323,-3.0381,-2.9172,0.0,0.0,0.0,0.0,-2.272,0.0,-2.108,-1.9844,0.0,0.0,0.0,0.0,0.0,0.0,0.0,0.0,0.0,0.0,0.0,0.0,0.0,0.0,0.0,0.0,0.0,0.0,0.0,0.0,0.0,0.0,0.0,0.0,0.0,-1.8012,-1.8031,-1.8148,-1.8332,-1.7954,-1.7924,-1.8313,-1.8737,-1.9066,-1.9219,-1.9219,-1.9004,-1.8568,-1.8549,-1.8226,-1.7634,-1.7015,-1.6728,-1.6768,-1.721,-1.7386,-1.7425,-1.7827,-1.7828,-1.7682,-1.7702,-1.7619,-1.7545,0.0,0.0,0.0,0.0,0.0,0.0,0.0,0.0,0.0,0.0,0.0,0.0,0.0,-4.4655,-4.4397,-4.3573,-4.3025,-4.2494,-4.2045,-4.1882,-4.162,-4.1239,-4.1086,-4.0882,-4.0696,-4.0558,-4.047,-4.0436,-3.9617,-3.8552,-3.7164,-3.6195,-3.5016,-3.3612,-3.3382,-3.329,-3.329,-3.3396,-3.3431,-3.3486,-3.3695,-3.373,-3.3695,-3.3764,-3.366,0.0,0.0,0.0,0.0,0.0,0.0,0.0,0.0,0.0,0.0,0.0,0.0,0.0,0.0,0.0,0.0,-2.0086,-1.8975,-1.7861,0.0,0.0,0.0,0.0,0.0,0.0,0.0,0.0,0.0,0.0,0.0,0.0,0.0,0.0,0.0,0.0,0.0,0.0,0.0,0.0,0.0,0.0,0.0,0.0,-1.7172,-1.7283,-1.7489,-1.7729,-1.783,-1.8038,-1.8352,-1.8732,-1.8982,-1.9046,-1.8665,-1.8292,-1.8031,-1.7924,-1.7699,-1.7354,-1.7004,-1.7006,-1.7349,-1.7528,-1.7596,-1.7615,-1.776,-1.7725,-1.7564,-1.7564,-1.7461,-1.7314,0.0,0.0,0.0,0.0,0.0,0.0,0.0,0.0,0.0,-4.5467,0.0,0.0,0.0,0.0,-4.5111,-4.4156,-4.3089,-4.2381,-4.2206,-4.2029,-4.1817,-4.1423,-4.1187,-4.1,-4.0799,-4.0593,-4.0489,-4.0489,-3.9773,-3.8812,-3.7541,-3.661,-3.5381,-3.3991,-3.3612,-3.3417,-3.329,-3.329,-3.329,-3.3326,-3.3466,-3.3431,-3.3326,-3.3466,0.0,0.0,0.0,0.0,0.0,0.0,0.0,0.0,0.0,0.0,0.0,0.0,0.0,0.0,-2.3384,0.0,0.0,0.0,0.0,-1.761,0.0,0.0,0.0,0.0,0.0,0.0,0.0,0.0,0.0,0.0,0.0,0.0,0.0,0.0,0.0,0.0,0.0,0.0,0.0,0.0,0.0,0.0,0.0,0.0,-1.6154,-1.6345,-1.6624,-1.696,-1.7399,-1.7814,-1.8145,-1.8454,-1.867,-1.8823,-1.8435,-1.8067,-1.7779,-1.7606,-1.7324,-1.6977,-1.6745,-1.6934,-1.7442,-1.7442,-1.7442,-1.7442,-1.7442,-1.7348,-1.721,-1.721,-1.7038,-1.6821,0.0,0.0,0.0,0.0,0.0,0.0,0.0,0.0,-4.6083,-4.6795,0.0,0.0,0.0,0.0,0.0,-4.4885,-4.346,-4.2539,-4.2413,-4.2206,-4.1948,-4.1621,-4.1288,-4.1,-4.0799,-4.0627,-4.0489,-4.0489,-3.9421,-3.8497,-3.7681,-3.6495,-3.5385,-3.4414,-3.3991,-3.3612,-3.3326,-3.329,-3.329,-3.329,0.0,-3.329,-3.329,0.0,0.0,0.0,-3.3319,-3.3185,0.0,-3.2775,0.0,0.0,0.0,0.0,0.0,0.0,0.0,0.0,0.0,0.0,0.0,0.0,0.0,0.0,0.0,0.0,0.0,0.0,0.0,0.0,0.0,0.0,0.0,0.0,0.0,0.0,0.0,0.0,0.0,0.0,0.0,0.0,0.0,0.0,0.0,0.0,0.0,-1.509,-1.509,-1.5276,-1.5567,-1.6046,-1.664,-1.7164,-1.7659,-1.7844,-1.8167,-1.8616,-1.8656,-1.8413,-1.7946,-1.7596,-1.7142,-1.6546,-1.6209,-1.6351,-1.683,-1.6874,-1.6874,-1.6874,-1.6874,-1.6751,-1.6568,-1.6568,-1.6368,-1.6061,0.0,0.0,0.0,0.0,0.0,0.0,-4.6552,-4.6585,-4.6649,0.0,0.0,0.0,-4.6876,-4.5969,-4.4998,-4.4091,-4.3136,-4.2539,-4.2413,-4.2206,-4.2029,-4.1833,-4.1439,-4.1171,-4.1034,-4.0814,-4.0662,-4.0489,-3.9593,-3.8784,-3.8095,-3.6847,-3.5722,-3.4735,-3.423,-3.3833,-3.3501,-3.3361,0.0,-3.329,-3.329,-3.329,0.0,0.0,0.0,0.0,0.0,-3.3814,-3.3573,0.0,-3.2668,-3.2286,0.0,0.0,0.0,0.0,0.0,0.0,-2.4353,0.0,0.0,0.0,0.0,0.0,0.0,0.0,0.0,0.0,0.0,0.0,0.0,0.0,0.0,0.0,0.0,0.0,0.0,0.0,0.0,0.0,0.0,0.0,0.0,0.0,0.0,0.0,-1.4566,-1.465,-1.4783,-1.4859,-1.5033,-1.5382,-1.5692,-1.6072,-1.6556,-1.673,-1.6821,-1.6805,-1.7115,-1.7105,-1.6822,-1.6645,-1.6259,-1.5733,-1.5467,-1.5307,-1.5275,-1.6026,-1.6307,-1.6307,-1.6307,-1.6193,-1.6009,-1.6009,-1.5762,-1.5453,0.0,0.0,0.0,0.0,0.0,-4.6876,-4.6876,-4.6876,-4.6876,0.0,0.0,0.0,-4.6455,-4.5451,-4.4496,-4.3767,-4.3023,-4.2571,-4.2476,-4.2318,-4.2158,-4.198,-4.1621,-4.1339,-4.1102,-4.0916,-4.0557,-4.0074,-3.9281,-3.8573,-3.7962,-3.6821,-3.5934,-3.5216,-3.4606,-3.4113,-3.3799,0.0,0.0,0.0,-3.329,0.0,0.0,-3.3964,-3.4203,0.0,0.0,0.0,-3.3932,-3.3232,-3.2739,0.0,0.0,0.0,0.0,0.0,0.0,0.0,-2.4837,-2.3242,0.0,0.0,0.0,0.0,-1.8576,-1.774,0.0,0.0,0.0,0.0,0.0,0.0,0.0,0.0,0.0,0.0,0.0,0.0,0.0,0.0,0.0,0.0,0.0,0.0,0.0,0.0,-1.4279,-1.4328,-1.4454,-1.4524,-1.465,-1.4783,-1.4985,-1.5284,-1.5695,-1.5797,-1.5891,-1.5951,-1.6188,-1.63,-1.6259,-1.595,-1.5615,-1.5295,-1.4796,-1.4491,-1.4336,-1.4804,-1.5213,-1.5453,-1.5453,-1.5382,-1.5303,-1.5196,-1.4982,-1.4732,0.0,0.0,-4.5111,-4.652,-4.6763,-4.6795,-4.6911,-4.6876,-4.6876,0.0,-4.6876,-4.6585,-4.5775,-4.516,-4.4464,-4.367,-4.2975,-4.2602,-4.2602,-4.2476,-4.2318,-4.2109,-4.1785,-4.1488,-4.1117,-4.0916,-4.0405,-3.949,-3.8846,-3.8169,-3.7477,-3.6595,-3.5975,-3.5608,-3.4909,0.0,-3.4025,0.0,0.0,-3.329,-3.329,-3.329,0.0,0.0,-3.4203,-3.4203,-3.4203,-3.4203,-3.4068,-3.3268,-3.2739,0.0,0.0,0.0,0.0,0.0,-2.8116,0.0,-2.5216,-2.3618,0.0,0.0,0.0,0.0,-1.9539,-1.8536,-1.77,0.0,0.0,0.0,0.0,0.0,0.0,0.0,0.0,0.0,0.0,0.0,0.0,0.0,0.0,0.0,0.0,0.0,-1.4088,-1.4088,-1.4088,-1.4088,-1.4088,-1.4286,-1.4356,-1.4356,-1.4524,-1.4741,-1.5006,-1.5006,-1.5208,-1.5567,-1.5567,-1.5699,-1.5948,-1.5394,-1.5109,-1.5042,-1.4243,-1.3883,-1.3832,-1.355,-1.3855,-1.4461,-1.4461,-1.4461,-1.4461,-1.4274,-1.4129,-1.3985,0.0,0.0,-4.4366,-4.5775,-4.6018,-4.6212,-4.6795,-4.6876,-4.6876,-4.6876,-4.6876,-4.6407,-4.5127,-4.4868,-4.4269,-4.2926,-4.2683,-4.2602,-4.2602,-4.2476,-4.2318,-4.2109,-4.1931,-4.1603,-4.1117,-4.1068,-4.0523,-3.949,-3.8846,-3.8169,-3.7492,-3.6515,-3.5816,-3.5432,-3.4739,0.0,0.0,0.0,0.0,-3.329,-3.329,0.0,-3.3361,-3.3964,-3.4203,-3.4203,-3.4203,-3.4203,-3.4068,-3.3268,-3.2846,-3.2596,0.0,0.0,0.0,0.0,0.0,0.0,0.0,0.0,0.0,0.0,0.0,0.0,-2.0031,-1.9076,-1.8247,0.0,0.0,0.0,0.0,0.0,0.0,0.0,0.0,0.0,0.0,0.0,0.0,0.0,0.0,0.0,0.0,0.0,-1.4088,-1.4088,-1.4088,-1.4088,-1.4088,-1.413,-1.4166,-1.4166,-1.4208,-1.425,-1.4292,-1.4447,-1.4608,-1.4741,-1.4817,-1.4901,-1.4985,-1.4837,-1.4674,-1.446,-1.4005,-1.3663,-1.341,-1.3137,-1.3302,-1.371,-1.371,-1.371,-1.371,-1.3674,-1.3521,-1.3375,-4.3573,-4.3719,-4.4043,-4.5111,-4.5305,-4.5532,-4.6228,-4.6342,-4.6471,-4.6828,-4.6876,-4.6342,-4.4933,-4.4787,-4.4204,-4.2732,-4.2602,-4.2602,-4.2602,-4.2539,-4.2365,-4.2109,-4.2029,-4.1752,-4.1221,-4.0807,-4.0111,-3.9148,-3.8371,-3.7629,-3.6842,-3.6347,-3.5816,-3.5285,-3.4739,-3.4249,0.0,0.0,-3.329,-3.329,-3.329,0.0,-3.3361,-3.3964,-3.4203,-3.4203,-3.4203,-3.4006,-3.3697,-3.3304,-3.3037,0.0,0.0,-3.225,-3.1686,0.0,-2.9218,-2.7692,0.0,0.0,0.0,-2.274,0.0,0.0,0.0,-1.9943,-1.9116,0.0,0.0,0.0,0.0,0.0,0.0,0.0,0.0,0.0,0.0,0.0,0.0,0.0,0.0,0.0,0.0,0.0,-1.387,-1.3743,-1.3828,-1.3913,-1.3913,-1.4046,-1.4088,-1.4088,-1.4088,-1.4088,-1.4088,-1.4201,-1.4321,-1.444,-1.4524,-1.4608,-1.4692,-1.4608,-1.4483,-1.4324,-1.3905,-1.3606,-1.3435,-1.3016,-1.2981,-1.3154,-1.3184,-1.32,-1.3193,-1.3083,-1.2973,-1.29,-4.3363,-4.3476,-4.3735,-4.4464,-4.4593,-4.482,-4.55,-4.5613,-4.5872,-4.6585,-4.6568,-4.605,-4.4917,-4.4658,-4.4059,-4.2716,-4.2602,-4.2602,-4.2602,-4.2602,-4.2476,-4.2174,-4.2109,-4.1883,-4.1357,-4.0515,-3.9679,-3.8801,-3.7927,-3.7043,-3.6196,-3.6101,-3.572,-3.5103,-3.4643,-3.4187,0.0,0.0,0.0,-3.329,0.0,-3.329,-3.3333,-3.3838,-3.4034,-3.4034,-3.4034,-3.3697,-3.329,-3.329,0.0,-3.2952,-3.2775,-3.2503,0.0,0.0,0.0,0.0,0.0,0.0,0.0,0.0,0.0,-2.1987,0.0,0.0,0.0,-1.9569,0.0,0.0,0.0,0.0,0.0,0.0,0.0,0.0,0.0,0.0,0.0,0.0,0.0,0.0,0.0,0.0,-1.361,-1.3434,-1.361,-1.3695,-1.3695,-1.3955,-1.4088,-1.4088,-1.4088,-1.4088,-1.4088,-1.4088,-1.4166,-1.4356,-1.4356,-1.4447,-1.4573,-1.4398,-1.4356,-1.43,-1.3809,-1.3559,-1.3519,-1.302,-1.2767,-1.2681,-1.2759,-1.2783,-1.2753,-1.2599,-1.2526,-1.2452,-4.2699,-4.2716,-4.2958,-4.3719,-4.3832,-4.4075,-4.4804,-4.4901,-4.516,-4.584,-4.5403,-4.4965,-4.4804,0.0,0.0,0.0,0.0,0.0,-4.2602,0.0,-4.2539,-4.2381,-4.2206,-4.1948,-4.1588,-4.0581,-3.9679,-3.8801,-3.7927,-3.7043,-3.6196,-3.5705,-3.5285,-3.4887,-3.4201,0.0,0.0,0.0,-3.329,0.0,-3.329,-3.329,0.0,-3.3361,-3.3389,-3.3389,-3.3389,-3.3347,-3.329,0.0,-3.3157,-3.2952,0.0,-3.2561,-3.2128,0.0,0.0,0.0,0.0,0.0,0.0,0.0,-2.3482,0.0,0.0,0.0,-2.0895,-2.0294,0.0,0.0,0.0,0.0,0.0,0.0,0.0,0.0,0.0,0.0,0.0,0.0,0.0,0.0,0.0,0.0,0.0,-1.3434,-1.361,-1.3695,-1.3695,-1.3955,-1.4088,-1.4088,-1.4088,-1.4088,-1.4088,-1.4088,-1.413,-1.4124,-1.4124,-1.4166,-1.4173,-1.4124,-1.4124,-1.411,-1.3774,-1.3518,-1.3328,-1.3008,-1.2609,-1.2197,-1.2313,-1.2378,-1.2378,-1.2342,-1.2231,-1.2077,-4.2602,-4.2602,-4.2699,-4.3007,-4.3055,-4.3298,-4.4059,-4.4512,-4.503,-4.571,-4.5548,-4.5386,0.0,0.0,0.0,0.0,0.0,-4.2602,0.0,0.0,-4.2539,-4.2413,-4.2222,0.0,-4.115,-4.0164,-3.9217,-3.8324,-3.7388,-3.6565,-3.5911,-3.5479,-3.4971,-3.4433,-3.3977,0.0,-3.3431,0.0,-3.329,0.0,0.0,0.0,0.0,-3.329,-3.329,-3.329,-3.329,-3.329,-3.329,0.0,-3.3241,0.0,0.0,0.0,0.0,0.0,0.0,0.0,0.0,0.0,0.0,0.0,0.0,0.0,-2.2927,0.0,-2.1596,0.0,0.0,0.0,0.0,0.0,0.0,0.0,0.0,0.0,0.0,0.0,0.0,0.0,0.0,0.0,0.0,0.0,0.0,0.0,0.0,-1.3179,-1.3355,-1.3695,-1.3955,-1.4088,-1.4088,-1.4088,-1.4088,-1.4088,-1.4088,-1.4088,-1.4088,-1.4088,-1.4088,-1.4088,-1.3997,-1.3857,-1.3613,-1.3387,-1.3159,-1.2546,-1.2205,-1.195,-1.1718,-1.1764,-1.1929,-1.1818,-1.1706,-1.1632,-4.2602,-4.2602,-4.2602,-4.2602,-4.2602,-4.278,-4.3314,-4.3864,-4.4528,-4.5403,0.0,0.0,-4.5759,-4.5192,0.0,0.0,-4.3346,-4.2894,0.0,0.0,-4.2571,0.0,0.0,0.0,0.0,-3.9913,-3.8905,-3.7951,-3.6909,-3.6116,-3.5559,-3.5169,-3.4654,-3.4025,0.0,-3.3521,-3.329,0.0,-3.3276,-3.3241,-3.3241,-3.3157,-3.3122,-3.3206,-3.3157,-3.3122,-3.3206,-3.3241,-3.3241,-3.3276,-3.329,0.0,-3.2616,0.0,0.0,0.0,0.0,0.0,-2.7514,0.0,0.0,0.0,0.0,0.0,0.0,0.0,0.0,0.0,0.0,0.0,0.0,0.0,0.0,0.0,0.0,0.0,0.0,0.0,0.0,0.0,0.0,0.0,0.0,0.0,0.0,0.0,-1.2283,0.0,-1.279,-1.3264,-1.361,-1.3828,-1.387,-1.3913,-1.3906,-1.3913,-1.387,-1.3828,-1.3828,-1.3786,-1.3743,-1.3743,-1.361,-1.3392,-1.3222,-1.3009,-1.2735,-1.2031,-1.1659,-1.1502,-1.1029,-1.0982,-1.1164,-1.1206,-1.1172,-1.1037,-4.2634,-4.2602,0.0,0.0,0.0,-4.2619,-4.2635,-4.2651,-4.3185,0.0,0.0,0.0,0.0,0.0,0.0,0.0,0.0,-4.367,-4.367,0.0,-4.2602,0.0,0.0,-4.198,0.0,0.0,-3.8984,-3.7809,-3.6721,-3.5879,-3.5201,-3.4668,-3.4196,-3.3805,-3.3437,-3.3326,-3.329,-3.329,-3.3192,-3.3023,-3.3023,-3.2881,-3.2739,0.0,-3.2881,-3.2739,-3.2952,0.0,0.0,-3.3241,-3.329,0.0,0.0,0.0,0.0,0.0,0.0,0.0,0.0,0.0,0.0,-2.6289,0.0,0.0,0.0,0.0,-2.3038,0.0,0.0,0.0,0.0,0.0,0.0,0.0,0.0,0.0,0.0,0.0,0.0,0.0,0.0,0.0,0.0,0.0,0.0,-1.1757,-1.1886,0.0,-1.2015,-1.2705,-1.3137,-1.3137,-1.3313,-1.3428,-1.3408,-1.3428,-1.3313,-1.3137,-1.3137,-1.3009,-1.2747,-1.2747,-1.2747,-1.2705,-1.2534,-1.2277,-1.2015,-1.1531,-1.1054,-1.0601,-1.0344,-1.0073,-0.9933,-1.0567,-1.0565,-1.0218,0.0,-4.2602,0.0,0.0,0.0,-4.2602,-4.2602,-4.2602,0.0,0.0,0.0,0.0,0.0,-4.5888,-4.5451,0.0,0.0,-4.3719,-4.3719,-4.3007,0.0,0.0,0.0,-4.1661,0.0,0.0,0.0,0.0,0.0,-3.5397,-3.485,-3.4249,-3.3888,-3.366,0.0,-3.3241,0.0,0.0,0.0,0.0,0.0,-3.2668,-3.2525,0.0,0.0,-3.2704,-3.2775,-3.281,0.0,-3.2895,-3.2632,-3.2222,-3.1784,-3.1385,-3.0802,-2.9423,-2.8979,0.0,0.0,0.0,-2.7087,-2.6645,0.0,0.0,0.0,0.0,0.0,0.0,0.0,0.0,0.0,0.0,0.0,0.0,0.0,0.0,0.0,0.0,0.0,0.0,0.0,0.0,0.0,0.0,0.0,-1.1068,-1.1198,-1.1327,0.0,-1.1886,-1.2229,-1.2363,-1.2619,-1.2747,-1.2741,-1.2875,-1.2839,-1.2619,-1.2619,-1.2491,-1.2229,-1.2229,-1.2143,-1.2015,-1.1628,-1.1327,-1.1025,-1.0419,-1.0077,-0.9933,-0.9675,-0.9459,-0.9252,-0.9771,-0.9795,-0.9552,-4.2602,0.0,0.0,0.0,0.0,0.0,0.0,0.0,0.0,0.0,-4.4787,0.0,-4.6662,0.0,-4.5947,0.0,-4.4556,-4.3783,-4.3525,-4.2784,0.0,-4.2109,-4.1834,0.0,0.0,0.0,0.0,0.0,0.0,-3.4924,-3.438,-3.3922,-3.3646,-3.3501,0.0,-3.3108,-3.2988,0.0,-3.2775,0.0,0.0,-3.2286,0.0,0.0,-3.2395,-3.2538,0.0,-3.2596,-3.2596,-3.2668,-3.2303,-3.173,-3.1378,-3.0877,-3.0159,-2.9013,-2.8672,-2.8492,-2.7674,-2.7369,0.0,-2.6714,-2.6302,0.0,-2.5229,0.0,0.0,0.0,0.0,0.0,0.0,0.0,0.0,0.0,0.0,0.0,0.0,-1.6353,0.0,0.0,0.0,0.0,0.0,0.0,-1.1843,-1.0809,-1.0679,-1.0641,0.0,0.0,-1.1241,-1.137,-1.1714,-1.1886,-1.188,-1.2095,-1.2063,-1.178,-1.1763,-1.1585,-1.1284,-1.1284,-1.1198,-1.1068,-1.0679,-1.0381,-1.0207,-0.9602,-0.9345,-0.9345,-0.913,-0.8965,-0.8828,-0.9169,-0.9136,-0.891,0.0,0.0,0.0,0.0,-4.2539,0.0,0.0,0.0,-4.3104,0.0,-4.4706,-4.5157,-4.6376,-4.6486,-4.6159,-4.5293,-4.4555,0.0,-4.318,-4.2346,0.0,0.0,-4.1357,-4.0382,-3.8539,0.0,0.0,0.0,0.0,0.0,-3.377,-3.366,-3.3466,-3.329,-3.3108,0.0,-3.2988,-3.2775,-3.2561,-3.2309,-3.2023,-3.178,-3.1609,-3.1609,0.0,-3.2169,-3.2322,-3.2345,-3.2381,-3.2569,-3.2191,-3.1585,-3.0849,-3.0199,-2.9517,-2.8404,-2.8079,-2.7947,-2.7436,-2.7268,-2.71,-2.653,0.0,0.0,0.0,0.0,-2.4309,0.0,0.0,0.0,0.0,0.0,0.0,0.0,0.0,0.0,0.0,0.0,0.0,0.0,0.0,0.0,0.0,-1.2577,-1.1714,-1.1025,-1.0381,-0.9994,0.0,0.0,0.0,-1.025,-1.0684,-1.0933,-1.0918,-1.1144,-1.0997,-1.0551,-1.0564,-1.0337,-0.9951,-0.9951,-0.9951,-0.9951,-0.9689,-0.9559,-0.9515,-0.9087,-0.8867,-0.8867,-0.8656,-0.8612,-0.8632,-0.882,-0.8639,-0.8325,-4.227,-4.1851,-4.1588,0.0,-4.1866,-4.2109,0.0,0.0,0.0,0.0,-4.3619,-4.3923,-4.4821,-4.4765,-4.4599,-4.4355,-4.3584,0.0,0.0,0.0,0.0,-4.0786,-4.0428,-3.9684,-3.8454,-3.756,0.0,-3.5341,0.0,0.0,-3.364,-3.3466,-3.3361,-3.329,0.0,0.0,-3.2775,-3.2444,-3.2132,-3.1817,-3.1706,-3.1646,0.0,0.0,-3.1683,-3.1743,-3.178,-3.1817,-3.1736,-3.1352,-3.0801,-3.021,-2.9631,-2.9006,-2.8463,-2.8007,-2.7756,-2.757,-2.7175,-2.6871,-2.653,-2.6141,-2.5781,-2.5453,0.0,0.0,0.0,0.0,0.0,0.0,0.0,0.0,0.0,0.0,0.0,0.0,0.0,0.0,0.0,0.0,0.0,0.0,0.0,-1.2747,-1.1843,-1.0766,-1.025,0.0,0.0,0.0,0.0,-0.9563,-0.982,-0.9946,-0.9941,-1.0207,-1.0168,-0.9873,-0.9864,-0.9733,-0.9476,-0.9476,-0.9476,-0.9476,-0.9213,-0.9087,-0.9043,-0.8784,-0.8696,-0.8656,-0.8612,-0.8612,-0.8588,-0.8486,-0.8387,-0.8287,-4.1785,0.0,0.0,-4.0684,0.0,0.0,-4.1899,0.0,0.0,-4.2986,-4.3066,0.0,-4.3749,-4.3655,-4.334,-4.2852,-4.2303,0.0,-4.1218,0.0,0.0,-3.9778,-3.9208,-3.8389,-3.7382,-3.6432,0.0,-3.4612,0.0,0.0,-3.3466,-3.3361,-3.329,-3.329,0.0,-3.281,-3.2668,-3.2241,-3.1853,-3.1485,-3.1485,0.0,0.0,-3.1336,-3.1336,-3.1336,-3.1336,-3.1447,-3.1516,-3.0903,-3.0304,-2.9717,-2.9165,-2.8512,-2.7934,-2.7723,-2.7477,-2.7175,-2.6769,-2.6427,-2.606,-2.5641,-2.5347,-2.5099,-2.485,-2.4478,-2.4116,0.0,0.0,0.0,0.0,0.0,0.0,0.0,0.0,0.0,0.0,0.0,0.0,0.0,0.0,0.0,0.0,0.0,-1.2015,0.0,0.0,0.0,0.0,0.0,0.0,-0.913,-0.9345,-0.9432,-0.9301,-0.9563,-0.9559,-0.9292,-0.9297,-0.917,-0.9003,-0.9003,-0.9003,-0.9003,-0.8828,-0.8784,-0.874,-0.8652,-0.8612,-0.8612,-0.8612,-0.8612,-0.86,-0.8494,-0.841,-0.8398,0.0,0.0,0.0,0.0,0.0,0.0,0.0,-4.1653,0.0,-4.2477,0.0,-4.2575,-4.2716,-4.2565,-4.2017,-4.1097,0.0,-4.0206,-3.9403,-3.9089,-3.8792,-3.8458,-3.7762,-3.6874,-3.5827,-3.5281,0.0,0.0,0.0,0.0,-3.329,-3.329,-3.329,-3.3241,0.0,0.0,0.0,-3.2059,-3.1619,0.0,-3.1272,-3.1161,-3.0986,-3.0986,-3.0986,-3.0949,-3.0949,-3.1187,-3.1429,-3.0738,-3.0131,-2.96,-2.897,-2.8265,-2.7623,-2.7423,-2.7108,-2.6735,-2.622,-2.5921,-2.5618,-2.5052,-2.4909,-2.4767,-2.449,-2.4236,-2.397,-2.3593,-2.3075,0.0,0.0,0.0,0.0,0.0,0.0,0.0,0.0,0.0,0.0,0.0,0.0,0.0,0.0,0.0,0.0,0.0,0.0,0.0,0.0,0.0,0.0,0.0,-0.9174,0.0,-0.8911,0.0,-0.9126,-0.8851,-0.8863,-0.8784,-0.8612,-0.8612,-0.8612,-0.8612,-0.8612,-0.8612,-0.8612,-0.8612,-0.8612,-0.8612,-0.8612,-0.8568,-0.8564,-0.8564,-0.8564,-0.8564,0.0,0.0,0.0,0.0,0.0,-3.9169,-3.9677,-4.032,-4.0727,-4.0682,-4.0662,-4.057,-4.0254,-4.0039,-3.9799,-3.9433,-3.8775,0.0,0.0,0.0,0.0,-3.6592,-3.6273,-3.5683,-3.4761,-3.4497,-3.4037,0.0,0.0,0.0,-3.329,-3.329,-3.3206,0.0,0.0,0.0,-3.178,-3.1669,0.0,-3.1061,-3.1061,-3.1024,-3.0986,-3.0986,-3.0911,-3.0736,-3.0736,-3.0911,-3.0941,-2.9879,-2.9375,-2.896,-2.7918,-2.7278,-2.685,-2.6667,-2.6371,-2.6002,-2.5558,-2.523,-2.4933,-2.467,-2.4334,-2.408,-2.4007,-2.3714,-2.3372,-2.315,-2.2777,-2.2402,-2.2176,0.0,0.0,0.0,0.0,0.0,0.0,0.0,0.0,0.0,0.0,0.0,0.0,0.0,0.0,0.0,0.0,0.0,0.0,0.0,0.0,0.0,0.0,0.0,0.0,0.0,0.0,-0.8652,-0.8652,-0.8656,-0.8612,-0.8612,-0.8612,-0.8612,-0.8612,-0.8612,-0.8612,-0.8612,-0.8612,-0.8612,-0.8612,-0.8472,-0.8288,-0.8288,-0.8288,-0.8292,0.0,0.0,0.0,0.0,0.0,0.0,0.0,-3.8987,0.0,-3.9692,-3.9642,-3.9307,-3.865,-3.8375,-3.8061,-3.7542,-3.7055,-3.6678,-3.6526,-3.6223,-3.5906,-3.5644,-3.5222,0.0,-3.4369,-3.3951,-3.3585,-3.329,0.0,0.0,0.0,0.0,0.0,-3.2988,0.0,-3.2132,0.0,0.0,0.0,-3.0986,-3.0874,-3.0849,-3.0798,-3.0609,-3.0457,-3.0381,-3.0241,-3.01,-2.9879,-2.9189,-2.8869,-2.8472,-2.7228,-2.6577,-2.6245,-2.6047,-2.5734,-2.5347,-2.4969,-2.4694,-2.4418,-2.4116,-2.3897,-2.3714,-2.3593,-2.3372,-2.3075,-2.2889,-2.2515,-2.2138,-2.1845,-2.1454,0.0,0.0,0.0,0.0,0.0,0.0,0.0,0.0,0.0,0.0,0.0,0.0,0.0,0.0,0.0,0.0,0.0,0.0,0.0,0.0,0.0,0.0,0.0,0.0,0.0,-0.8748,-0.8656,-0.8612,-0.8612,-0.8612,-0.8612,-0.8612,-0.8612,-0.8612,-0.8612,-0.8612,-0.852,-0.8384,-0.8384,-0.8157,-0.7845,-0.7845,-0.7845,-0.7889,0.0,-3.7661,0.0,0.0,-3.7234,0.0,-3.7347,-3.7408,-3.7825,-3.8699,-3.8662,-3.8223,-3.7274,-3.7019,-3.6649,-3.5905,-3.5552,-3.5336,-3.5153,-3.5012,-3.4905,-3.4745,-3.4223,-3.3956,-3.3956,-3.3458,-3.3171,0.0,0.0,0.0,0.0,0.0,0.0,0.0,0.0,0.0,0.0,0.0,-3.1123,-3.0911,-3.066,-3.0533,-3.0457,-3.0113,-2.987,-2.9754,-2.9523,-2.9097,-2.8562,-2.8273,-2.8118,-2.7841,-2.6554,-2.5943,-2.5606,-2.5359,-2.5064,-2.4707,-2.437,-2.4189,-2.4007,-2.3677,-2.3556,-2.3482,-2.3298,-2.3075,-2.2852,-2.2628,-2.2252,-2.1845,-2.1502,-2.1069,0.0,0.0,0.0,0.0,0.0,0.0,0.0,0.0,0.0,0.0,0.0,0.0,0.0,0.0,0.0,0.0,0.0,0.0,0.0,0.0,0.0,0.0,-0.9345,0.0,-0.8959,0.0,-0.87,-0.8612,-0.8612,-0.8612,-0.8612,-0.8612,-0.8612,-0.8612,-0.8612,-0.852,-0.834,-0.8113,-0.8025,-0.7669,-0.7268,-0.7224,-0.718,-0.7272,0.0,0.0,0.0,0.0,0.0,0.0,0.0,-3.5321,-3.569,-3.7024,-3.7207,-3.6792,-3.5787,-3.5693,-3.5467,-3.5041,-3.4421,-3.4041,-3.3886,-3.3489,-3.324,-3.3204,-3.3149,-3.3107,-3.3107,-3.2874,-3.2775,0.0,0.0,0.0,0.0,0.0,0.0,0.0,0.0,0.0,0.0,-3.1099,-3.0911,-3.0698,-3.0305,-3.0011,-2.9793,-2.9535,-2.9145,-2.8661,-2.8621,-2.8047,-2.7183,-2.67,-2.6673,-2.6671,-2.5705,-2.5111,-2.4755,-2.4431,-2.4189,-2.397,-2.374,-2.3666,-2.3641,-2.3593,-2.3446,-2.3261,-2.3075,-2.2852,-2.2628,-2.2252,-2.1845,-2.1512,-2.1282,-2.0731,-2.0216,0.0,0.0,0.0,0.0,0.0,0.0,0.0,0.0,0.0,0.0,0.0,0.0,0.0,0.0,0.0,0.0,0.0,0.0,-1.0652,0.0,-1.0283,-0.9563,-0.9345,0.0,-0.8915,-0.8696,-0.8612,-0.8612,-0.8612,-0.8612,-0.8612,-0.8612,-0.8612,-0.8568,-0.8336,-0.8069,-0.7808,-0.7363,-0.6918,-0.6476,-0.6302,-0.6216,-0.6216,0.0,0.0,0.0,0.0,0.0,0.0,0.0,-3.478,-3.4799,-3.5006,-3.5339,-3.5264,-3.4477,-3.4421,-3.4181,-3.3623,-3.3309,-3.3171,-3.3113,-3.2913,-3.281,-3.281,-3.281,-3.281,-3.281,-3.2739,-3.2704,0.0,0.0,0.0,0.0,0.0,0.0,0.0,0.0,-3.1286,-3.1099,-3.0647,-3.033,-3.0037,-2.9548,-2.9184,-2.8924,-2.8422,-2.8115,-2.7874,-2.7742,-2.7107,-2.6201,-2.5877,-2.5791,-2.5706,-2.4907,-2.4467,-2.4166,-2.3922,-2.3787,-2.3677,-2.3482,-2.3335,-2.3224,-2.3075,-2.2927,-2.274,-2.2665,-2.2402,-2.2101,-2.1959,-2.1492,-2.1031,-2.0731,-2.0216,-1.9696,0.0,0.0,0.0,0.0,0.0,0.0,0.0,0.0,0.0,0.0,0.0,0.0,0.0,0.0,0.0,0.0,0.0,0.0,-1.1329,0.0,-1.0674,-1.0283,-0.9883,-0.9464,-0.913,-0.8915,-0.8696,-0.8612,-0.8612,-0.852,-0.838,-0.838,-0.8296,-0.8164,-0.7893,-0.7536,-0.7146,-0.683,-0.6299,-0.5769,-0.5727,-0.5683,-0.5683,-3.4397,0.0,-3.4224,0.0,-3.4002,-3.3941,-3.3904,-3.383,-3.3641,-3.3156,-3.3457,-3.3628,-3.3422,-3.3417,-3.3187,-3.2674,-3.2596,-3.2596,-3.2574,-3.2596,-3.2596,-3.2596,-3.2596,0.0,-3.2538,-3.2453,-3.2345,-3.2309,-3.2309,0.0,0.0,0.0,0.0,0.0,-3.1061,-3.0748,-3.0583,-2.9985,-2.9574,-2.9277,-2.8673,-2.8275,-2.7983,-2.7429,-2.7062,-2.6899,-2.6734,-2.6021,-2.5122,-2.4965,-2.4711,-2.4403,-2.4036,-2.3787,-2.3593,-2.3372,-2.3298,-2.3224,-2.3075,-2.2927,-2.2777,-2.2665,-2.2478,-2.2289,-2.2252,-2.1921,-2.1578,-2.1377,-2.0944,-2.0479,-2.0098,-1.9627,-1.9192,0.0,0.0,0.0,0.0,0.0,0.0,0.0,-1.8758,-1.8396,-1.7645,0.0,0.0,0.0,0.0,0.0,0.0,0.0,0.0,0.0,0.0,0.0,0.0,-1.026,-0.9844,-0.9478,-0.9068,-0.8823,-0.8696,-0.8564,-0.8292,-0.7977,-0.7977,-0.7848,-0.754,-0.7268,-0.6918,-0.6435,-0.6121,-0.5677,-0.5193,-0.5104,-0.506,-0.506,-3.2717,-3.2731,-3.2731,-3.2717,-3.2552,-3.2372,-3.2268,-3.205,-3.188,-3.1646,-3.1622,-3.1904,-3.2646,-3.2704,-3.2632,-3.2417,-3.2417,-3.2359,-3.2205,-3.2322,-3.2417,0.0,0.0,-3.2322,-3.2218,-3.1827,-3.1519,-3.131,0.0,0.0,-3.131,0.0,-3.1211,-3.0986,-3.0596,-3.0152,-2.9665,-2.9067,-2.8712,-2.8462,-2.7794,-2.7267,-2.6887,-2.661,-2.6113,-2.5527,-2.5527,-2.477,-2.3817,-2.3828,-2.319,-2.2563,-2.3113,-2.3187,-2.2964,-2.2777,-2.2553,-2.2402,-2.2402,-2.2402,-2.2402,-2.2402,-2.2252,-2.2063,-2.1835,-2.1502,-2.1002,-2.0362,-2.0059,-1.9784,-1.9381,-1.8962,-1.8652,-1.8442,0.0,0.0,0.0,0.0,0.0,0.0,-1.9027,-1.8673,-1.7419,0.0,0.0,0.0,0.0,0.0,0.0,0.0,0.0,-1.2089,-1.2083,0.0,-1.0986,-1.0508,-1.0137,-0.9863,-0.9221,-0.8911,-0.8867,-0.842,-0.7933,-0.7489,-0.7489,-0.7221,-0.6779,-0.6517,-0.6118,-0.5675,-0.5186,-0.4879,-0.4661,-0.4389,-0.43,-0.43,-3.2525,-3.2431,-3.23,-3.2169,-3.1986,-3.1853,-3.178,-3.1743,-3.1683,-3.1609,-3.1609,-3.1669,-3.1913,-3.195,-3.1913,0.0,-3.184,-3.1853,0.0,-3.1716,-3.1666,-3.1666,-3.1519,-3.1421,-3.1397,-3.1097,-3.0884,-3.0809,0.0,0.0,0.0,-3.0495,-3.0305,-3.0101,-2.9703,-2.9263,-2.8846,-2.8331,-2.7851,-2.7366,-2.6846,-2.6362,-2.5904,-2.5695,-2.5485,-2.5285,-2.5285,-2.4646,-2.3788,-2.3788,-2.319,-2.244,-2.2628,-2.2628,-2.259,-2.2515,-2.244,-2.2365,-2.2214,-2.2101,-2.1949,-2.1807,-2.153,-2.1213,-2.1031,-2.0518,-2.0001,-1.9657,-1.9429,-1.9201,-1.8922,-1.8683,-1.8402,-1.8161,0.0,0.0,0.0,0.0,0.0,0.0,0.0,-1.8071,0.0,-1.5771,0.0,0.0,0.0,0.0,0.0,0.0,0.0,0.0,-1.241,0.0,-1.1457,-1.1,-1.0405,-0.9674,-0.9173,-0.8556,-0.7933,-0.758,-0.7183,-0.6738,-0.6609,-0.6343,-0.603,-0.5811,-0.55,-0.5186,-0.4924,-0.4659,-0.4433,-0.4344,-0.43,-0.43,-3.2155,-3.2023,-3.1927,-3.1693,-3.1582,-3.1447,-3.1312,-3.1261,-3.1224,-3.1136,-3.1149,-3.1149,-3.1149,-3.1061,0.0,-3.1447,-3.141,-3.1373,-3.1373,-3.1147,-3.1022,-3.1022,-3.0848,-3.0659,-3.0508,0.0,0.0,-2.9922,-2.9781,-2.9793,-2.9858,-2.9561,-2.9367,-2.9238,-2.8712,-2.8315,-2.7983,-2.7447,-2.6928,-2.6487,-2.603,-2.5611,-2.5242,-2.5158,-2.5031,-2.4956,-2.4956,-2.4366,-2.3547,-2.3507,-2.2848,-2.2063,-2.1949,-2.1911,-2.1863,-2.2101,-2.2063,-2.1911,-2.1711,-2.1568,-2.1377,-2.1069,-2.076,-2.044,-2.0098,-1.9696,-1.9301,-1.9024,-1.8873,-1.8723,-1.8491,-1.8322,-1.8193,-1.804,0.0,-1.7951,0.0,0.0,0.0,0.0,0.0,0.0,0.0,-1.5296,0.0,0.0,0.0,0.0,0.0,0.0,0.0,-1.2813,-1.2521,0.0,-1.1682,-1.108,-1.0399,-0.9557,-0.8759,-0.7933,-0.7092,-0.683,-0.6476,-0.6033,-0.5905,-0.5636,-0.5324,-0.5193,-0.4968,-0.4743,-0.4612,-0.4433,-0.43,-0.43,-0.43,-0.43,-3.1609,-3.1535,0.0,0.0,-3.1235,0.0,-3.0685,-3.0622,-3.0571,-3.0368,-3.033,-3.033,-3.033,-3.0139,-3.0292,-3.1035,0.0,0.0,0.0,-3.0633,-3.0443,-3.0443,-3.0241,0.0,-2.9588,-2.9367,-2.9067,-2.8673,-2.8673,-2.8779,-2.8964,-2.8569,-2.8383,-2.8343,-2.7713,-2.7307,-2.7062,-2.6445,-2.6041,-2.5812,-2.5369,-2.5073,-2.4861,-2.4861,-2.47,-2.4497,-2.4497,-2.3939,-2.3185,-2.292,-2.2238,-2.1476,-2.1215,-2.0992,-2.0944,-2.1568,-2.1464,-2.1089,-2.0905,-2.0828,-2.0702,-2.0245,-1.9971,-1.9666,-1.9082,-1.8922,-1.8843,-1.8442,-1.8353,-1.8322,-1.804,-1.8,-1.8,-1.8,-1.8,-1.791,-1.77,0.0,0.0,0.0,0.0,0.0,0.0,-1.4825,-1.4058,0.0,0.0,0.0,0.0,0.0,-1.2764,-1.2764,-1.2516,-1.2127,-1.1536,-1.0789,-1.006,-0.9304,-0.8042,-0.7048,-0.6343,-0.6124,-0.5772,-0.5327,-0.5327,-0.506,-0.4661,-0.4661,-0.4525,-0.43,-0.43,-0.43,-0.43,-0.43,-0.43,-0.43,0.0,0.0,-3.0849,-3.0634,-3.0482,-3.0292,-2.9986,-2.9947,-2.9909,-2.9871,-2.9729,-2.9651,-2.9651,-2.9172,-2.8949,-2.9172,-2.9523,-2.9767,-2.9767,-2.9289,-2.9003,-2.9003,-2.8597,-2.8359,-2.8239,-2.8063,-2.7834,-2.7592,-2.7592,-2.758,-2.7661,-2.7539,-2.7441,-2.7249,-2.6899,-2.6539,-2.6177,-2.5832,-2.5454,-2.5115,-2.5031,-2.4818,-2.4583,-2.4583,-2.454,-2.4497,-2.4335,-2.3934,-2.3308,-2.2612,-2.1959,-2.1372,-2.0664,-2.0284,-2.0284,-2.0905,-2.0789,-2.0401,-2.0177,-2.001,-1.9835,-1.9569,-1.9231,-1.8891,-1.8603,-1.8402,-1.8201,-1.8112,-1.8072,-1.808,-1.7991,-1.8,-1.7951,-1.7781,-1.7781,-1.7659,-1.7294,0.0,0.0,0.0,-1.6511,-1.6055,-1.507,-1.4388,-1.3763,0.0,0.0,0.0,0.0,0.0,-1.2467,-1.2467,-1.2224,-1.1736,-1.0998,-1.0259,-0.9138,-0.7594,-0.6863,-0.6207,-0.5636,-0.5366,-0.5102,-0.4839,-0.4659,-0.4478,-0.4389,-0.4389,-0.4344,-0.43,-0.43,-0.43,-0.43,-0.43,-0.43,-0.43,-3.0419,-3.0241,-3.0062,-2.9819,-2.9548,-2.9302,-2.9055,-2.8924,-2.8834,-2.8834,-2.8727,-2.8648,-2.8648,-2.8303,-2.8035,-2.8035,-2.8422,-2.8648,-2.8648,-2.8263,-2.8035,-2.8035,-2.7701,-2.7499,-2.7389,-2.7278,-2.7115,-2.691,-2.691,-2.6857,-2.6723,-2.6652,-2.6456,-2.626,-2.5988,-2.5779,-2.5549,-2.5327,-2.5115,-2.4903,-2.4786,-2.4615,-2.4497,-2.4411,-2.4368,-2.4335,-2.398,-2.3516,-2.2854,-2.2043,-2.1368,-2.0772,-2.0025,-1.9657,-1.9548,-1.9932,-1.9932,-1.9736,-1.9548,-1.9429,-1.9262,-1.8944,-1.8634,-1.8371,-1.8241,-1.8121,-1.8,-1.8,-1.8,-1.8,-1.8,-1.791,-1.7789,-1.7587,-1.7383,-1.7098,-1.6689,-1.6695,0.0,-1.5739,-1.555,-1.5201,-1.4394,-1.3865,-1.3431,-1.3098,0.0,0.0,-1.2613,-1.237,-1.2224,-1.2224,-1.1731,-1.1096,-1.0256,-0.9046,-0.7818,-0.6485,-0.5976,-0.5488,-0.5132,-0.4811,-0.4612,-0.4525,-0.4344,-0.43,-0.43,-0.43,-0.43,-0.43,-0.43,-0.43,-0.43,-0.43,-0.43,-0.43,-2.951,-2.9289,-2.9106,-2.8882,-2.8593,-2.8275,-2.8087,-2.7862,-2.773,-2.773,-2.7649,-2.7597,-2.7597,-2.7377,-2.7185,-2.7185,-2.7325,-2.7476,-2.7609,-2.7336,-2.7185,-2.7185,-2.7021,-2.6816,-2.6644,-2.6644,-2.655,-2.6385,-2.6385,-2.6249,-2.6071,-2.5884,-2.5675,-2.5454,-2.5242,-2.5158,-2.5158,-2.4946,-2.4828,-2.4818,-2.4583,-2.4454,-2.4411,-2.4206,-2.4067,-2.398,-2.3493,-2.29,-2.2221,-2.1409,-2.0712,-2.0098,-1.9441,-1.9078,-1.8882,-1.8834,-1.8904,-1.9024,-1.8953,-1.8882,-1.8763,-1.8442,-1.8161,-1.8,-1.8,-1.8,-1.8,-1.8,-1.8,-1.7951,-1.7951,-1.7789,-1.7538,-1.731,-1.6861,-1.6402,-1.5963,0.0,-1.5435,-1.4815,-1.4633,-1.4346,-1.3811,-1.3383,-1.305,-1.3001,-1.2856,0.0,0.0,-1.198,-1.178,-1.1629,-1.0998,-1.0154,-0.9164,-0.7606,-0.6471,-0.5774,-0.5296,-0.4919,-0.4712,-0.4445,-0.4312,-0.43,-0.43,-0.43,-0.43,-0.43,-0.43,-0.43,-0.43,-0.43,-0.43,-0.43,-0.43,-0.43,-2.8447,-2.8223,-2.7971,-2.7794,-2.7725,-2.7592,-2.7389,-2.7307,-2.7296,-2.7296,-2.6928,-2.6682,-2.6682,-2.6155,-2.5821,-2.5821,-2.5695,-2.5935,-2.664,-2.6155,-2.5821,-2.5821,-2.5611,-2.5496,-2.5454,-2.5454,-2.5454,-2.5411,-2.5411,-2.5411,-2.5359,-2.5327,-2.5285,-2.5242,-2.5031,-2.4946,-2.4946,-2.4658,-2.4583,-2.454,-2.4325,-2.4249,-2.4206,-2.3764,-2.346,-2.3232,-2.275,-2.2385,-2.1989,-2.1163,-2.0555,-2.0072,-1.9212,-1.8746,-1.8442,-1.8023,-1.7934,-1.8023,-1.8393,-1.8322,-1.8161,-1.808,-1.8031,-1.8,-1.8,-1.8,-1.8,-1.8,-1.787,-1.774,-1.774,-1.7456,-1.7049,-1.6599,-1.6147,-1.565,-1.4992,0.0,-1.454,-1.4011,-1.4019,-1.3811,-1.3286,-1.3147,-1.2953,-1.2516,-1.2467,-1.2273,-1.1731,-1.1247,-1.065,-1.0002,-0.9854,-0.8966,-0.7238,-0.652,-0.582,-0.5238,-0.4888,-0.4651,-0.4482,-0.442,-0.4373,-0.43,-0.43,-0.43,-0.43,-0.43,-0.43,-0.43,-0.43,-0.43,-0.43,-0.43,-0.43,-0.43,-2.7626,-2.747,-2.7226,-2.6981,-2.6787,-2.6539,-2.6321,-2.6196,-2.6102,-2.6102,-2.5946,-2.5821,-2.5821,-2.5527,-2.5327,-2.5327,-2.5158,-2.52,-2.5611,-2.5454,-2.5327,-2.5327,-2.5242,-2.52,-2.52,-2.52,-2.52,-2.52,-2.52,-2.5158,-2.5031,-2.5031,-2.4903,-2.4658,-2.4572,-2.4444,-2.4305,-2.4186,-2.411,-2.411,-2.3894,-2.3721,-2.3537,-2.3101,-2.2652,-2.228,-2.1802,-2.1401,-2.1025,-2.0289,-1.9826,-1.9445,-1.8846,-1.8389,-1.8093,-1.7887,-1.7663,-1.7587,-1.7789,-1.7829,-1.7821,-1.7821,-1.791,-1.8,-1.8,-1.791,-1.7829,-1.7716,-1.7383,-1.7131,-1.7009,-1.655,-1.6098,-1.5767,-1.5095,0.0,0.0,-1.392,-1.3692,-1.347,-1.3442,-1.3335,-1.2953,-1.2953,-1.2807,-1.2419,-1.2273,-1.1883,-1.1194,-1.0502,-0.976,-0.897,-0.8524,-0.768,-0.6392,-0.5989,-0.5513,-0.4922,-0.4763,-0.4649,-0.4579,-0.4435,-0.4366,-0.4369,-0.432,-0.43,-0.43,-0.43,-0.43,-0.43,-0.43,-0.43,-0.43,-0.43,-0.43,-0.43,-2.6808,-2.6757,-2.6509,-2.6238,-2.5957,-2.5675,-2.5454,-2.5285,-2.52,-2.52,-2.5158,-2.5115,-2.5115,-2.5031,-2.4988,-2.4988,-2.4775,-2.4647,-2.4647,-2.4775,-2.4903,-2.4946,-2.4903,-2.4861,-2.4861,-2.4861,-2.4861,-2.4861,-2.4861,-2.4818,-2.4647,-2.4647,-2.4444,-2.4024,-2.4024,-2.3894,-2.3624,-2.3624,-2.3624,-2.3537,-2.3319,-2.3057,-2.2731,-2.2255,-2.1802,-2.1302,-2.0907,-2.0464,-2.0068,-1.96,-1.9271,-1.8968,-1.8636,-1.8298,-1.8018,-1.7984,-1.7638,-1.7294,-1.7376,-1.7505,-1.7619,-1.7578,-1.7668,-1.7749,-1.7708,-1.7538,-1.7335,-1.718,-1.6771,-1.6312,-1.6098,-1.556,-1.5012,-1.4761,0.0,0.0,0.0,-1.3207,-1.3032,-1.3034,-1.3045,-1.2953,-1.2813,-1.2759,-1.257,-1.2224,-1.1927,-1.134,-1.0458,-0.971,-0.892,-0.7982,-0.7335,-0.6639,-0.5892,-0.5639,-0.5286,-0.4782,-0.4769,-0.4728,-0.4704,-0.4563,-0.4441,-0.4461,-0.4371,-0.433,-0.433,-0.4308,-0.43,-0.43,-0.43,-0.43,-0.43,-0.43,-0.43,-0.43,-2.5922,-2.5812,-2.5601,-2.5327,-2.5285,-2.5242,-2.5242,-2.52,-2.52,-2.52,-2.5031,-2.4903,-2.4903,-2.4529,-2.4282,-2.4282,-2.4013,-2.3884,-2.3884,-2.3884,-2.4013,-2.4239,-2.4024,-2.3874,-2.3874,-2.3874,-2.3874,-2.3874,-2.3874,-2.3884,-2.3884,-2.3884,-2.3754,-2.3547,-2.3547,-2.3406,-2.3135,-2.3135,-2.3057,-2.2847,-2.2574,-2.2201,-2.1739,-2.1257,-2.0817,-2.0382,-2.0065,-1.9845,-1.9625,-1.96,-1.9315,-1.8973,-1.8985,-1.8677,-1.8329,-1.8129,-1.7536,-1.7017,-1.7319,-1.7392,-1.7392,-1.718,-1.7172,-1.7098,-1.6853,-1.6648,-1.6476,-1.6476,-1.5933,-1.5428,-1.5171,-1.4594,-1.4055,-1.362,0.0,0.0,-1.2801,-1.2785,-1.2822,-1.2839,-1.2816,-1.2813,-1.2813,-1.257,-1.2224,-1.1688,-1.1194,-1.0408,-0.9365,-0.8775,-0.7882,-0.6587,-0.6487,-0.6187,-0.5636,-0.5338,-0.509,-0.4784,-0.4778,-0.4783,-0.4708,-0.4696,-0.4643,-0.4557,-0.4465,-0.4378,-0.4372,-0.4334,-0.43,-0.43,-0.43,-0.43,-0.43,-0.43,-0.43,-0.43,-2.5314,-2.5295,-2.5084,-2.4828,-2.4658,-2.4529,-2.4358,-2.4348,-2.4348,-2.4348,-2.4262,-2.4219,-2.4219,-2.3927,-2.3764,-2.3764,-2.3537,-2.3363,-2.3363,-2.3232,-2.3373,-2.3764,-2.3493,-2.3363,-2.3363,-2.3363,-2.3363,-2.3363,-2.3363,-2.3363,-2.3353,-2.3232,-2.3057,-2.2794,-2.2696,-2.2467,-2.222,-2.222,-2.2122,-2.19,-2.1624,-2.1266,-2.0772,-2.0464,-2.0011,-1.9554,-1.9333,-1.9066,-1.8897,-1.8743,-1.8556,-1.8446,-1.8446,-1.8067,-1.7569,-1.7104,-1.6777,-1.6518,-1.647,-1.6519,-1.6582,-1.6492,-1.6345,-1.6206,-1.6083,-1.5842,-1.5519,-1.5228,-1.472,-1.421,-1.3837,-1.3482,-1.3169,-1.2996,0.0,-1.2688,-1.2768,-1.2629,-1.261,-1.2757,-1.2662,-1.2565,-1.2565,-1.2175,-1.1683,-1.1145,-1.0453,-0.9661,-0.8775,-0.7885,-0.7039,-0.6189,-0.5987,-0.5737,-0.5338,-0.524,-0.5087,-0.4784,-0.4784,-0.4768,-0.4785,-0.4732,-0.4689,-0.4653,-0.4559,-0.452,-0.4514,-0.4282,-0.4154,-0.415,-0.3963,-0.3853,-0.39,-0.3989,-0.4111,-0.4154,-2.4756,-2.469,-2.4487,-2.4239,-2.398,-2.3807,-2.3624,-2.358,-2.358,-2.358,-2.358,-2.358,-2.3493,-2.3276,-2.3144,-2.3057,-2.2828,-2.2652,-2.2652,-2.2485,-2.2574,-2.3047,-2.2784,-2.2652,-2.2652,-2.2652,-2.2652,-2.2652,-2.2652,-2.2652,-2.2652,-2.253,-2.2264,-2.1935,-2.1802,-2.1579,-2.1239,-2.1239,-2.1141,-2.0907,-2.0727,-2.0329,-1.9791,-1.9608,-1.9234,-1.8819,-1.8643,-1.8512,-1.8334,-1.804,-1.7947,-1.7947,-1.79,-1.7503,-1.6991,-1.6308,-1.6036,-1.5918,-1.5552,-1.5437,-1.539,-1.5542,-1.5335,-1.5074,-1.4998,-1.4713,-1.437,-1.4133,-1.372,-1.3274,-1.2977,-1.2756,-1.2568,-1.2523,-1.2461,-1.2453,-1.2628,-1.2574,-1.2581,-1.2646,-1.2419,-1.2224,-1.2029,-1.1541,-1.0949,-1.0355,-0.9612,-0.8821,-0.7935,-0.7039,-0.6342,-0.5889,-0.5639,-0.5338,-0.509,-0.5087,-0.4987,-0.4784,-0.4784,-0.4784,-0.4782,-0.4775,-0.4749,-0.4743,-0.4556,-0.4518,-0.4462,-0.4045,-0.3824,-0.3725,-0.34,-0.3292,-0.3292,-0.3428,-0.3597,-0.3731,-2.4157,-2.397,-2.3711,-2.3503,-2.3276,-2.3101,-2.3101,-2.3101,-2.3101,-2.3101,-2.3101,-2.3013,-2.2794,-2.2574,-2.2299,-2.2104,-2.1856,-2.1687,-2.1687,-2.1526,-2.1597,-2.2059,-2.1811,-2.1687,-2.1687,-2.1687,-2.1687,-2.1687,-2.1687,-2.1687,-2.1687,-2.1687,-2.1454,-2.0988,-2.0997,-2.0727,-2.0292,-2.0292,-2.0155,-1.9882,-1.9882,-1.9471,-1.8781,-1.8781,-1.8504,-1.8087,-1.8087,-1.8087,-1.804,-1.7768,-1.7675,-1.7628,-1.738,-1.7138,-1.6793,-1.592,-1.5502,-1.516,-1.4656,-1.4141,-1.3898,-1.4394,-1.4097,-1.3633,-1.344,-1.3179,-1.3083,-1.3349,-1.3021,-1.2711,-1.2683,-1.2546,-1.2323,-1.214,-1.2258,-1.242,-1.242,-1.2619,-1.2716,-1.2419,-1.2175,-1.178,-1.1243,-1.0703,-1.0064,-0.9266,-0.8676,-0.7935,-0.6845,-0.6292,-0.5889,-0.5586,-0.5338,-0.5087,-0.4784,-0.4784,-0.4784,-0.4784,-0.4784,-0.4784,-0.4784,-0.4784,-0.4784,-0.478,-0.4447,-0.4315,-0.4259,-0.365,-0.3241,-0.2954,-0.2715,-0.2571,-0.2571,-0.2571,-0.2762,-0.3002,-2.3153,-2.3013,-2.274,-2.2555,-2.2299,-2.2132,-2.2132,-2.2132,-2.2132,-2.2132,-2.2132,-2.2087,-2.2043,-2.183,-2.1651,-2.1607,-2.1365,-2.1141,-2.1015,-2.0925,-2.088,-2.0826,-2.1096,-2.1221,-2.1221,-2.1221,-2.1221,-2.1221,-2.1221,-2.1141,-2.1015,-2.0789,-2.0555,-2.0201,-2.0073,-1.9945,-1.9808,-1.9808,-1.9662,-1.9371,-1.9196,-1.8928,-1.8566,-1.8365,-1.8094,-1.7815,-1.7613,-1.7434,-1.7254,-1.6817,-1.6669,-1.6527,-1.5954,-1.5581,-1.5283,-1.4861,-1.4646,-1.4533,-1.4169,-1.3731,-1.3488,-1.3904,-1.3633,-1.326,-1.3177,-1.2998,-1.2748,-1.2733,-1.257,-1.2462,-1.2307,-1.2327,-1.24,-1.2307,-1.2506,-1.2609,-1.2416,-1.2474,-1.237,-1.1883,-1.1438,-1.0944,-1.0395,-0.971,-0.9023,-0.8382,-0.7686,-0.6992,-0.6292,-0.6092,-0.5792,-0.5338,-0.524,-0.5087,-0.4784,-0.4784,-0.4784,-0.4784,-0.4784,-0.4784,-0.4784,-0.4784,-0.4686,-0.4487,-0.421,-0.3899,-0.3492,-0.289,-0.2381,-0.1892,-0.1581,-0.1477,-0.1477,-0.1666,-0.1969,-0.2236,-2.235,-2.2185,-2.1954,-2.1856,-2.1588,-2.141,-2.141,-2.141,-2.141,-2.141,-2.141,-2.1374,-2.1329,-2.1203,-2.1069,-2.0979,-2.0826,-2.0645,-2.0382,-2.0382,-2.0292,-2.0027,-2.0292,-2.0464,-2.0555,-2.0555,-2.051,-2.0473,-2.0473,-2.0382,-2.0255,-2.0119,-1.9891,-1.9608,-1.9387,-1.9258,-1.9174,-1.9028,-1.892,-1.8727,-1.8596,-1.8319,-1.8001,-1.7854,-1.752,-1.7099,-1.6904,-1.6676,-1.6298,-1.5906,-1.5622,-1.5337,-1.4813,-1.4532,-1.4346,-1.4058,-1.3919,-1.3769,-1.3624,-1.3318,-1.3081,-1.3351,-1.3067,-1.2689,-1.2689,-1.2592,-1.2437,-1.2398,-1.242,-1.2406,-1.2359,-1.2499,-1.2501,-1.2406,-1.2523,-1.2516,-1.2127,-1.198,-1.1736,-1.1194,-1.0556,-0.9961,-0.941,-0.8722,-0.8081,-0.759,-0.6892,-0.6342,-0.5992,-0.5792,-0.5541,-0.519,-0.509,-0.4987,-0.4784,-0.4784,-0.4784,-0.4784,-0.4784,-0.4784,-0.4784,-0.4686,-0.4485,-0.4236,-0.3732,-0.3226,-0.2668,-0.1993,-0.1389,-0.0892,-0.0588,-0.0439,-0.0488,-0.0634,-0.0884,-0.1141,-2.1597,-2.1472,-2.1347,-2.1302,-2.1105,-2.0952,-2.0952,-2.0952,-2.0952,-2.0952,-2.0952,-2.0862,-2.069,-2.0654,-2.0518,-2.0292,-2.0246,-2.011,-1.9891,-1.9891,-1.9799,-1.9633,-1.9587,-1.9625,-1.9791,-1.9845,-1.9799,-1.9587,-1.9587,-1.9587,-1.9541,-1.9541,-1.9396,-1.9096,-1.8827,-1.8604,-1.8388,-1.8133,-1.804,-1.804,-1.7994,-1.7707,-1.7232,-1.7185,-1.6709,-1.6096,-1.6048,-1.5724,-1.5296,-1.5051,-1.4627,-1.4154,-1.3908,-1.3811,-1.3763,-1.3485,-1.3249,-1.305,-1.305,-1.2953,-1.2813,-1.2813,-1.2483,-1.2159,-1.2159,-1.2159,-1.2224,-1.2398,-1.2399,-1.2464,-1.2721,-1.2716,-1.2619,-1.237,-1.2273,-1.2078,-1.1536,-1.1243,-1.085,-1.031,-0.9567,-0.8874,-0.8333,-0.7779,-0.7235,-0.6742,-0.6242,-0.5942,-0.5942,-0.5441,-0.519,-0.519,-0.4937,-0.4784,-0.4784,-0.4784,-0.4784,-0.4784,-0.4784,-0.4734,-0.4684,-0.4437,-0.4135,-0.3831,-0.3026,-0.2371,-0.1816,-0.101,-0.0354,0.0152,0.0354,0.0455,0.0455,0.0455,0.0303,0.0051,-2.097,-2.088,-2.0798,-2.0564,-2.0473,-2.0464,-2.0464,-2.0464,-2.0464,-2.0464,-2.0464,-2.0419,-2.0382,-2.0201,-2.0065,-1.9973,-1.9845,-1.9725,-1.9671,-1.9679,-1.9633,-1.9587,-1.9387,-1.9196,-1.9058,-1.9442,-1.9633,-1.9587,-1.9587,-1.9487,-1.9288,-1.9066,-1.8735,-1.8319,-1.804,-1.7807,-1.7567,-1.752,-1.7466,-1.7473,-1.7301,-1.7066,-1.6723,-1.6298,-1.5818,-1.5289,-1.5112,-1.4825,-1.4484,-1.4244,-1.3811,-1.334,-1.3286,-1.3195,-1.305,-1.2958,-1.291,-1.2861,-1.2861,-1.2813,-1.2813,-1.2813,-1.2732,-1.2656,-1.2656,-1.2656,-1.2672,-1.2678,-1.2539,-1.241,-1.2462,-1.2127,-1.1834,-1.178,-1.1438,-1.1047,-1.0703,-1.0256,-0.9756,-0.9221,-0.863,-0.8035,-0.7537,-0.6789,-0.6292,-0.6192,-0.5889,-0.5586,-0.5391,-0.524,-0.509,-0.4885,-0.4834,-0.4784,-0.4784,-0.4784,-0.4686,-0.4487,-0.4487,-0.4284,-0.388,-0.378,-0.3377,-0.2723,-0.2117,-0.1412,-0.0707,-0.0101,0.0455,0.096,0.101,0.101,0.101,0.101,0.0859,0.0657,-2.0518,-2.0518,-2.0473,-2.0337,-2.0201,-2.011,-2.011,-2.0027,-1.9982,-1.9982,-1.9982,-1.9982,-1.9982,-1.9845,-1.9708,-1.9563,-1.9479,-1.925,-1.8928,-1.8881,-1.8789,-1.8504,-1.8357,-1.8164,-1.7932,-1.8218,-1.8458,-1.8697,-1.855,-1.8404,-1.8303,-1.8164,-1.7893,-1.7567,-1.7293,-1.6958,-1.656,-1.6426,-1.6332,-1.6237,-1.6157,-1.592,-1.5642,-1.5404,-1.4962,-1.4526,-1.4388,-1.4058,-1.3673,-1.3431,-1.3195,-1.2958,-1.2958,-1.2856,-1.2813,-1.2813,-1.2813,-1.2813,-1.2813,-1.2813,-1.2764,-1.2613,-1.2619,-1.2613,-1.2764,-1.271,-1.2619,-1.2619,-1.2273,-1.198,-1.1834,-1.1487,-1.1145,-1.09,-1.0502,-1.0109,-0.9715,-0.9171,-0.8676,-0.8276,-0.7736,-0.7241,-0.6689,-0.6139,-0.5789,-0.5789,-0.5539,-0.5338,-0.519,-0.509,-0.4937,-0.4784,-0.4784,-0.4734,-0.4632,-0.4585,-0.4284,-0.3629,-0.4033,-0.3932,-0.3376,-0.3124,-0.2572,-0.1815,-0.1261,-0.0555,0.0202,0.0606,0.101,0.1415,0.1415,0.1415,0.1415,0.1415,0.1313,0.1212,-2.0164,-2.0164,-2.0164,-2.0164,-1.9973,-1.9791,-1.9791,-1.9571,-1.9396,-1.9396,-1.935,-1.935,-1.935,-1.9304,-1.9158,-1.8912,-1.8866,-1.8535,-1.7939,-1.7846,-1.766,-1.7185,-1.7091,-1.699,-1.6803,-1.6662,-1.6904,-1.7488,-1.7286,-1.7185,-1.7185,-1.7091,-1.6951,-1.6709,-1.6386,-1.6008,-1.5514,-1.5289,-1.5105,-1.4956,-1.4956,-1.4819,-1.4544,-1.4496,-1.4202,-1.3763,-1.3715,-1.3431,-1.3001,-1.2861,-1.2813,-1.2813,-1.2813,-1.2813,-1.2813,-1.2813,-1.2764,-1.2716,-1.2716,-1.2662,-1.2516,-1.2322,-1.2175,-1.2175,-1.2419,-1.237,-1.2224,-1.2175,-1.1736,-1.1292,-1.0998,-1.0654,-1.031,-0.9821,-0.9464,-0.9114,-0.8673,-0.8134,-0.7686,-0.7484,-0.6989,-0.6492,-0.5989,-0.5689,-0.5536,-0.5536,-0.5288,-0.514,-0.514,-0.4887,-0.4736,-0.4736,-0.4634,-0.4481,-0.4279,-0.4182,-0.3679,-0.272,-0.3275,-0.3275,-0.2772,-0.232,-0.1665,-0.0908,-0.0404,0.0202,0.0909,0.1162,0.1415,0.1617,0.1617,0.1617,0.1617,0.1617,0.1617,0.1617,-1.9679,-1.9679,-1.9679,-1.9679,-1.9479,-1.9279,-1.9279,-1.8858,-1.8573,-1.8573,-1.8404,-1.8319,-1.8319,-1.8118,-1.7839,-1.7559,-1.7412,-1.7279,-1.7185,-1.6904,-1.677,-1.6676,-1.6237,-1.5988,-1.594,-1.5343,-1.5588,-1.673,-1.6723,-1.6676,-1.6676,-1.6231,-1.5852,-1.5581,-1.5159,-1.4777,-1.4484,-1.4436,-1.4436,-1.4394,-1.4394,-1.4244,-1.3956,-1.3727,-1.3485,-1.3195,-1.3001,-1.2905,-1.2861,-1.2813,-1.2813,-1.2813,-1.2813,-1.2813,-1.2813,-1.2813,-1.2613,-1.2467,-1.2467,-1.2127,-1.1731,-1.1731,-1.134,-1.1047,-1.1047,-1.1389,-1.159,-1.1096,-1.0757,-1.0408,-0.9908,-0.9414,-0.8973,-0.868,-0.818,-0.7826,-0.7779,-0.7288,-0.6942,-0.6892,-0.6442,-0.5989,-0.5687,-0.5388,-0.524,-0.524,-0.4987,-0.4834,-0.4834,-0.4585,-0.4438,-0.4438,-0.3982,-0.3729,-0.3728,-0.3224,-0.2821,-0.2471,-0.1865,-0.1412,-0.1111,-0.106,-0.0555,0.0202,0.0505,0.0808,0.1162,0.1415,0.1566,0.1617,0.1617,0.1617,0.1617,0.1617,0.1617,0.1617,-1.8789,-1.8743,-1.8743,-1.8743,-1.8404,-1.8118,-1.8118,-1.7699,-1.7372,-1.7372,-1.7333,-1.7239,-1.7239,-1.7145,-1.6897,-1.6513,-1.6372,-1.6136,-1.5724,-1.5588,-1.5493,-1.5302,-1.5099,-1.4902,-1.4758,-1.4436,-1.4442,-1.4873,-1.5153,-1.5302,-1.5296,-1.5051,-1.4813,-1.4573,-1.434,-1.401,-1.3624,-1.3624,-1.3582,-1.3485,-1.3485,-1.3389,-1.3286,-1.3147,-1.3055,-1.291,-1.2813,-1.2813,-1.2813,-1.2813,-1.2813,-1.2764,-1.2613,-1.257,-1.2516,-1.2224,-1.2029,-1.1883,-1.1585,-1.134,-1.1096,-1.0801,-1.0404,-1.0055,-0.9764,-0.9764,-0.9862,-1.0105,-0.9809,-0.932,-0.8825,-0.8375,-0.8028,-0.7783,-0.7388,-0.7138,-0.7138,-0.6689,-0.6292,-0.6139,-0.5792,-0.5491,-0.5388,-0.5138,-0.4987,-0.4987,-0.4736,-0.4587,-0.4587,-0.4183,-0.3882,-0.3729,-0.3379,-0.3025,-0.2722,-0.2318,-0.1865,-0.1262,-0.0757,-0.0555,-0.0556,-0.0253,0.0253,0.0859,0.096,0.1162,0.1415,0.1566,0.1617,0.1617,0.1617,0.1617,0.1617,0.1617,0.1617,0.1617]},{"header":{"parameterUnit":"m.s-1","parameterCategory":1,"la1":30.6,"la2":28.766,"lo1":-90.7593,"lo2":-88.6598,"dy":0.0162,"dx":0.0183,"nx":116,"ny":114,"refTime":"2023-08-20T18:00:00:Z","depth":0,"parameterNumber":3,"parameterNumberName":"V-component_of_WINDS"},"data":[0.0,0.0,0.0,0.0,0.0,0.0,0.0,0.0,0.0,0.0,0.0,0.0,0.0,0.0,0.0,0.0,0.0,0.0,0.0,0.0,0.0,0.0,0.0,0.0,0.0,0.0,0.0,0.0,0.0,0.0,0.0,0.0,0.0,0.0,0.0,0.0,0.0,0.0,0.0,0.0,0.0,0.0,0.0,0.0,0.0,0.0,0.0,0.0,0.0,0.0,0.0,0.0,0.0,0.0,0.0,0.0,0.0,0.0,0.0,0.0,0.0,0.0,0.0,0.0,0.0,0.0,0.0,0.0,0.0,0.0,0.0,0.0,0.0,0.0,0.0,0.0,0.0,0.0,0.0,0.0,0.0,0.0,0.0,0.0,0.0,0.0,0.0,0.0,0.0,0.0,0.0,0.0,0.0,0.0,0.0,0.0,0.0,0.0,0.0,0.0,0.0,0.0,0.0,0.0,0.0,0.0,0.0,0.0,0.0,0.0,0.0,0.0,0.0,0.0,0.0,0.0,0.0,0.0,0.0,0.0,0.0,0.0,0.0,0.0,0.0,0.0,0.0,0.0,0.0,0.0,0.0,0.0,0.0,0.0,0.0,0.0,0.0,0.0,0.0,0.0,0.0,0.0,0.0,0.0,0.0,0.0,0.0,0.0,0.0,0.0,0.0,0.0,0.0,0.0,0.0,0.0,0.0,0.0,0.0,0.0,0.0,0.0,0.0,0.0,0.0,0.0,0.0,0.0,0.0,0.0,0.0,0.0,0.0,0.0,0.0,0.0,0.0,0.0,0.0,0.0,0.0,0.0,0.0,0.0,0.0,0.0,0.0,0.0,0.0,0.0,0.0,0.0,0.0,0.0,0.0,0.0,0.0,0.0,0.0,0.0,0.0,0.0,0.0,0.0,0.0,0.0,0.0,0.0,0.0,0.0,0.0,0.0,0.0,0.0,0.0,0.0,0.0,0.0,0.0,0.0,0.0,0.0,0.0,0.0,0.0,0.0,0.0,0.0,0.0,0.0,0.0,0.0,0.0,0.0,0.0,0.0,0.0,0.0,0.0,0.0,0.0,0.0,0.0,0.0,0.0,0.0,0.0,0.0,0.0,0.0,0.0,0.0,0.0,0.0,0.0,0.0,0.0,0.0,0.0,0.0,0.0,0.0,0.0,0.0,0.0,0.0,0.0,0.0,0.0,0.0,0.0,0.0,0.0,0.0,0.0,0.0,0.0,0.0,0.0,0.0,0.0,0.0,0.0,0.0,0.0,0.0,0.0,0.0,0.0,0.0,0.0,0.0,0.0,0.0,0.0,0.0,0.0,0.0,0.0,0.0,0.0,0.0,0.0,0.0,0.0,0.0,0.0,0.0,0.0,0.0,0.0,0.0,0.0,0.0,0.0,0.0,0.0,0.0,0.0,0.0,0.0,0.0,0.0,0.0,0.0,0.0,0.0,0.0,0.0,0.0,0.0,0.0,0.0,0.0,0.0,0.0,0.0,0.0,0.0,0.0,0.0,0.0,0.0,0.0,0.0,0.0,0.0,0.0,0.0,0.0,0.0,0.0,0.0,0.0,0.0,0.0,0.0,0.0,0.0,0.0,0.0,0.0,0.0,0.0,0.0,0.0,0.0,0.0,0.0,0.0,0.0,0.0,0.0,0.0,0.0,0.0,0.0,0.0,0.0,0.0,0.0,0.0,0.0,0.0,0.0,0.0,0.0,0.0,0.0,0.0,0.0,0.0,0.0,0.0,0.0,0.0,0.0,0.0,0.0,0.0,0.0,0.0,0.0,0.0,0.0,0.0,0.0,0.0,0.0,0.0,0.0,0.0,0.0,0.0,0.0,0.0,0.0,0.0,0.0,0.0,0.0,0.0,0.0,0.0,0.0,0.0,0.0,0.0,0.0,0.0,0.0,0.0,0.0,0.0,0.0,0.0,0.0,0.0,0.0,0.0,0.0,0.0,0.0,0.0,0.0,0.0,0.0,0.0,0.0,0.0,0.0,0.0,0.0,0.0,0.0,0.0,0.0,0.0,0.0,0.0,0.0,0.0,0.0,0.0,0.0,0.0,0.0,0.0,0.0,0.0,0.0,0.0,0.0,0.0,0.0,0.0,0.0,0.0,0.0,0.0,0.0,0.0,0.0,0.0,0.0,0.0,0.0,0.0,0.0,0.0,0.0,0.0,0.0,0.0,0.0,0.0,0.0,0.0,0.0,0.0,0.0,0.0,0.0,0.0,0.0,0.0,0.0,0.0,0.0,0.0,0.0,0.0,0.0,0.0,0.0,0.0,0.0,0.0,0.0,0.0,0.0,0.0,0.0,0.0,0.0,0.0,0.0,0.0,0.0,0.0,0.0,0.0,0.0,0.0,0.0,0.0,0.0,0.0,0.0,0.0,0.0,0.0,0.0,0.0,0.0,0.0,0.0,0.0,0.0,0.0,0.0,0.0,0.0,0.0,0.0,0.0,0.0,0.0,0.0,0.0,0.0,0.0,0.0,0.0,0.0,0.0,0.0,0.0,0.0,0.0,0.0,0.0,0.0,0.0,0.0,0.0,0.0,0.0,0.0,0.0,0.0,0.0,0.0,0.0,0.0,0.0,0.0,0.0,0.0,0.0,0.0,0.0,0.0,0.0,0.0,0.0,0.0,0.0,0.0,0.0,0.0,0.0,0.0,0.0,0.0,0.0,0.0,0.0,0.0,0.0,0.0,0.0,0.0,0.0,0.0,0.0,0.0,0.0,0.0,0.0,0.0,0.0,0.0,0.0,0.0,0.0,0.0,0.0,0.0,0.0,0.0,0.0,0.0,0.0,0.0,0.0,0.0,0.0,0.0,0.0,0.0,0.0,0.0,0.0,0.0,0.0,0.0,0.0,0.0,0.0,0.0,0.0,0.0,0.0,0.0,0.0,0.0,0.0,0.0,0.0,0.0,0.0,0.0,0.0,0.0,0.0,0.0,0.0,0.0,0.0,0.0,0.0,0.0,0.0,0.0,0.0,0.0,0.0,0.0,0.0,0.0,0.0,0.0,0.0,0.0,0.0,0.0,0.0,0.0,0.0,0.0,0.0,0.0,0.0,0.0,0.0,0.0,0.0,0.0,0.0,0.0,0.0,0.0,0.0,0.0,0.0,0.0,0.0,0.0,0.0,0.0,0.0,0.0,0.0,0.0,0.0,0.0,0.0,0.0,0.0,0.0,0.0,0.0,0.0,0.0,0.0,0.0,0.0,0.0,0.0,0.0,0.0,0.0,0.0,0.0,0.0,0.0,0.0,0.0,0.0,0.0,0.0,0.0,0.0,0.0,0.0,0.0,0.0,0.0,0.0,0.0,0.0,0.0,0.0,0.0,0.0,0.0,0.0,0.0,0.0,0.0,0.0,0.0,0.0,0.0,0.0,0.0,0.0,0.0,0.0,0.0,0.0,0.0,0.0,0.0,0.0,0.0,0.0,0.0,0.0,0.0,0.0,0.0,0.0,0.0,0.0,0.0,0.0,0.0,0.0,0.0,0.0,0.0,0.0,0.0,0.0,0.0,0.0,0.0,0.0,0.0,0.0,0.0,0.0,0.0,0.0,0.0,0.0,0.0,0.0,0.0,0.0,0.0,0.0,0.0,0.0,0.0,0.0,0.0,0.0,0.0,0.0,0.0,0.0,0.0,0.0,0.0,0.0,0.0,0.0,0.0,0.0,0.0,0.0,0.0,0.0,0.0,0.0,0.0,0.0,0.0,0.0,0.0,0.0,0.0,0.0,0.0,0.0,0.0,0.0,0.0,0.0,0.0,0.0,0.0,0.0,0.0,0.0,0.0,0.0,0.0,0.0,0.0,0.0,0.0,0.0,0.0,0.0,0.0,0.0,0.0,0.0,0.0,0.0,0.0,0.0,0.0,0.0,0.0,0.0,0.0,0.0,0.0,0.0,0.0,0.0,0.0,0.0,0.0,0.0,0.0,0.0,0.0,0.0,0.0,0.0,0.0,0.0,0.0,0.0,0.0,0.0,0.0,0.0,0.0,0.0,0.0,0.0,0.0,0.0,0.0,0.0,0.0,0.0,0.0,0.0,0.0,0.0,0.0,0.0,0.0,0.0,0.0,0.0,0.0,0.0,0.0,0.0,0.0,0.0,0.0,0.0,0.0,0.0,0.0,0.0,0.0,0.0,0.0,0.0,0.0,0.0,0.0,0.0,0.0,0.0,0.0,0.0,0.0,0.0,0.0,0.0,0.0,0.0,0.0,0.0,0.0,0.0,0.0,0.0,0.0,0.0,0.0,0.0,0.0,0.0,0.0,0.0,0.0,0.0,0.0,0.0,0.0,0.0,0.0,0.0,0.0,0.0,0.0,0.0,0.0,0.0,0.0,0.0,0.0,0.0,0.0,0.0,0.0,0.0,0.0,0.0,0.0,0.0,0.0,0.0,0.0,0.0,0.0,0.0,0.0,0.0,0.0,0.0,0.0,0.0,0.0,0.0,0.0,0.0,0.0,0.0,0.0,0.0,0.0,0.0,0.0,0.0,0.0,0.0,0.0,0.0,0.0,0.0,0.0,0.0,0.0,0.0,0.0,0.0,0.0,0.0,0.0,0.0,0.0,0.0,0.0,0.0,0.0,0.0,0.0,0.0,0.0,0.0,0.0,0.0,0.0,0.0,0.0,0.0,0.0,0.0,0.0,0.0,0.0,0.0,0.0,0.0,0.0,0.0,0.0,0.0,0.0,0.0,0.0,0.0,0.0,0.0,0.0,0.0,0.0,0.0,0.0,0.0,0.0,0.0,0.0,0.0,0.0,0.0,0.0,0.0,0.0,0.0,0.0,0.0,0.0,0.0,0.0,0.0,0.0,0.0,0.0,0.0,0.0,0.0,0.0,0.0,0.0,0.0,0.0,0.0,0.0,0.0,0.0,0.0,0.0,0.0,0.0,0.0,0.0,0.0,0.0,0.0,0.0,0.0,0.0,0.0,0.0,0.0,0.0,0.0,0.0,0.0,0.0,0.0,0.0,0.0,0.0,0.0,0.0,0.0,0.0,0.0,0.0,0.0,0.0,0.0,0.0,0.0,0.0,0.0,0.0,0.0,0.0,0.0,0.0,0.0,0.0,0.0,0.0,0.0,0.0,0.0,0.0,0.0,0.0,0.0,0.0,0.0,0.0,0.0,0.0,0.0,0.0,0.0,0.0,0.0,0.0,0.0,0.0,0.0,0.0,0.0,0.0,0.0,0.0,0.0,0.0,0.0,0.0,0.0,0.0,0.0,0.0,0.0,0.0,0.0,0.0,0.0,0.0,0.0,0.0,0.0,0.0,0.0,0.0,0.0,0.0,0.0,0.0,0.0,0.0,0.0,0.0,0.0,0.0,0.0,0.0,0.0,0.0,0.0,0.0,0.0,0.0,0.0,0.0,0.0,0.0,0.0,0.0,0.0,0.0,0.0,0.0,0.0,0.0,0.0,0.0,0.0,0.0,0.0,0.0,0.0,0.0,0.0,0.0,0.0,0.0,0.0,0.0,0.0,0.0,0.0,0.0,0.0,0.0,0.0,0.0,0.0,0.0,0.0,0.0,0.0,0.0,0.0,0.0,0.0,0.0,0.0,0.0,0.0,0.0,0.0,0.0,0.0,0.0,0.0,0.0,0.0,0.0,0.0,0.0,0.0,0.0,0.0,0.0,0.0,0.0,0.0,0.0,0.0,0.0,0.0,0.0,0.0,0.0,0.0,0.0,0.0,0.0,0.0,0.0,0.0,0.0,0.0,0.0,0.0,0.0,0.0,0.0,0.0,0.0,0.0,0.0,0.0,0.0,0.0,0.0,0.0,0.0,0.0,0.0,0.0,0.0,0.0,0.0,0.0,0.0,0.0,0.0,0.0,0.0,0.0,0.0,0.0,0.0,0.0,0.0,0.0,0.0,0.0,0.0,0.0,0.0,0.0,0.0,0.0,0.0,0.0,0.0,0.0,0.0,0.0,0.0,0.0,0.0,0.0,0.0,0.0,0.0,0.0,0.0,0.0,0.0,0.0,0.0,0.0,0.0,0.0,0.0,0.0,0.0,0.0,0.0,0.0,0.0,0.0,0.0,0.0,0.0,0.0,0.0,0.0,0.0,0.0,0.0,0.0,0.0,0.0,0.6523,0.0,0.0,0.0,0.0,0.0,0.0,0.0,0.0,0.0,0.0,0.0,0.0,0.0,0.0,0.0,0.0,0.0,0.0,0.0,0.0,0.0,0.0,0.0,0.0,0.0,0.0,0.0,0.0,0.0,0.0,0.0,0.0,0.0,0.0,0.0,0.0,0.0,0.0,0.0,2.4763,2.3748,2.2454,2.0925,1.9291,1.7527,0.0,0.0,0.0,0.0,0.0,0.0,0.0,0.0,0.0,0.0,0.0,0.0,0.0,0.0,0.0,0.0,0.0,0.0,0.0,0.0,0.0,0.0,0.0,0.0,0.0,0.0,0.0,0.0,0.0,0.0,0.0,0.0,0.0,0.0,0.0,0.0,0.0,0.0,0.0,0.0,0.0,0.0,0.0,0.0,0.0,0.0,0.0,0.0,0.0,0.0,0.0,0.0,0.0,0.0,0.0,0.0,0.0,0.0,0.0,0.0,0.0,0.0,0.0,0.0,0.0,0.0,0.0,0.0,0.0,0.0,0.0,0.6167,0.0,0.0,0.0,0.0,0.0,0.0,0.0,0.0,0.0,0.0,0.0,0.0,0.0,0.0,0.0,0.0,0.0,0.0,0.0,0.0,0.0,0.0,0.0,0.0,0.0,0.0,0.0,0.0,0.0,0.0,0.0,0.0,0.0,0.0,0.0,0.0,0.0,2.6345,2.5575,2.4599,2.3344,2.1861,2.0523,1.9272,1.8422,0.0,0.0,0.0,0.0,0.0,0.0,0.0,0.0,0.0,0.0,0.0,0.0,0.0,0.0,0.0,0.0,0.0,0.0,0.0,0.0,0.0,0.0,0.0,0.0,0.0,0.0,0.0,0.0,0.0,0.0,0.0,0.0,0.0,0.0,0.0,0.0,0.0,0.0,0.0,0.0,0.0,0.0,0.0,0.0,0.0,0.0,0.0,0.0,0.0,0.0,0.0,0.0,0.0,0.0,0.0,0.0,0.0,0.0,0.0,0.0,0.0,0.0,0.0,0.9185,0.9185,0.93,0.8997,0.8828,0.8671,0.7985,0.728,0.6524,0.0,0.0,0.0,0.0,0.0,0.0,0.0,0.0,0.0,0.0,0.0,0.0,0.0,0.0,0.0,0.0,0.0,0.0,0.0,0.0,0.0,0.0,0.0,0.0,0.0,0.0,0.0,0.0,0.0,0.0,0.0,0.0,0.0,0.0,2.9052,2.8191,2.7323,2.5473,2.4127,2.3309,2.2302,2.1572,2.0933,1.9591,1.8838,1.8464,0.0,0.0,0.0,0.0,0.0,0.0,0.0,0.0,0.0,0.0,0.0,0.0,0.0,0.0,0.0,0.0,0.0,0.0,0.0,0.0,0.0,0.0,0.0,0.0,0.0,0.0,0.0,0.0,0.0,0.0,0.0,0.0,0.0,0.0,0.0,0.0,0.0,0.0,0.0,0.0,0.0,1.6566,1.5358,0.0,0.0,0.0,0.0,0.0,0.0,0.0,0.0,0.0,0.0,0.0,0.0,0.0,0.0,0.988,0.9272,0.8942,0.8942,0.8942,0.8942,0.8942,0.8919,0.8912,0.8856,0.8765,0.0,0.7033,0.6189,0.0,0.0,0.0,0.0,0.0,0.0,0.0,0.0,0.0,0.0,0.0,0.0,0.0,0.0,0.0,0.0,0.0,0.0,0.0,0.0,0.0,0.0,0.0,0.0,0.0,0.0,0.0,0.0,0.0,0.0,0.0,3.0164,2.9247,2.8548,2.7731,2.6901,2.5848,2.5099,2.4568,2.3663,2.301,2.2605,2.1222,2.0068,1.9068,1.8508,0.0,0.0,0.0,0.0,0.0,0.0,0.0,0.0,0.0,0.0,0.0,0.0,0.0,0.0,0.0,0.0,0.0,0.0,0.0,0.0,0.0,0.0,0.0,0.0,0.0,0.0,0.0,0.0,0.0,0.0,0.0,0.0,0.0,0.0,0.0,0.0,0.0,0.0,0.0,1.7855,1.6917,1.61,1.496,1.3926,0.0,0.0,0.0,0.0,0.0,0.0,0.0,0.0,0.0,1.0578,1.0053,0.9816,0.9816,0.9293,0.9059,0.9059,0.9147,0.9188,0.9188,0.9188,0.9188,0.9184,0.9096,0.8775,0.8261,0.7287,0.6427,0.5652,0.0,0.0,0.0,0.0,0.0,0.2295,0.0,0.0,0.0,0.0,0.0,0.0,0.0,0.0,0.0,0.0,0.0,0.0,0.0,0.0,0.0,3.7405,0.0,0.0,0.0,0.0,0.0,0.0,0.0,3.01,2.9041,2.8324,2.7569,2.6684,2.6448,2.6052,2.5594,2.4662,2.4056,2.3709,2.2511,2.1151,1.9682,1.9218,1.8366,1.7244,0.0,0.0,0.0,0.0,0.0,0.0,0.0,0.0,0.0,0.0,0.0,0.0,0.0,0.0,0.0,0.0,0.0,0.0,0.0,0.0,0.0,0.0,0.0,0.0,0.0,0.0,0.0,0.0,0.0,0.0,0.0,0.0,0.0,0.0,0.0,0.0,0.0,1.7943,1.713,1.6572,1.5294,1.4181,0.0,0.0,0.0,0.0,0.0,0.0,1.029,1.0424,1.0542,1.0623,1.0178,0.989,0.988,0.9493,0.9284,0.9268,0.9327,0.9381,0.9381,0.9381,0.9361,0.9317,0.9258,0.9187,0.9089,0.8248,0.754,0.6821,0.5759,0.4923,0.4309,0.3752,0.3363,0.3018,0.0,0.0,0.0,0.0,0.0,0.0,0.0,0.0,0.0,0.0,0.0,0.0,0.0,0.0,3.85,3.7994,3.6943,3.6011,0.0,0.0,0.0,3.2295,3.1716,3.1107,3.0412,2.95,2.8511,2.7448,2.7055,2.6439,2.5573,2.4754,2.4223,2.3855,2.3029,2.1992,2.0843,1.9827,1.8826,1.7914,1.7274,0.0,0.0,0.0,0.0,0.0,0.0,0.0,0.0,0.0,0.0,0.0,0.0,0.0,0.0,0.0,0.0,0.0,0.0,0.0,0.0,0.0,0.0,0.0,0.0,0.0,0.0,0.0,0.0,0.0,0.0,0.0,0.0,0.0,0.0,0.0,0.0,0.0,0.0,1.6006,1.493,0.0,0.0,0.0,0.0,1.0802,1.0758,1.0533,0.9929,1.04,1.0607,1.0399,1.0334,1.0168,0.9998,0.9712,0.9507,0.9371,0.9378,0.9381,0.9381,0.9381,0.9361,0.9221,0.9214,0.9076,0.8895,0.883,0.8322,0.7482,0.6765,0.6042,0.526,0.4929,0.4424,0.3901,0.0,0.0,0.0,0.0,0.0,0.0,0.0,0.0,0.0,0.0,0.0,0.0,0.0,4.0028,3.9525,3.9186,3.8072,3.715,3.6565,0.0,0.0,3.2871,3.2267,3.1349,3.0093,2.9446,2.8745,2.7999,2.7663,2.7152,2.6496,2.5849,2.537,2.4969,2.4034,2.3244,2.2569,2.1109,1.9893,1.8827,1.8004,1.7228,0.0,0.0,0.0,0.0,0.0,0.0,0.0,0.0,0.0,0.0,0.0,0.0,0.0,0.0,0.0,0.0,0.0,0.0,0.0,0.0,0.0,0.0,0.0,0.0,0.0,0.0,0.0,0.0,0.0,0.0,0.0,0.0,0.0,0.0,0.0,0.0,0.0,1.6731,1.5647,0.0,1.387,1.316,1.2412,1.1462,1.1331,1.1041,1.0556,1.0745,1.0766,1.0599,1.039,1.0288,1.0183,0.9954,0.9809,0.9813,0.991,0.9957,0.9957,0.9957,0.9809,0.9577,0.9475,0.9293,0.9069,0.8977,0.8602,0.8149,0.7657,0.7099,0.6541,0.6156,0.5819,0.5406,0.0,0.0,0.0,0.0,0.0,0.0,0.0,0.0,0.0,0.0,0.0,4.1311,4.1059,4.0802,4.0563,4.0228,3.8932,3.7911,3.7334,0.0,0.0,3.3237,3.2485,3.1545,3.0297,2.987,2.9373,2.8803,2.8403,2.7947,2.743,2.6824,2.6324,2.5921,2.5004,2.442,2.3973,2.2603,2.1174,1.9817,1.8969,1.8124,1.732,0.0,0.0,0.0,0.0,0.0,0.0,0.0,0.0,0.0,0.0,0.0,0.0,0.0,0.0,0.0,0.0,0.0,0.0,0.0,0.0,0.0,0.0,0.0,0.0,0.0,0.0,0.0,0.0,0.0,0.0,0.0,0.0,0.0,0.0,0.0,1.7329,1.7239,1.6202,1.5267,1.4544,1.3898,1.3137,1.2169,1.1944,1.1672,1.1225,1.1027,1.0954,1.0852,1.0582,1.0394,1.0346,1.0235,1.0149,1.0091,1.0252,1.0301,1.0301,1.0301,1.0159,0.9874,0.9706,0.9462,0.9241,0.8977,0.8848,0.8691,0.8303,0.7931,0.7598,0.7268,0.6964,0.6576,0.0,0.0,0.0,0.0,0.0,0.0,0.0,0.0,0.0,0.0,4.2396,4.2154,4.1938,4.174,4.1475,4.1071,3.9439,3.8173,3.758,3.5717,0.0,3.3469,3.247,3.1749,3.1276,3.097,3.0539,2.9839,2.93,2.8794,2.832,2.7584,2.7061,2.6714,2.599,2.5418,2.5004,2.4217,2.2739,2.0867,2.0129,1.9188,1.8146,0.0,0.0,0.0,0.0,0.0,0.0,0.0,0.0,0.0,0.0,0.0,0.0,0.0,0.0,0.0,0.0,0.0,0.0,0.0,0.0,0.0,0.0,0.0,0.0,0.0,0.0,0.0,0.0,0.0,0.0,0.0,0.0,0.0,1.8182,1.7763,1.7382,1.7382,1.6436,1.5635,1.5146,1.4631,1.3905,1.2859,1.2724,1.2394,1.1753,1.135,1.1131,1.1072,1.0857,1.0611,1.051,1.051,1.0421,1.0286,1.0286,1.0286,1.0286,1.0286,1.0204,1.0002,0.9705,0.9559,0.9372,0.9037,0.8999,0.909,0.8698,0.853,0.8472,0.8143,0.7786,0.7263,0.0,0.0,0.0,0.0,0.0,0.0,0.0,0.0,0.0,0.0,4.2921,4.2694,4.2498,4.2338,4.2133,4.1831,4.0104,3.8868,3.847,0.0,0.0,3.4169,3.3375,3.2875,3.2648,3.2059,3.1507,3.097,3.0375,2.9842,2.9373,2.8693,2.8176,2.7829,2.725,2.671,2.6186,2.5697,2.4826,2.3672,2.1752,2.0564,1.9911,0.0,0.0,0.0,0.0,0.0,0.0,0.0,0.0,0.0,0.0,0.0,0.0,0.0,0.0,0.0,0.0,0.0,0.0,0.0,0.0,0.0,0.0,0.0,0.0,0.0,0.0,0.0,0.0,0.0,0.0,0.0,0.0,1.7344,1.7574,1.7428,1.7283,1.7108,1.6692,1.6109,1.5391,1.5398,1.5081,1.4229,1.4066,1.3692,1.2876,1.2186,1.1564,1.1126,1.0857,1.0661,1.0655,1.0655,1.0627,1.0616,1.0616,1.0616,1.0616,1.0616,1.0425,1.0208,0.9972,0.9725,0.946,0.9244,0.9224,0.9199,0.9033,0.8972,0.9037,0.8771,0.8318,0.774,0.0,0.0,0.0,0.0,0.0,0.0,0.0,0.0,0.0,0.0,4.3442,4.3303,4.3087,4.2959,4.2752,4.2418,4.1092,3.9916,3.9105,0.0,3.5532,3.4901,3.435,3.3953,3.37,3.3103,3.2594,3.2139,3.1563,3.0999,3.045,2.9858,2.9393,2.8998,2.8473,2.7986,2.7564,2.7103,2.6514,2.5789,2.4208,2.2799,2.1546,2.0906,2.0392,2.0016,1.9895,1.977,1.9653,1.973,0.0,0.0,0.0,0.0,0.0,0.0,0.0,0.0,0.0,0.0,0.0,0.0,0.0,0.0,0.0,0.0,0.0,0.0,0.0,0.0,0.0,0.0,0.0,0.0,1.7279,1.7279,1.7279,1.7279,1.7239,1.716,1.6918,1.6588,1.6109,1.6155,1.5931,1.522,1.49,1.4395,1.3541,1.2597,1.1803,1.1215,1.0844,1.0576,1.0469,1.0469,1.0509,1.0582,1.0505,1.0509,1.0582,1.0505,1.0415,0.0,0.9987,0.9781,0.9561,0.9365,0.9339,0.0,0.0,0.0,0.0,0.0,0.8706,0.8228,0.0,0.0,0.0,0.0,0.0,0.0,0.0,0.0,0.0,0.0,0.0,4.3862,4.3681,4.3543,4.33,4.2922,4.2122,4.0972,0.0,0.0,3.6041,3.5659,3.5311,3.4958,3.4585,3.4144,3.3742,3.3365,3.2756,3.2155,3.1563,3.113,3.0645,3.0149,2.9707,2.93,2.8949,2.8441,2.792,2.7384,2.701,2.5367,2.318,2.2955,2.2499,2.1964,2.2261,2.1998,2.1564,2.1919,0.0,0.0,0.0,0.0,0.0,0.0,0.0,0.0,0.0,0.0,0.0,0.0,0.0,0.0,0.0,0.0,0.0,0.0,0.0,0.0,0.0,0.0,0.0,0.0,1.7333,1.7326,1.7279,1.7279,1.7279,1.7279,1.716,1.7026,1.6979,1.6827,1.6461,1.596,1.5438,1.4784,1.401,0.0,0.0,0.0,0.0,1.0577,1.0316,1.0264,1.0298,1.04,1.0294,1.0249,1.0346,1.0237,1.0212,1.016,0.9879,0.9711,0.9711,0.9436,0.9389,0.9521,0.9368,0.9324,0.9253,0.9159,0.8951,0.0,0.0,0.0,0.0,0.0,0.0,0.0,0.0,0.0,0.0,4.431,4.427,4.4162,4.4033,4.3921,4.3761,4.3458,4.25,4.1035,0.0,3.7602,3.6799,3.6557,3.6122,3.5842,3.5776,3.5121,3.4625,3.4317,3.3793,3.3251,3.2676,3.2305,3.1845,3.1275,3.0955,3.0496,2.9922,2.969,2.9331,2.8839,2.846,2.6958,2.4992,2.479,2.4345,2.3847,2.3568,2.3519,2.3485,2.3076,2.3404,2.3867,2.3377,0.0,0.0,0.0,0.0,0.0,0.0,0.0,0.0,0.0,0.0,0.0,0.0,0.0,0.0,0.0,0.0,0.0,0.0,0.0,0.0,1.7714,1.7628,1.7527,1.7326,1.7279,1.7279,1.7279,1.7286,1.72,1.7026,1.7163,1.7099,1.6794,1.6292,1.5695,1.5127,1.3857,0.0,1.2385,1.1606,1.114,1.1088,1.0733,1.0542,1.0579,0.0,0.0,1.0213,1.0233,1.0212,1.0204,0.995,0.9835,0.9827,0.9636,0.956,0.9581,0.9568,0.9434,0.923,0.9195,0.903,0.877,0.0,0.0,0.0,0.0,0.0,0.0,0.0,0.0,0.0,0.0,4.443,4.4368,4.4306,4.4233,4.4113,4.3873,4.2423,0.0,3.9842,3.8366,3.7449,3.7204,3.6816,3.6557,3.6433,3.5972,3.5599,3.5334,3.4885,3.439,3.3887,3.3608,3.3151,3.2602,3.2317,3.1886,3.1346,3.113,3.0778,3.0332,3.0136,2.9219,2.7899,2.6845,2.6211,2.5867,2.5484,2.5301,2.5193,2.505,2.5104,2.5215,2.511,2.5132,2.5044,0.0,0.0,0.0,0.0,0.0,0.0,0.0,0.0,0.0,0.0,0.0,0.0,0.0,0.0,2.0529,0.0,0.0,1.9188,1.855,1.8458,1.8319,1.7932,1.78,1.7613,1.7326,1.7279,1.7239,1.7153,1.725,1.7249,1.701,1.6622,1.6168,1.5624,1.4623,1.3783,1.3253,1.2444,1.1893,1.1642,1.1299,1.1005,1.0848,1.0594,1.0501,1.0437,1.0344,1.0298,1.0289,1.0196,1.0054,0.9946,0.971,0.9579,0.9579,0.9579,0.9529,0.9381,0.9381,0.9232,0.8981,0.0,0.0,0.0,0.0,0.0,0.0,0.0,0.0,0.0,0.0,4.4501,4.4501,4.4501,4.444,4.4335,0.0,0.0,4.1084,4.0985,3.9175,3.8001,3.7775,3.743,3.7185,3.7031,3.6698,3.6437,3.6266,3.5851,3.5436,3.5018,3.4783,3.4423,3.3912,3.3659,3.3297,3.2806,3.2563,3.2219,3.1814,3.1773,3.1461,3.0852,2.9219,2.8295,2.7828,2.7511,2.7118,2.6833,2.7028,2.6785,2.6528,2.6822,2.6754,2.6433,2.5842,2.5481,0.0,0.0,0.0,0.0,0.0,0.0,0.0,0.0,0.0,2.2925,2.2236,2.2059,2.1704,2.0862,2.0645,2.0374,1.9683,1.9455,1.9234,1.8765,1.845,1.8087,1.7606,1.7419,1.7279,1.7279,1.7279,1.7239,1.7066,1.6831,1.6447,1.5967,1.5289,1.4711,1.419,1.3457,1.2877,1.2441,1.2111,1.1771,1.1399,1.1175,1.1036,1.0851,1.0731,1.056,1.0462,1.0408,1.0265,1.0068,0.9826,0.9776,0.9776,0.9776,0.9776,0.9723,0.9628,0.948,0.9278,0.0,0.0,0.0,0.0,0.0,0.0,0.0,0.0,0.0,0.0,0.0,0.0,0.0,0.0,0.0,0.0,4.2579,4.1449,4.1277,3.9483,3.8396,3.8318,3.7984,3.7811,3.7793,3.728,3.6937,3.6801,3.6478,3.6105,3.5781,3.5737,3.5493,3.4995,3.4878,3.4503,3.3996,3.3846,3.3617,3.3334,3.3087,3.2971,3.2821,3.2066,3.0852,2.9504,2.9146,2.8894,2.862,2.8203,2.8245,2.841,2.8118,2.7967,2.7767,2.726,0.0,2.5862,2.5312,2.477,2.4388,2.4671,2.4733,2.469,0.0,0.0,2.4196,2.3667,2.3222,2.2775,2.2271,2.1828,2.1382,2.0872,2.0447,2.0011,1.9446,1.8996,1.8635,1.8404,1.7746,1.7279,1.7279,1.7279,1.7286,1.7286,1.7066,1.6831,1.6541,1.5967,1.5534,1.5242,1.4758,1.4328,1.4052,1.3565,1.3039,1.2527,1.2257,1.1922,1.1477,1.1502,1.1194,1.0752,1.0507,1.0359,1.0364,1.0314,1.0314,1.0314,1.0314,1.0314,1.0265,0.9776,0.9579,0.9554,0.0,0.0,0.0,0.0,0.0,0.0,0.0,0.0,0.0,0.0,0.0,0.0,0.0,0.0,0.0,4.4416,4.3306,4.2529,4.241,4.064,3.9538,3.9409,3.8684,3.8269,3.8188,3.7932,3.7721,3.7596,3.7302,3.7017,3.6764,3.6661,3.6395,3.6002,3.5856,3.5593,3.5186,3.5054,3.4797,3.4503,3.4325,3.4119,3.3869,3.3572,3.2844,3.1868,3.0778,3.0256,0.0,0.0,2.9245,2.921,2.8937,2.8913,2.8868,2.8285,2.7805,0.0,2.6107,2.5469,0.0,0.0,2.5117,2.4985,2.4914,2.4903,2.4818,2.4519,2.4262,2.395,2.3343,2.3028,2.2721,0.0,2.1891,2.1535,2.0889,2.0221,1.9683,1.9126,1.8434,1.7939,1.78,1.7753,1.7753,1.7753,1.7535,1.7347,1.7254,1.6784,1.6454,1.6353,1.5859,1.5432,1.5159,1.4813,1.4376,1.3836,1.3607,1.327,1.2937,1.2791,1.2408,1.1932,1.134,1.0998,1.085,1.0511,1.0413,1.04,1.029,1.025,1.0202,0.9959,0.9915,0.9885,0.0,0.0,0.0,0.0,0.0,0.0,0.0,0.0,0.0,0.0,0.0,0.0,0.0,0.0,0.0,4.4551,4.3831,4.3329,4.3275,4.1753,4.0686,4.0308,3.9516,3.8912,3.8603,3.8462,3.835,3.8234,3.8,3.7792,3.7578,3.7431,3.7169,3.6843,3.6746,3.6525,3.6211,3.6126,3.5895,3.5627,3.5464,3.5174,3.4847,3.4682,3.435,3.3786,3.2275,3.1563,3.1233,3.0704,3.0329,3.0023,2.9825,2.9792,2.9693,2.9083,2.8573,2.7903,2.6686,0.0,0.0,2.5503,2.5307,2.5187,2.5319,2.526,2.5167,2.5179,2.5073,2.4818,2.4262,2.4133,2.3917,2.344,2.3266,2.295,2.2271,2.1561,2.0844,2.0121,1.9401,1.8912,1.8643,1.8319,1.8087,1.8087,1.79,1.7815,1.7815,1.7488,1.7301,1.7301,1.6911,1.6622,1.6353,1.6109,1.5812,1.5324,1.5057,1.4765,1.4424,1.395,1.3474,1.305,1.2311,1.1873,1.1634,1.1132,1.0914,1.0798,1.0596,1.0428,1.0324,1.0274,1.0146,0.9974,0.0,0.0,0.0,0.0,0.0,0.0,0.0,0.0,0.0,0.0,0.0,0.0,0.0,0.0,4.4619,4.4699,4.3957,4.3485,4.3485,4.2509,4.1586,4.081,4.0439,3.9881,3.9106,3.8822,3.864,3.8585,3.8446,3.8285,3.8085,3.8018,3.7792,3.7469,3.7469,3.732,3.7052,3.7052,3.6935,3.6736,3.6457,3.6228,3.5989,3.5543,3.5201,3.4793,3.3572,3.2879,3.2477,3.2005,3.1581,3.1219,3.0999,3.0657,0.0,2.9639,2.8565,2.7406,2.6926,0.0,2.592,2.5643,2.5422,2.5363,2.5732,2.5418,2.5265,2.5755,2.5506,2.52,2.5158,2.4988,2.4861,2.4818,2.4466,2.3983,2.3497,2.2799,2.2094,2.1445,2.069,2.0155,0.0,1.8773,1.8087,1.8087,1.8087,1.8087,1.8087,1.8087,1.8087,1.8087,1.804,1.79,1.7628,1.7628,1.7387,1.6951,1.6676,1.6237,1.5704,1.4717,1.4148,1.3854,1.327,1.2937,1.2743,1.2469,1.2189,1.1926,1.1683,1.1267,1.0828,1.0674,1.0277,0.9769,0.0,0.0,0.0,0.0,0.0,0.0,0.0,0.0,0.0,0.0,0.0,0.0,0.0,0.0,0.0,0.0,4.4486,4.4386,4.4436,4.3617,4.3006,4.2735,4.1524,4.0691,4.0372,3.9664,3.9261,3.9213,3.9064,3.8909,3.8748,3.8688,3.8504,3.8231,3.8231,3.8066,3.7756,3.7721,3.7523,3.7246,3.6976,3.6739,3.6533,3.6135,3.5805,3.5447,0.0,3.407,3.3188,3.268,3.2284,3.1979,3.1581,3.135,3.1073,3.0359,2.947,2.856,2.7901,0.0,2.6582,2.6421,2.6076,2.5808,2.6028,2.5727,2.5571,2.5968,2.5784,2.5626,2.5663,2.5591,2.5464,2.5158,2.4978,2.4765,2.4466,2.38,2.3139,2.257,2.1659,0.0,0.0,0.0,0.0,1.8819,1.8558,1.8381,1.8381,1.8187,1.8087,1.8087,1.8087,1.804,1.7955,1.7955,1.79,1.7707,1.7481,1.7145,1.6756,1.6103,1.5676,1.5371,1.4471,1.3973,1.3667,1.3223,1.2888,1.2647,1.2434,1.2025,1.16,1.1191,1.0885,1.0499,0.0,0.0,0.0,0.0,0.0,0.0,0.0,0.0,0.0,0.0,0.0,0.0,0.0,0.0,0.0,0.0,0.0,4.4895,4.4955,4.4486,4.4068,4.3783,4.2682,4.1908,4.1575,4.0643,4.0151,4.0108,3.9682,3.9427,3.9311,3.9192,3.9041,3.8836,3.8811,3.8612,3.8328,3.8251,3.805,3.7791,3.7559,3.7338,3.7091,3.6756,3.6388,0.0,3.57,3.4988,3.4161,3.3527,3.3124,3.2749,3.2312,3.2007,3.1682,3.0984,3.0343,2.9656,2.8876,2.8136,2.7516,2.7198,2.6729,2.6345,2.6479,2.6176,2.5925,2.6189,2.6126,2.5992,2.5991,2.6077,2.6063,2.5748,2.5622,2.5506,2.5295,2.4712,2.4145,2.3661,2.2755,2.1971,0.0,0.0,0.0,1.9234,1.8835,1.8612,1.8612,1.8465,1.8365,1.8365,1.8365,1.8365,1.8365,1.8365,1.8319,1.8234,1.8055,1.7861,1.7559,1.703,1.6693,1.6339,1.5482,1.4891,1.463,1.4116,1.383,1.3588,1.3311,1.2859,1.2325,1.1942,1.1585,1.1154,0.0,0.0,0.0,0.0,0.0,0.0,0.0,0.0,0.0,0.0,0.0,0.0,0.0,0.0,0.0,0.0,0.0,0.0,4.5103,4.5114,4.4771,4.4002,4.3881,4.3463,4.269,4.1759,4.1301,4.1292,4.0385,3.9917,3.986,3.967,3.9532,3.9449,3.9322,3.9138,3.8929,3.8802,3.8651,3.8526,3.8312,3.8075,3.7811,3.7482,3.7081,3.6626,3.6152,3.5761,3.5316,3.4578,3.4018,3.3553,3.3161,3.2574,3.1953,3.1481,3.1117,3.0644,2.9827,2.9219,2.868,2.7992,2.7398,2.7028,2.7135,2.6742,2.6396,2.6506,2.648,2.633,0.0,0.0,2.661,2.6592,2.6396,2.6146,2.5948,2.5549,2.5062,0.0,0.0,0.0,0.0,0.0,0.0,1.9455,0.0,1.8874,1.8874,1.8874,1.8827,1.8827,1.8827,1.8827,1.8827,1.8827,1.8689,1.8504,1.8504,1.8342,1.8072,1.7477,1.71,1.6799,1.6217,1.5807,1.555,1.5287,1.5074,1.4831,1.4374,1.3747,1.3057,1.2863,1.24,1.1714,0.0,0.0,0.0,0.0,0.0,0.0,0.0,0.0,0.0,0.0,0.0,0.0,0.0,0.0,0.0,0.0,0.0,0.0,4.517,4.517,4.5115,4.4949,4.435,4.3931,4.3712,4.29,4.2441,4.2393,4.2154,4.2008,4.1935,4.1874,4.1775,4.1607,4.1462,4.1276,4.1017,4.0725,4.0528,4.0386,4.0155,3.9947,3.9752,3.9478,3.8764,3.7899,3.7474,3.6711,3.5793,3.5008,3.4382,3.3933,3.3626,3.315,3.2668,3.2244,3.1737,3.1219,3.0733,3.0178,2.9611,2.9345,2.8844,2.8422,2.8179,2.7667,2.7169,2.7046,2.6651,2.6431,0.0,0.0,0.0,2.6794,2.6644,0.0,2.6437,2.6166,0.0,2.5591,0.0,2.4231,2.3627,2.2833,0.0,0.0,2.0456,1.9837,1.9608,1.9608,1.9571,1.9396,1.9396,1.9296,1.9096,1.892,1.8654,1.8348,1.8348,1.8161,1.7856,1.7645,1.7526,1.7458,1.7023,1.6826,1.676,1.6415,1.6186,1.5971,1.5839,1.524,1.4372,1.412,1.3811,1.3366,0.0,0.0,0.0,0.0,0.0,0.0,0.0,0.0,0.0,0.0,0.0,0.0,0.0,0.0,0.0,0.0,0.0,0.0,0.0,4.5235,4.5265,4.5297,4.4869,4.4642,4.4662,4.3876,4.3482,4.3462,4.3079,4.287,4.2833,4.2776,4.2677,4.2572,4.2375,4.2159,4.1919,4.1582,4.1326,0.0,0.0,4.0808,4.0686,4.0492,3.9894,3.9103,3.871,3.7704,0.0,0.0,0.0,3.4374,3.4,3.361,3.3203,3.2656,0.0,3.1794,3.1335,3.0896,3.0524,3.0282,2.9886,2.9501,2.9156,2.8602,2.8046,2.7652,2.7148,0.0,2.7239,0.0,0.0,0.0,0.0,0.0,2.6869,2.658,2.6332,0.0,2.5737,0.0,2.4787,2.4039,2.3477,0.0,2.1641,2.0637,2.0419,2.0201,1.9973,1.9762,1.9633,1.9459,1.9142,1.8961,1.8685,1.833,1.833,1.8269,1.8067,1.7879,1.7779,1.7755,0.0,1.7282,1.7266,1.7064,1.6935,1.6812,1.6722,1.6296,1.5647,1.5433,1.5108,1.4706,0.0,0.0,0.0,0.0,0.0,0.0,0.0,0.0,0.0,0.0,0.0,0.0,0.0,0.0,0.0,0.0,0.0,0.0,0.0,0.0,0.0,4.5275,4.5286,4.5319,4.5371,4.471,4.4374,4.4444,4.3698,4.3316,4.3316,4.3196,4.3149,4.3119,4.2859,4.2621,4.2415,4.2048,4.1816,4.1609,4.147,4.1374,4.1325,0.0,0.0,0.0,3.9696,3.8475,0.0,0.0,3.5411,3.4899,3.4374,3.4025,3.3668,3.2926,3.2602,3.2327,3.1766,3.1509,3.1292,3.1014,3.0687,3.0342,3.0007,2.9532,2.8985,2.8293,0.0,2.7589,2.7824,2.7614,2.761,2.8231,0.0,2.7348,2.7348,2.6992,2.6715,2.6674,2.6456,2.6196,2.5977,2.5337,2.4914,2.4712,2.2911,2.1686,2.1302,2.0862,2.0464,2.011,1.9803,1.9438,1.9107,1.8968,1.871,1.8339,1.8339,1.8314,1.8257,1.8003,1.7862,1.7846,0.0,0.0,1.7473,1.7514,1.7514,1.7514,1.7343,1.7139,1.6935,1.673,1.6386,1.5959,0.0,0.0,0.0,0.0,0.0,0.0,0.0,0.0,0.0,0.0,4.8225,4.7329,0.0,0.0,0.0,0.0,0.0,0.0,0.0,0.0,0.0,0.0,4.5181,4.5224,4.5227,4.5154,4.5129,4.5218,4.5055,4.4968,4.4968,4.4958,4.4898,4.4764,4.4554,4.4348,4.4146,4.3744,4.3503,4.3344,4.3143,4.3075,4.3058,0.0,0.0,0.0,3.9591,0.0,3.7197,3.6741,3.6066,3.5314,3.4899,3.457,3.4226,3.3539,3.3033,3.2668,3.2327,3.1966,3.1698,3.1641,3.138,3.1043,3.0687,3.0342,0.0,0.0,2.8498,2.8271,2.8615,2.8257,2.8089,2.8854,2.8578,2.8219,0.0,0.0,2.7278,0.0,0.0,0.0,0.0,0.0,0.0,0.0,0.0,0.0,2.279,2.2492,2.198,2.1167,2.0207,1.9645,1.9577,1.8879,1.8331,1.7993,1.7993,1.7829,1.7573,1.7712,1.7711,1.7751,0.0,0.0,1.7919,1.8161,1.8241,1.8241,1.8193,1.8161,1.817,1.814,1.7929,1.7563,0.0,0.0,0.0,0.0,0.0,0.0,0.0,4.8587,4.8587,4.8587,4.8398,4.7715,4.6364,4.5898,4.5378,0.0,0.0,0.0,0.0,0.0,0.0,0.0,0.0,0.0,0.0,4.5125,0.0,0.0,0.0,0.0,0.0,0.0,0.0,0.0,0.0,4.4661,4.4412,4.4097,4.3849,4.3667,4.3549,4.3515,0.0,0.0,0.0,0.0,0.0,0.0,3.8322,3.7165,3.6529,3.6043,3.5338,3.4923,3.457,3.3899,3.3445,3.3033,3.2547,3.2274,3.2066,3.1841,3.167,3.1482,3.1146,0.0,0.0,0.0,2.9198,2.8926,2.964,2.9151,0.0,2.9885,2.9419,2.8882,0.0,0.0,0.0,0.0,0.0,0.0,0.0,0.0,0.0,0.0,0.0,0.0,2.4049,2.3097,2.2342,2.1795,2.0773,2.0123,1.9978,1.9454,1.8924,1.8469,1.8469,1.8333,1.8089,1.8161,1.8241,1.8241,1.8322,0.0,1.8371,1.8482,1.8571,1.8571,1.8571,1.8571,1.858,1.8607,1.8558,1.85,0.0,0.0,0.0,0.0,0.0,0.0,0.0,4.8229,4.8229,4.8229,4.8229,4.7831,4.6766,4.6017,4.5301,0.0,0.0,0.0,0.0,0.0,0.0,0.0,0.0,0.0,0.0,0.0,0.0,0.0,0.0,0.0,0.0,0.0,0.0,0.0,0.0,0.0,0.0,4.3974,4.3767,0.0,0.0,0.0,0.0,0.0,0.0,0.0,0.0,0.0,0.0,0.0,3.6931,3.6614,3.5664,3.5182,3.4875,3.425,3.3848,3.3435,3.2807,3.2535,3.2315,3.1968,3.1841,3.1698,3.138,3.1117,0.0,3.0447,2.9837,2.965,3.0606,3.011,2.9922,0.0,3.0406,2.9716,2.9471,0.0,0.0,0.0,0.0,0.0,0.0,0.0,0.0,0.0,0.0,0.0,2.4946,2.3479,2.2567,2.2324,2.1396,2.0778,2.0476,2.0158,1.9712,1.9271,1.9222,1.9112,1.8962,1.8922,1.8882,1.8882,1.8851,0.0,0.0,1.886,1.89,1.89,1.89,1.894,1.8931,1.8891,1.9011,1.9152,0.0,0.0,0.0,0.0,0.0,0.0,0.0,4.8032,4.8032,4.8032,4.8032,4.7703,4.6866,4.6287,4.5653,0.0,0.0,0.0,0.0,0.0,0.0,0.0,0.0,0.0,0.0,0.0,0.0,0.0,0.0,0.0,0.0,0.0,0.0,0.0,0.0,0.0,0.0,0.0,0.0,0.0,0.0,0.0,0.0,0.0,0.0,0.0,0.0,0.0,0.0,0.0,0.0,3.6654,3.5814,3.5435,3.5175,3.4739,0.0,0.0,3.3461,3.2915,3.237,3.2191,3.1968,3.1698,3.138,0.0,3.1131,3.0657,3.0357,3.0423,3.1171,3.0995,3.1021,3.1852,3.1455,3.0884,3.0532,0.0,0.0,0.0,0.0,0.0,0.0,0.0,0.0,0.0,0.0,0.0,0.0,2.4104,2.3366,2.2951,2.209,2.1521,2.1381,2.0564,2.0127,2.0089,1.9913,1.9825,1.9786,1.9599,1.9529,1.9529,0.0,0.0,0.0,1.9457,1.9536,1.9524,1.9536,1.9636,1.9784,1.9597,1.9636,1.9824,0.0,0.0,0.0,0.0,0.0,0.0,4.7824,4.7806,4.7806,4.7806,4.7806,4.7697,4.7389,4.6708,4.5862,4.4764,0.0,0.0,0.0,0.0,0.0,0.0,0.0,0.0,0.0,0.0,0.0,4.3949,0.0,0.0,0.0,0.0,0.0,0.0,0.0,0.0,0.0,0.0,0.0,0.0,0.0,0.0,0.0,0.0,0.0,0.0,0.0,0.0,0.0,0.0,0.0,0.0,3.5988,3.5532,0.0,0.0,3.4683,3.4275,3.3745,3.3277,3.285,3.2425,3.2122,3.1855,3.1655,0.0,3.1219,3.0955,3.0672,3.0776,3.1707,3.1608,3.175,3.2821,3.2381,0.0,3.1392,0.0,0.0,0.0,0.0,0.0,0.0,0.0,0.0,0.0,0.0,0.0,0.0,2.4415,2.3811,2.3606,2.2748,2.2265,2.2199,2.1755,2.1471,2.1336,2.1145,2.0991,2.0875,2.0653,2.0576,2.0537,0.0,0.0,0.0,2.0264,2.0264,2.0342,2.0117,2.0069,2.0108,1.9872,1.9942,2.0147,0.0,0.0,0.0,0.0,0.0,4.7551,4.7593,4.7593,4.7593,4.7593,4.7593,4.7593,4.7593,4.7087,4.6246,4.5049,4.4599,0.0,0.0,0.0,0.0,0.0,0.0,0.0,0.0,0.0,4.346,4.346,4.3546,4.3546,0.0,0.0,0.0,0.0,0.0,0.0,0.0,0.0,0.0,0.0,0.0,0.0,0.0,0.0,0.0,0.0,0.0,0.0,0.0,0.0,0.0,0.0,0.0,3.5695,3.5481,0.0,3.4994,3.4643,3.4101,3.3633,3.316,3.2645,3.2274,3.1968,0.0,0.0,3.1322,3.119,3.0955,3.1065,3.2171,3.2065,3.225,3.3531,3.3192,3.2596,3.2209,3.1576,0.0,0.0,0.0,0.0,0.0,0.0,0.0,0.0,0.0,0.0,0.0,2.4605,2.4206,2.4168,2.356,2.3187,2.315,2.2927,2.2767,2.2633,2.2446,2.2258,2.2107,2.1918,2.1776,2.1738,0.0,0.0,0.0,2.1252,2.1165,2.1221,2.0944,2.0809,2.0731,2.0527,2.0566,2.0712,0.0,0.0,0.0,0.0,0.0,0.0,4.728,4.7302,4.7302,4.7302,4.7302,4.7302,4.7302,4.7302,4.6934,4.6054,4.4838,0.0,0.0,0.0,0.0,0.0,0.0,0.0,0.0,0.0,4.2901,4.2901,4.2901,4.2901,4.2901,4.2901,0.0,0.0,0.0,0.0,0.0,0.0,0.0,0.0,0.0,0.0,0.0,0.0,0.0,0.0,0.0,0.0,0.0,0.0,0.0,0.0,0.0,3.5894,3.5331,3.5469,3.5222,3.4851,3.457,3.3899,3.3214,3.2884,3.2398,3.1968,0.0,3.1641,3.1467,3.1322,3.1176,3.1411,3.2503,3.242,3.2594,3.3892,3.3799,0.0,3.3058,0.0,0.0,0.0,0.0,0.0,0.0,0.0,0.0,0.0,0.0,0.0,0.0,2.4801,2.4693,2.4502,2.4502,2.4381,2.42,2.397,2.3897,2.3897,2.3677,2.3593,2.3556,2.3372,2.315,0.0,0.0,0.0,0.0,2.2375,2.2274,2.2087,2.2069,2.1949,2.1769,2.1769,2.1769,2.1697,0.0,0.0,0.0,0.0,0.0,0.0,0.0,4.6893,4.6962,4.6962,4.7048,4.7093,4.7093,4.7007,4.685,4.6555,4.5835,0.0,0.0,0.0,0.0,0.0,0.0,0.0,0.0,0.0,4.2216,4.2216,4.2259,4.2218,4.2074,4.2175,4.2095,4.1871,0.0,0.0,0.0,0.0,0.0,0.0,0.0,0.0,0.0,0.0,0.0,0.0,0.0,0.0,0.0,0.0,0.0,0.0,0.0,0.0,0.0,3.5337,3.5198,0.0,3.4594,3.405,3.3435,3.2819,3.2315,3.1968,3.1841,3.1641,3.1467,3.1322,3.1176,3.1441,3.2503,3.253,3.2836,3.4095,3.4108,0.0,0.0,0.0,0.0,0.0,0.0,0.0,0.0,0.0,0.0,0.0,0.0,0.0,0.0,2.556,2.5277,2.4718,2.4718,2.4682,2.461,2.4538,2.4538,2.449,2.4309,2.4236,2.42,2.4007,0.0,0.0,0.0,0.0,0.0,2.3694,2.3537,2.3514,2.3169,2.2968,2.2771,2.2278,2.2013,2.1802,0.0,0.0,0.0,0.0,0.0,0.0,0.0,4.6266,4.6339,4.6405,4.6495,4.6542,4.6542,4.6387,4.6291,4.6259,4.5899,0.0,0.0,0.0,0.0,0.0,0.0,0.0,4.149,4.1472,4.1472,4.1472,4.1539,4.1477,4.1361,4.1468,4.1383,4.1168,4.1168,0.0,0.0,0.0,0.0,0.0,0.0,0.0,4.0188,0.0,0.0,0.0,0.0,0.0,0.0,0.0,0.0,0.0,0.0,0.0,0.0,0.0,3.5088,3.4899,3.457,3.4075,3.3487,3.283,3.2342,3.1968,3.1841,3.1641,3.1467,3.138,3.1249,3.1441,3.2597,3.2625,3.2933,3.4196,3.4312,3.4128,0.0,0.0,0.0,0.0,0.0,0.0,0.0,0.0,0.0,0.0,0.0,0.0,0.0,0.0,2.5968,2.5407,2.5206,2.5064,2.4992,2.5064,2.5099,2.5099,2.5064,2.5028,2.5028,2.4909,0.0,0.0,0.0,0.0,0.0,2.4671,2.4423,2.4177,2.3869,2.3562,2.3178,2.2709,2.2481,2.2262,0.0,0.0,0.0,0.0,0.0,0.0,0.0,4.5433,4.5528,4.5692,4.5735,4.5735,4.5735,4.5554,4.5425,4.5345,0.0,0.0,0.0,0.0,0.0,0.0,0.0,0.0,4.0754,4.0754,4.0731,4.0731,4.0731,4.0731,4.0707,4.0707,4.0618,4.0504,4.0504,4.0449,0.0,0.0,0.0,0.0,0.0,0.0,0.0,0.0,0.0,0.0,0.0,0.0,0.0,0.0,0.0,0.0,0.0,0.0,0.0,0.0,0.0,0.0,0.0,3.4,3.3382,3.2911,3.2398,3.1968,3.1813,3.1626,0.0,3.1526,3.1352,3.1544,3.281,3.2808,3.2959,3.4211,3.4414,0.0,0.0,0.0,0.0,0.0,0.0,0.0,0.0,0.0,0.0,0.0,0.0,0.0,0.0,0.0,2.6679,2.6449,2.5978,2.5641,2.5382,2.5535,2.5606,2.5606,2.5793,2.591,2.591,2.591,0.0,0.0,0.0,0.0,0.0,2.5321,2.4868,2.4241,2.4241,2.3819,2.3181,2.3146,2.3122,2.3018,0.0,0.0,0.0,0.0,0.0,0.0,0.0,0.0,0.0,0.0,4.5045,4.5125,4.5125,4.4991,4.4882,0.0,0.0,0.0,0.0,0.0,0.0,0.0,0.0,0.0,4.0271,4.0254,4.0204,4.0096,4.0096,3.9978,3.9714,3.9714,3.9662,3.9516,3.9516,3.9506,0.0,0.0,0.0,0.0,0.0,0.0,0.0,0.0,0.0,0.0,3.9405,3.9405,0.0,0.0,0.0,0.0,0.0,0.0,0.0,0.0,3.4828,3.4643,3.4423,0.0,3.3356,3.2792,3.2315,3.194,0.0,3.1539,3.1616,3.1961,3.1885,3.2147,3.3331,3.3386,3.3499,3.4283,3.4414,3.438,0.0,0.0,0.0,0.0,0.0,0.0,0.0,0.0,0.0,0.0,0.0,0.0,0.0,0.0,2.7464,2.7027,2.7048,2.671,2.5978,2.5898,2.584,2.584,2.5875,2.591,2.591,2.591,0.0,0.0,0.0,0.0,2.5741,2.5446,2.5064,2.4669,2.4669,2.4353,2.3919,2.3648,2.3457,2.3276,0.0,0.0,0.0,0.0,0.0,0.0,0.0,0.0,0.0,0.0,0.0,0.0,0.0,0.0,0.0,0.0,0.0,0.0,0.0,0.0,0.0,0.0,0.0,4.0475,4.0021,3.9671,3.9451,3.9292,3.9292,3.9115,3.8799,3.8799,3.8728,3.859,3.859,3.859,0.0,0.0,0.0,0.0,3.8914,0.0,0.0,0.0,0.0,0.0,3.9148,3.9202,0.0,3.9299,3.8311,3.7102,0.0,0.0,0.0,0.0,3.4804,3.4667,3.4521,3.4101,3.3539,3.2985,3.2535,3.2191,3.1811,3.1909,3.2078,3.2184,3.2328,3.272,3.3545,3.3587,3.3707,3.4312,3.4414,0.0,0.0,0.0,0.0,0.0,0.0,0.0,0.0,0.0,0.0,0.0,0.0,0.0,0.0,0.0,2.8449,2.8091,2.798,2.7464,2.644,2.6405,2.6349,2.628,2.628,2.6155,2.5906,2.5906,0.0,0.0,0.0,0.0,2.5613,2.539,2.5027,2.4621,2.4621,2.4331,2.3898,2.3734,2.359,2.3478,0.0,0.0,0.0,0.0,0.0,0.0,0.0,0.0,0.0,0.0,0.0,0.0,0.0,0.0,0.0,0.0,0.0,0.0,0.0,0.0,0.0,0.0,4.105,4.0115,3.9789,3.914,3.8681,3.8427,3.8427,3.8258,3.7927,3.7927,3.787,3.7754,3.7754,3.7754,0.0,0.0,3.7927,0.0,3.8286,0.0,0.0,0.0,0.0,0.0,0.0,0.0,0.0,3.9245,3.8295,3.7102,3.7102,0.0,0.0,0.0,0.0,0.0,3.4707,3.4374,3.3873,3.3319,3.2904,3.2578,3.23,3.2544,3.2749,0.0,0.0,3.3343,3.3783,3.3766,0.0,0.0,0.0,0.0,0.0,0.0,0.0,0.0,0.0,0.0,0.0,0.0,0.0,0.0,0.0,0.0,0.0,0.0,0.0,2.9289,2.8944,2.8201,2.7033,2.7124,2.7002,2.6722,2.6722,2.6429,2.5861,2.5861,0.0,0.0,0.0,0.0,2.5261,2.5202,2.4849,2.4333,2.4333,2.4051,2.3599,2.3628,2.3658,2.3658,0.0,0.0,0.0,0.0,0.0,0.0,0.0,0.0,0.0,0.0,0.0,0.0,0.0,0.0,0.0,0.0,0.0,0.0,0.0,0.0,0.0,4.1933,4.1399,4.0554,3.9331,3.9023,3.8478,3.7578,3.7578,3.7401,3.7071,3.7071,3.7071,3.7041,3.7041,3.7041,3.7041,3.7087,3.7071,3.7101,3.746,0.0,0.0,0.0,0.0,0.0,0.0,0.0,0.0,3.9067,3.819,3.7102,3.7102,0.0,0.0,0.0,0.0,0.0,3.4715,3.4643,3.4423,3.3771,3.3208,3.2878,3.3349,3.3282,3.3404,0.0,0.0,0.0,0.0,3.4603,3.448,0.0,0.0,0.0,0.0,0.0,0.0,0.0,0.0,0.0,0.0,0.0,0.0,0.0,0.0,0.0,0.0,0.0,0.0,3.0113,3.0068,2.9539,2.8488,2.805,2.7525,2.6856,2.6856,2.6491,2.5727,2.5727,2.5675,0.0,0.0,2.5144,2.5105,2.481,2.4484,2.4155,2.4155,2.3913,2.3628,2.3789,2.3861,2.3861,0.0,0.0,0.0,0.0,0.0,0.0,0.0,0.0,0.0,0.0,0.0,0.0,0.0,0.0,0.0,0.0,0.0,0.0,0.0,0.0,4.1307,4.1109,4.0678,4.0186,3.9645,3.9031,3.831,3.7405,3.7297,3.6894,3.6259,3.6118,3.6087,3.6087,3.6087,3.6087,3.6087,3.6196,3.6259,3.629,0.0,0.0,0.0,0.0,0.0,0.0,0.0,0.0,0.0,0.0,3.8058,3.7001,3.7077,0.0,0.0,0.0,0.0,0.0,3.4811,3.4756,3.4717,3.4814,3.441,3.4138,3.4605,3.4678,3.4779,0.0,0.0,0.0,0.0,0.0,0.0,0.0,0.0,0.0,0.0,0.0,0.0,0.0,0.0,0.0,0.0,0.0,0.0,0.0,0.0,0.0,0.0,0.0,0.0,0.0,3.0293,2.9827,2.9333,2.8667,2.7939,2.7176,2.7004,2.6559,2.5922,2.5788,2.5598,2.5322,0.0,2.5052,2.5025,2.4746,2.4553,2.4421,2.431,2.4097,2.3894,2.4092,2.4173,2.42,0.0,0.0,0.0,0.0,0.0,0.0,0.0,0.0,0.0,0.0,0.0,0.0,0.0,0.0,0.0,0.0,0.0,0.0,0.0,0.0,4.0439,4.0235,3.9809,3.9596,3.966,3.8921,3.8065,3.7109,3.6932,3.6403,3.5494,3.535,3.527,3.527,3.527,3.527,3.5285,3.5462,3.5527,3.5527,0.0,0.0,0.0,0.0,0.0,0.0,0.0,0.0,0.0,0.0,0.0,0.0,0.0,0.0,0.0,3.4901,3.4875,3.4899,3.4899,3.4943,3.5184,3.5927,3.5582,3.5255,3.5865,3.6052,3.6101,0.0,0.0,0.0,0.0,0.0,0.0,0.0,0.0,0.0,0.0,0.0,0.0,0.0,0.0,0.0,0.0,0.0,0.0,0.0,0.0,0.0,0.0,0.0,0.0,0.0,3.0188,2.9676,2.9529,2.8877,2.8181,2.7408,2.7145,2.671,2.6158,2.5988,2.5684,2.5258,2.5258,2.523,2.5202,2.5036,2.4938,2.4839,2.4728,2.456,2.4376,2.4338,2.4338,2.4308,0.0,0.0,0.0,0.0,0.0,0.0,0.0,0.0,0.0,0.0,0.0,0.0,0.0,0.0,0.0,0.0,0.0,0.0,0.0,0.0,3.9681,3.9472,3.9271,3.8994,3.8726,3.8502,3.7669,3.6186,3.6168,3.5774,3.4968,3.492,3.4935,3.4935,3.4935,3.4935,3.4935,3.4953,3.4968,3.4968,3.518,0.0,0.0,0.0,0.0,0.0,0.0,0.0,0.0,0.0,0.0,0.0,0.0,0.0,3.5605,3.4929,3.4804,3.4899,3.4899,3.5396,3.6067,3.6812,3.6179,3.5698,3.6891,3.6998,3.6997,3.762,0.0,0.0,0.0,0.0,0.0,0.0,0.0,0.0,0.0,0.0,0.0,0.0,0.0,0.0,0.0,0.0,0.0,0.0,0.0,0.0,0.0,0.0,0.0,0.0,0.0,2.9328,2.8689,2.8497,2.8064,2.7408,2.738,2.6996,2.6301,2.6274,2.6179,2.6029,2.6029,2.5948,2.5839,2.5825,2.5591,2.5273,2.5522,2.5411,2.5036,2.4381,2.4123,2.4028,0.0,0.0,0.0,0.0,0.0,0.0,0.0,0.0,0.0,0.0,0.0,0.0,0.0,0.0,0.0,0.0,0.0,0.0,0.0,3.94,3.9053,3.8833,3.8649,3.8495,3.8341,3.8443,3.8001,3.7031,3.6118,3.5297,3.4601,3.4601,3.4601,3.4568,3.4467,3.4399,3.4399,3.4312,3.4346,3.4399,3.4501,3.4683,0.0,0.0,0.0,0.0,0.0,0.0,0.0,0.0,3.7304,3.6996,3.6635,3.6193,3.5663,3.4922,3.4787,3.4899,3.4899,3.5446,3.6174,3.692,3.7107,3.7331,3.8074,3.8026,3.7899,3.8157,3.7988,0.0,0.0,0.0,0.0,0.0,0.0,0.0,0.0,0.0,0.0,0.0,0.0,0.0,0.0,0.0,0.0,0.0,0.0,0.0,0.0,0.0,0.0,0.0,0.0,2.8861,2.8607,2.8147,2.7794,2.7506,2.7363,2.7126,2.6867,2.6777,2.6712,2.6633,2.6539,2.6445,2.6418,2.6525,2.6486,2.6365,2.6383,2.5854,2.5019,2.4683,2.4022,2.3408,0.0,0.0,0.0,0.0,0.0,0.0,0.0,0.0,0.0,0.0,0.0,0.0,0.0,0.0,0.0,0.0,0.0,0.0,3.9038,3.8634,3.8352,3.8217,3.8104,3.8052,3.8104,3.8254,3.806,3.7507,3.6102,3.514,3.4636,3.4399,3.4278,3.4259,3.4108,3.404,3.404,3.3951,3.3951,3.404,3.404,3.421,0.0,0.0,0.0,0.0,0.0,0.0,0.0,0.0,3.6817,3.6778,3.6522,3.6244,3.5867,3.5177,3.4945,3.4949,3.5181,3.5794,3.6522,3.7268,3.8013,3.8596,3.8799,3.8683,3.8532,3.8532,3.8444,3.8286,0.0,0.0,0.0,0.0,0.0,0.0,0.0,0.0,0.0,0.0,0.0,0.0,0.0,0.0,0.0,0.0,0.0,0.0,0.0,0.0,0.0,0.0,0.0,0.0,2.8422,2.7956,2.774,2.7715,2.7539,2.7437,2.7386,2.7299,2.7248,2.7248,2.7115,2.6905,2.6689,2.6832,2.6743,2.6505,2.6285,2.5764,2.5061,2.4732,2.4065,2.3382,0.0,0.0,0.0,0.0,0.0,0.0,0.0,0.0,0.0,0.0,0.0,0.0,0.0,0.0,0.0,0.0,0.0,0.0,3.8202,3.7801,3.7586,3.7586,3.7586,3.7701,3.7891,3.7891,3.7702,3.7302,3.6046,3.5288,3.5084,3.4416,3.404,3.3896,3.3896,3.3896,3.3896,3.3896,3.3896,3.3896,3.3896,3.3896,3.3896,0.0,0.0,0.0,0.0,0.0,0.0,0.0,3.6492,3.6871,3.6666,3.6516,3.6277,3.5756,3.5268,3.5048,3.5794,3.6539,3.7284,3.803,0.0,0.0,3.9067,3.8914,3.8805,3.8805,3.8914,3.8914,3.8667,0.0,0.0,0.0,0.0,0.0,0.0,0.0,0.0,0.0,0.0,0.0,0.0,0.0,0.0,0.0,0.0,0.0,0.0,0.0,0.0,0.0,0.0,0.0,2.8005,2.8005,2.7995,2.7995,2.7995,2.793,2.779,2.779,2.779,2.7775,2.7775,2.7349,2.6572,2.6611,2.6168,2.5455,2.5062,2.5059,2.5198,2.4469,2.4195,2.4107,0.0,0.0,0.0,0.0,0.0,0.0,0.0,0.0,0.0,0.0,0.0,0.0,0.0,0.0,0.0,0.0,0.0,0.0,3.7558,3.7341,3.7187,3.7187,3.7187,3.7226,3.7264,3.7419,3.7348,3.7082,3.623,3.551,3.4867,3.4237,3.3951,3.3896,3.3744,3.3605,3.3466,3.3466,3.3466,3.3501,3.364,3.3793,3.3896,0.0,0.0,0.0,0.0,0.0,0.0,0.0,0.0,0.0,3.6436,3.6366,3.6172,3.5731,3.5268,3.5048,3.5794,3.6539,3.7284,3.803,0.0,0.0,0.0,3.8969,0.0,0.0,3.9094,3.9148,0.0,0.0,0.0,0.0,0.0,0.0,0.0,0.0,0.0,0.0,0.0,0.0,0.0,0.0,0.0,0.0,0.0,0.0,0.0,0.0,0.0,0.0,0.0,0.0,2.835,2.8308,2.829,2.829,2.829,2.8152,2.793,2.793,2.7673,2.7234,2.7234,2.6831,2.6188,2.6289,2.6062,2.5642,2.5507,2.5098,2.4556,2.4256,2.4128,2.4113,0.0,0.0,0.0,0.0,0.0,0.0,0.0,0.0,0.0,0.0,3.6964,0.0,0.0,0.0,0.0,0.0,0.0,0.0,0.0,3.6468,3.631,3.6217,3.6217,3.6296,3.6494,3.6769,3.6821,3.6722,3.6139,3.5611,3.506,3.4192,3.3709,3.3556,3.3403,3.3262,3.3051,3.3051,3.3016,3.2945,3.3086,3.3192,3.3297,0.0,0.0,0.0,0.0,0.0,0.0,0.0,0.0,0.0,3.6273,3.6194,3.5916,3.5929,3.5399,3.5066,3.6133,3.6771,0.0,3.8377,3.8984,3.9272,3.9148,0.0,0.0,0.0,0.0,0.0,0.0,0.0,0.0,0.0,0.0,0.0,0.0,0.0,0.0,0.0,0.0,0.0,0.0,0.0,0.0,0.0,0.0,0.0,0.0,0.0,0.0,0.0,0.0,0.0,2.8904,2.8865,2.8858,2.8834,2.8787,2.8668,2.851,2.7999,2.7566,2.7209,2.6604,2.6085,2.5711,2.5525,2.5336,2.5139,2.5139,2.4798,2.43,2.4197,2.4181,2.4181,0.0,0.0,0.0,0.0,0.0,0.0,0.0,0.0,0.0,0.0,3.5964,3.6175,0.0,0.0,0.0,0.0,0.0,0.0,0.0,0.0,3.5141,3.4909,3.4868,3.5073,3.5507,3.5896,3.6096,3.6136,3.5789,3.5543,3.5396,3.4115,3.3333,3.2988,3.2988,3.2846,3.2668,3.2668,3.2561,3.2345,3.2345,3.2345,3.2309,3.2345,0.0,0.0,0.0,0.0,0.0,0.0,0.0,0.0,3.618,3.5956,3.5586,3.6211,3.5626,3.5127,3.6671,3.7152,3.7549,3.895,3.9299,0.0,3.9299,3.9125,3.8924,3.8924,0.0,0.0,0.0,0.0,0.0,0.0,0.0,0.0,0.0,0.0,0.0,0.0,0.0,0.0,0.0,0.0,0.0,0.0,0.0,0.0,0.0,0.0,0.0,0.0,0.0,0.0,2.9582,2.956,2.956,0.0,2.9425,2.9373,2.9319,2.8038,2.7435,2.7348,2.5861,2.5247,2.5201,2.4585,2.4323,2.4323,2.4323,2.4323,2.4323,2.4323,2.4323,2.4338,0.0,0.0,0.0,0.0,0.0,0.0,0.0,0.0,0.0,0.0,0.0,0.0,0.0,0.0,0.0,0.0,0.0,0.0,0.0,0.0,3.405,3.3966,3.3966,3.4037,3.4121,3.4358,3.469,3.5032,3.4862,3.4752,3.4756,3.3479,3.2846,3.2775,3.2775,3.2668,3.2453,3.2453,3.2273,3.1909,3.1919,3.1846,3.17,3.1873,3.22,0.0,0.0,0.0,0.0,0.0,0.0,0.0,3.5975,3.5717,3.5247,3.6007,3.5908,3.5787,3.6803,3.7533,0.0,3.9083,3.9299,3.9299,3.9299,3.8904,3.8489,0.0,0.0,0.0,0.0,0.0,0.0,0.0,0.0,0.0,0.0,0.0,0.0,0.0,0.0,0.0,0.0,0.0,0.0,0.0,0.0,0.0,0.0,0.0,0.0,0.0,0.0,3.0123,3.014,3.0087,3.0038,0.0,3.0017,2.9951,2.9788,2.841,2.7195,2.6069,2.5155,2.4746,2.473,2.459,2.4528,2.4528,2.4528,2.4528,2.4528,2.4528,2.4528,2.4626,0.0,0.0,0.0,0.0,0.0,0.0,0.0,0.0,0.0,0.0,0.0,0.0,0.0,0.0,0.0,0.0,0.0,0.0,0.0,0.0,3.3086,3.3099,3.3172,3.3215,3.3215,3.3416,3.3742,3.4217,3.3688,3.379,3.4389,3.3247,3.2668,3.2561,3.2561,3.2467,3.23,3.2191,3.1863,3.1421,3.132,3.1172,3.1022,3.1185,3.1629,3.2164,3.2668,0.0,0.0,0.0,0.0,0.0,0.0,0.0,3.539,3.6297,3.6354,3.6301,3.7357,0.0,0.0,3.9212,0.0,3.9322,3.907,3.8513,0.0,0.0,0.0,0.0,0.0,0.0,0.0,0.0,0.0,0.0,0.0,0.0,0.0,0.0,0.0,0.0,0.0,0.0,0.0,0.0,0.0,0.0,0.0,0.0,0.0,0.0,3.0658,3.0617,3.0593,3.0568,3.0526,3.0526,3.0464,3.0178,2.9627,2.8303,2.6899,2.5447,2.5052,2.4895,2.4895,2.4895,2.4895,2.4895,2.4895,2.4895,2.4926,2.5277,2.5404,2.5514,0.0,0.0,0.0,0.0,0.0,0.0,0.0,0.0,0.0,0.0,0.0,0.0,0.0,0.0,0.0,0.0,0.0,0.0,0.0,0.0,0.0,3.2213,3.2419,3.2537,3.2537,3.2698,3.3031,3.3513,3.2613,3.2791,3.3957,3.2992,3.2503,3.2359,3.2359,3.2286,3.2182,3.1963,3.1522,3.0986,3.0723,3.0495,3.033,3.0571,3.1086,3.1763,3.2381,3.2895,3.3347,3.3854,0.0,0.0,0.0,0.0,3.5549,3.66,3.6756,3.6832,3.7899,3.8311,3.8595,3.9351,3.9463,0.0,3.8891,3.8198,0.0,0.0,0.0,0.0,0.0,0.0,0.0,0.0,0.0,0.0,0.0,0.0,0.0,0.0,0.0,0.0,0.0,0.0,0.0,0.0,0.0,0.0,0.0,0.0,3.1982,3.1254,3.1102,3.1012,3.0952,3.0952,3.0952,3.0952,3.0831,3.0288,2.936,2.8368,2.7033,2.5503,2.5375,2.5326,2.5343,2.5455,2.5503,2.5519,2.5648,2.5696,2.576,2.639,2.6619,2.6712,0.0,0.0,0.0,0.0,0.0,0.0,0.0,0.0,0.0,0.0,0.0,0.0,0.0,0.0,0.0,0.0,0.0,0.0,3.1395,0.0,0.0,3.1439,3.1705,3.1837,3.1837,3.1837,3.2189,3.284,3.205,3.2195,3.3132,3.2367,3.2096,3.2241,3.2241,3.2205,3.2182,3.178,3.1373,3.0986,3.0596,3.0228,2.9934,3.0305,3.0797,3.1381,3.1982,3.2646,3.3361,3.357,3.3868,0.0,0.0,0.0,3.5323,3.6285,3.6929,3.7486,3.8048,0.0,3.9368,0.0,3.932,3.9015,0.0,0.0,0.0,0.0,0.0,0.0,0.0,0.0,0.0,0.0,0.0,0.0,0.0,0.0,0.0,0.0,0.0,0.0,0.0,0.0,0.0,0.0,0.0,0.0,0.0,3.3096,3.2259,3.2138,3.1509,3.1171,3.1151,3.1151,3.1151,3.1151,3.1015,3.0569,2.9811,2.9588,2.8506,2.6711,2.6087,2.5807,2.5856,2.6498,2.6763,2.6809,2.7467,2.7712,2.7728,2.7827,2.7859,2.7958,0.0,0.0,0.0,0.0,0.0,0.0,0.0,0.0,0.0,0.0,0.0,0.0,0.0,0.0,0.0,3.0442,3.0352,3.0397,3.0668,3.0802,3.1038,3.1306,3.1395,3.1528,3.1705,3.1705,3.1893,3.2288,3.2072,3.2179,3.2593,3.2296,3.2186,3.2218,3.2218,3.2218,3.2182,3.189,3.1508,3.106,3.071,3.0444,3.0266,3.0482,3.0923,3.1468,3.1959,3.2516,3.3016,3.3312,3.3675,3.4108,3.4702,0.0,0.0,0.0,3.7406,3.7903,3.8242,3.8319,3.8413,0.0,3.8775,3.8642,3.8597,0.0,0.0,0.0,0.0,0.0,0.0,0.0,0.0,0.0,0.0,0.0,0.0,0.0,0.0,0.0,0.0,0.0,0.0,0.0,0.0,0.0,0.0,0.0,3.5008,3.4237,3.3608,3.3155,3.2754,3.234,3.1936,3.1839,3.1616,3.119,3.1151,3.0946,3.0608,3.0162,2.9216,2.7935,2.762,2.7468,2.7485,2.7819,2.7952,2.7985,2.8317,2.8434,2.8483,2.8899,2.9048,2.9145,0.0,0.0,0.0,0.0,0.0,0.0,0.0,0.0,0.0,0.0,0.0,0.0,0.0,0.0,0.0,0.0,2.9676,2.9804,3.0102,3.0352,3.0724,3.1217,3.1261,3.1439,3.1705,3.1705,3.1805,3.1994,3.2152,3.2215,3.2289,3.2381,3.2316,3.2218,3.2218,3.2218,3.2182,3.2,3.168,3.127,3.0973,3.0772,3.0709,3.0823,3.1161,3.1629,3.2059,3.2408,3.2739,3.3122,3.3536,3.3985,3.4534,3.5169,0.0,0.0,0.0,3.8121,0.0,0.0,3.7621,3.8097,3.831,3.8369,0.0,0.0,0.0,0.0,0.0,0.0,0.0,0.0,0.0,0.0,0.0,0.0,0.0,0.0,0.0,0.0,0.0,0.0,0.0,0.0,0.0,0.0,0.0,0.0,3.5674,3.5307,3.484,3.4243,3.3901,3.3464,3.2861,3.272,3.2347,3.1765,3.1765,3.1664,3.1464,3.0903,3.0186,2.933,2.8958,2.8772,2.8789,2.8973,2.9057,2.9074,2.9259,2.9345,2.9431,2.9986,3.0205,3.0308,0.0,0.0,0.0,0.0,0.0,0.0,0.0,0.0,0.0,0.0,0.0,0.0,3.0812,3.0656,3.0419,3.0189,3.0144,3.0094,2.992,3.0091,3.0454,3.0972,3.1184,0.0,3.1705,3.1705,3.1805,3.1994,3.2152,3.2215,3.2289,3.2381,3.2316,3.2218,3.2218,3.2218,3.2182,3.2,3.1767,3.1556,3.1347,3.1161,3.1024,3.1198,3.1421,3.1629,3.2059,3.2408,3.2739,3.2952,3.3403,3.3931,3.4108,3.4872,3.5864,0.0,0.0,0.0,0.0,3.8095,0.0,3.8225,3.8222,0.0,0.0,0.0,0.0,0.0,0.0,0.0,0.0,0.0,0.0,0.0,0.0,0.0,0.0,0.0,0.0,0.0,0.0,0.0,0.0,0.0,0.0,0.0,0.0,0.0,3.6827,3.5968,3.5427,3.531,3.4582,3.4068,3.3817,3.3629,3.3443,3.3288,3.3288,3.2916,3.2242,3.2209,3.1808,3.1089,2.9621,2.8975,2.9042,2.9734,3.0038,3.0106,3.0799,3.1114,3.1174,3.1208,3.13,3.1408,0.0,0.0,0.0,0.0,0.0,0.0,0.0,0.0,0.0,0.0,0.0,0.0,0.0,3.0405,3.0158,2.9807,2.957,2.9548,2.9646,2.9874,3.0239,3.0724,3.096,3.1229,3.1439,3.1617,3.1761,3.1805,3.2296,3.2206,3.1671,3.2306,3.2298,3.1827,3.2096,3.2218,3.2218,3.2109,3.2073,3.1986,3.1767,3.173,3.1767,3.1693,3.1803,0.0,0.0,0.0,0.0,0.0,0.0,0.0,0.0,0.0,0.0,0.0,0.0,0.0,0.0,0.0,0.0,3.6899,3.7241,3.7551,0.0,0.0,0.0,0.0,0.0,0.0,0.0,0.0,0.0,0.0,0.0,0.0,0.0,0.0,0.0,0.0,0.0,0.0,0.0,0.0,0.0,0.0,0.0,0.0,3.7355,3.6959,3.6667,3.6552,3.6155,3.5593,3.4881,3.4233,3.3894,3.3836,3.3847,3.3428,3.2613,3.2672,3.2261,3.147,3.0994,3.068,3.051,3.0745,3.0864,3.0898,3.1152,3.1329,3.1443,3.1443,3.15,3.1559,0.0,0.0,0.0,0.0,0.0,0.0,0.0,0.0,0.0,3.0668,0.0,0.0,0.0,0.0,3.0428,2.9784,2.9269,2.9128,2.9347,2.9634,2.9966,3.0442,3.0826,3.1107,3.1306,3.1572,3.1705,3.1705,3.2135,3.1923,3.1223,3.1895,3.1927,3.1421,3.1827,3.2059,3.2218,3.2218,3.2218,3.2182,3.2036,3.2073,3.2182,3.2036,0.0,0.0,0.0,0.0,0.0,0.0,0.0,0.0,0.0,0.0,0.0,0.0,0.0,0.0,3.6884,0.0,0.0,0.0,0.0,3.7129,0.0,0.0,0.0,0.0,0.0,0.0,0.0,0.0,0.0,0.0,0.0,0.0,0.0,0.0,0.0,0.0,0.0,0.0,0.0,0.0,0.0,0.0,0.0,0.0,3.7828,3.7703,3.7559,3.7431,3.7207,3.6728,3.5998,3.5356,3.5022,3.494,3.4947,3.4523,3.3703,3.3464,3.2928,3.2183,3.1996,3.1764,3.1466,3.1466,3.1466,3.1466,3.1466,3.154,3.1615,3.1615,3.1709,3.1802,0.0,0.0,0.0,0.0,0.0,0.0,0.0,0.0,3.1083,3.1564,0.0,0.0,0.0,0.0,0.0,3.0275,2.9314,2.8896,2.9082,2.9347,2.9715,3.017,3.0691,3.1107,3.1306,3.1528,3.1705,3.1705,3.1638,3.1383,3.0993,3.1101,3.11,3.0986,3.1421,3.1827,3.2182,3.2218,3.2218,3.2218,0.0,3.2218,3.2218,0.0,0.0,0.0,3.2246,3.2327,0.0,3.2632,0.0,0.0,0.0,0.0,0.0,0.0,0.0,0.0,0.0,0.0,0.0,0.0,0.0,0.0,0.0,0.0,0.0,0.0,0.0,0.0,0.0,0.0,0.0,0.0,0.0,0.0,0.0,0.0,0.0,0.0,0.0,0.0,0.0,0.0,0.0,0.0,0.0,3.8307,3.8307,3.817,3.8052,3.7916,3.7595,3.7338,3.7127,3.6995,3.6838,3.6635,3.6615,3.6235,3.5508,3.4722,3.401,3.3369,3.2599,3.209,3.1819,3.1818,3.1818,3.1818,3.1818,3.1839,3.1912,3.1912,3.2037,3.2214,0.0,0.0,0.0,0.0,0.0,0.0,3.14,3.1422,3.1465,0.0,0.0,0.0,3.1618,3.1007,3.0351,2.974,2.9164,2.8896,2.9082,2.9347,2.9634,2.9977,3.0454,3.0814,3.1062,3.1318,3.1484,3.1705,3.1423,3.1058,3.0575,3.0713,3.0712,3.0596,3.1161,3.1619,3.2,3.2146,0.0,3.2218,3.2218,3.2218,0.0,0.0,0.0,0.0,0.0,3.2941,3.2992,0.0,3.2739,3.3143,0.0,0.0,0.0,0.0,0.0,0.0,3.6275,0.0,0.0,0.0,0.0,0.0,0.0,0.0,0.0,0.0,0.0,0.0,0.0,0.0,0.0,0.0,0.0,0.0,0.0,0.0,0.0,0.0,0.0,0.0,0.0,0.0,0.0,0.0,3.8446,3.8415,3.8385,3.8334,3.8287,3.8191,3.8001,3.7863,3.7739,3.7577,3.745,3.7415,3.7339,3.6891,3.6075,3.5899,3.5066,3.3739,3.3646,3.3204,3.2573,3.2232,3.209,3.209,3.209,3.2126,3.2197,3.2197,3.2318,3.2489,0.0,0.0,0.0,0.0,0.0,3.1618,3.1618,3.1618,3.1618,0.0,0.0,0.0,3.1334,3.0657,3.0013,2.9521,2.9088,2.885,2.8989,2.922,2.9451,2.9737,3.017,3.0589,3.0972,3.1184,3.1332,3.138,3.0967,3.0477,2.9927,2.9884,2.9886,3.0011,3.0684,3.1259,3.1656,0.0,0.0,0.0,3.2218,0.0,0.0,3.287,3.3101,0.0,0.0,0.0,3.3127,3.2586,3.2668,0.0,0.0,0.0,0.0,0.0,0.0,0.0,3.5969,3.5535,0.0,0.0,0.0,0.0,3.6655,3.7089,0.0,0.0,0.0,0.0,0.0,0.0,0.0,0.0,0.0,0.0,0.0,0.0,0.0,0.0,0.0,0.0,0.0,0.0,0.0,0.0,3.8575,3.8578,3.853,3.8462,3.8415,3.8385,3.8285,3.8188,3.8126,3.8021,3.7897,3.7808,3.7792,3.7488,3.6952,3.6682,3.6019,3.5072,3.4543,3.4036,3.3571,3.2961,3.2623,3.2489,3.2489,3.2522,3.2538,3.2588,3.2687,3.28,0.0,0.0,3.0428,3.1378,3.1542,3.1564,3.1567,3.1618,3.1618,0.0,3.1618,3.1422,3.0876,3.0461,2.9991,2.9456,2.9055,2.8803,2.8803,2.8989,2.922,2.9485,2.9943,3.042,3.0984,3.1184,3.1144,3.0922,3.035,2.9821,2.928,2.8979,2.9067,2.9484,3.0279,0.0,3.1384,0.0,0.0,3.2218,3.2218,3.2218,0.0,0.0,3.3101,3.3101,3.3101,3.3101,3.3043,3.255,3.2668,0.0,0.0,0.0,0.0,0.0,3.511,0.0,3.568,3.5263,0.0,0.0,0.0,0.0,3.6174,3.6676,3.7108,0.0,0.0,0.0,0.0,0.0,0.0,0.0,0.0,0.0,0.0,0.0,0.0,0.0,0.0,0.0,0.0,0.0,3.8707,3.8707,3.8707,3.8707,3.8707,3.8593,3.8525,3.8525,3.8462,3.8401,3.834,3.834,3.8239,3.8052,3.8052,3.8019,3.7915,3.7279,3.6931,3.6768,3.5364,3.4688,3.4561,3.3749,3.3244,3.2963,3.2963,3.2963,3.2963,3.3024,3.3086,3.3147,0.0,0.0,2.9925,3.0876,3.104,3.1171,3.1564,3.1618,3.1618,3.1618,3.1618,3.1302,3.0439,3.0264,2.986,2.9022,2.8858,2.8803,2.8803,2.8989,2.922,2.9485,2.9772,3.0296,3.0984,3.1017,3.1024,3.0922,3.035,2.9821,2.9292,2.9111,2.9263,2.9665,3.0533,0.0,0.0,0.0,0.0,3.2218,3.2218,0.0,3.2286,3.287,3.3101,3.3101,3.3101,3.3101,3.3043,3.255,3.2561,3.281,0.0,0.0,0.0,0.0,0.0,0.0,0.0,0.0,0.0,0.0,0.0,0.0,3.5859,3.6354,3.6799,0.0,0.0,0.0,0.0,0.0,0.0,0.0,0.0,0.0,0.0,0.0,0.0,0.0,0.0,0.0,0.0,0.0,3.8707,3.8707,3.8707,3.8707,3.8707,3.8692,3.8658,3.8658,3.8643,3.8627,3.8611,3.8512,3.843,3.8401,3.835,3.8318,3.8285,3.8154,3.7735,3.7064,3.6131,3.5362,3.4707,3.3891,3.3448,3.3304,3.3304,3.3304,3.3304,3.3319,3.336,3.3419,2.939,2.9489,2.9707,3.0428,3.0559,3.0712,3.1181,3.1258,3.1345,3.1586,3.1618,3.1258,3.0308,3.0209,2.9816,2.8891,2.8803,2.8803,2.8803,2.8896,2.9117,2.9485,2.9634,3.0057,3.0781,3.0681,3.0501,3.0312,2.9911,2.9465,2.9044,2.8977,2.9263,2.9871,3.0533,3.111,0.0,0.0,3.2218,3.2218,3.2218,0.0,3.2286,3.287,3.3101,3.3101,3.3101,3.2911,3.2612,3.2373,3.2395,0.0,0.0,3.3178,3.361,0.0,3.376,3.3593,0.0,0.0,0.0,3.4275,0.0,0.0,0.0,3.5885,3.6333,0.0,0.0,0.0,0.0,0.0,0.0,0.0,0.0,0.0,0.0,0.0,0.0,0.0,0.0,0.0,0.0,0.0,3.8765,3.881,3.878,3.875,3.875,3.8723,3.8707,3.8707,3.8707,3.8707,3.8707,3.8624,3.8559,3.8494,3.8462,3.843,3.8399,3.843,3.8227,3.7807,3.7067,3.6512,3.6055,3.4814,3.4264,3.4156,3.3684,3.3509,3.3491,3.3534,3.3577,3.3605,2.9318,2.9394,2.95,2.9991,3.0078,3.0231,3.069,3.0766,3.0941,3.1422,3.1411,3.1061,3.0297,3.0122,2.9718,2.888,2.8803,2.8803,2.8803,2.8803,2.8989,2.9393,2.9485,2.9806,3.0532,3.0323,3.0036,2.9706,2.9433,2.9137,2.8791,2.891,2.938,3.0114,3.0582,3.1121,0.0,0.0,0.0,3.2218,0.0,3.2218,3.2259,3.2748,3.2938,3.2938,3.2938,3.2612,3.2218,3.2218,0.0,3.2453,3.2632,3.2931,0.0,0.0,0.0,0.0,0.0,0.0,0.0,0.0,0.0,3.4763,0.0,0.0,0.0,3.6135,0.0,0.0,0.0,0.0,0.0,0.0,0.0,0.0,0.0,0.0,0.0,0.0,0.0,0.0,0.0,0.0,3.8837,3.8877,3.8837,3.8807,3.8807,3.8735,3.8707,3.8707,3.8707,3.8707,3.8707,3.8707,3.8658,3.8525,3.8525,3.8512,3.8465,3.851,3.8525,3.8504,3.7811,3.7507,3.7397,3.5895,3.5197,3.4959,3.4014,3.3629,3.3661,3.3698,3.3726,3.3753,2.8869,2.888,2.9044,2.9489,2.9565,2.9729,3.022,3.0286,3.0461,3.0919,3.0624,3.033,3.022,0.0,0.0,0.0,0.0,0.0,2.8803,0.0,2.8896,2.9128,2.9347,2.9715,3.0216,3.0234,3.0036,2.9706,2.9433,2.9137,2.8791,2.9367,2.9871,3.0394,3.1134,0.0,0.0,0.0,3.2218,0.0,3.2218,3.2218,0.0,3.2286,3.2314,3.2314,3.2314,3.2273,3.2218,0.0,3.23,3.2453,0.0,3.2846,3.3052,0.0,0.0,0.0,0.0,0.0,0.0,0.0,3.3771,0.0,0.0,0.0,3.5385,3.5778,0.0,0.0,0.0,0.0,0.0,0.0,0.0,0.0,0.0,0.0,0.0,0.0,0.0,0.0,0.0,0.0,0.0,3.8877,3.8837,3.8807,3.8807,3.8735,3.8707,3.8707,3.8707,3.8707,3.8707,3.8707,3.8692,3.8673,3.8673,3.8658,3.8676,3.8673,3.8673,3.8637,3.7845,3.7522,3.7507,3.6605,3.5855,3.5172,3.4178,3.378,3.378,3.3793,3.3834,3.3868,2.8803,2.8803,2.8869,2.9077,2.911,2.9274,2.9718,3.0024,3.0373,3.0832,3.0723,3.0614,0.0,0.0,0.0,0.0,0.0,2.8803,0.0,0.0,2.8896,2.9082,2.9359,0.0,2.9556,2.9517,2.9351,2.9076,2.8884,2.8955,2.9145,2.9639,3.0266,3.0936,3.1408,0.0,3.2073,0.0,3.2218,0.0,0.0,0.0,0.0,3.2218,3.2218,3.2218,3.2218,3.2218,3.2218,0.0,3.2241,0.0,0.0,0.0,0.0,0.0,0.0,0.0,0.0,0.0,0.0,0.0,0.0,0.0,3.4151,0.0,3.4984,0.0,0.0,0.0,0.0,0.0,0.0,0.0,0.0,0.0,0.0,0.0,0.0,0.0,0.0,0.0,0.0,0.0,0.0,0.0,0.0,3.8964,3.8925,3.8807,3.8735,3.8707,3.8707,3.8707,3.8707,3.8707,3.8707,3.8707,3.8707,3.8707,3.8707,3.8707,3.8719,3.8728,3.8442,3.8335,3.8352,3.7632,3.7148,3.6779,3.593,3.4907,3.3921,3.3959,3.3998,3.4023,2.8803,2.8803,2.8803,2.8803,2.8803,2.8924,2.9285,2.9587,3.0035,3.0624,0.0,0.0,3.0865,3.0482,0.0,0.0,2.9237,2.9,0.0,0.0,2.885,0.0,0.0,0.0,0.0,2.8932,2.8854,2.8663,2.8642,2.8922,2.9574,3.0037,3.0659,3.1384,0.0,3.195,3.2218,0.0,3.2205,3.2241,3.2241,3.23,3.2336,3.2277,3.23,3.2336,3.2277,3.2241,3.2241,3.2205,3.2218,0.0,3.2404,0.0,0.0,0.0,0.0,0.0,3.1099,0.0,0.0,0.0,0.0,0.0,0.0,0.0,0.0,0.0,0.0,0.0,0.0,0.0,0.0,0.0,0.0,0.0,0.0,0.0,0.0,0.0,0.0,0.0,0.0,0.0,0.0,0.0,3.9256,0.0,3.9073,3.8935,3.8837,3.878,3.8765,3.875,3.8732,3.875,3.8765,3.878,3.878,3.8795,3.881,3.881,3.8837,3.8892,3.895,3.9021,3.905,3.8598,3.8284,3.8066,3.7534,3.6346,3.4878,3.4618,3.4383,3.4221,2.8757,2.8803,0.0,0.0,0.0,2.8814,2.8825,2.8836,2.9197,0.0,0.0,0.0,0.0,0.0,0.0,0.0,0.0,2.9456,2.9456,0.0,2.8803,0.0,0.0,2.8987,0.0,0.0,2.8781,2.8881,2.8819,2.9184,2.9999,3.0672,3.1198,3.1593,3.2009,3.2182,3.2218,3.2218,3.2264,3.2381,3.2381,3.2525,3.2668,0.0,3.2525,3.2668,3.2453,0.0,0.0,3.2241,3.2218,0.0,0.0,0.0,0.0,0.0,0.0,0.0,0.0,0.0,0.0,3.161,0.0,0.0,0.0,0.0,3.4075,0.0,0.0,0.0,0.0,0.0,0.0,0.0,0.0,0.0,0.0,0.0,0.0,0.0,0.0,0.0,0.0,0.0,0.0,3.9376,3.9337,0.0,3.9298,3.9101,3.8979,3.8979,3.8939,3.8859,3.8803,3.8859,3.8939,3.8979,3.8979,3.9021,3.9087,3.9087,3.9087,3.9101,3.9156,3.9237,3.9298,3.9402,3.9031,3.8387,3.8437,3.7923,3.7071,3.596,3.5105,3.4495,0.0,2.8803,0.0,0.0,0.0,2.8803,2.8803,2.8803,0.0,0.0,0.0,0.0,0.0,3.0952,3.0657,0.0,0.0,2.9489,2.9489,2.9077,0.0,0.0,0.0,2.9511,0.0,0.0,0.0,0.0,0.0,2.9767,3.0495,3.111,3.1532,3.1803,0.0,3.2241,0.0,0.0,0.0,0.0,0.0,3.2739,3.2881,0.0,0.0,3.2704,3.2632,3.2596,0.0,3.2538,3.2278,3.1942,3.1993,3.1729,3.1344,3.1073,3.1008,0.0,0.0,0.0,3.0955,3.1336,0.0,0.0,0.0,0.0,0.0,0.0,0.0,0.0,0.0,0.0,0.0,0.0,0.0,0.0,0.0,0.0,0.0,0.0,0.0,0.0,0.0,0.0,0.0,3.9575,3.9539,3.9502,0.0,3.9337,3.9232,3.921,3.9129,3.9087,3.9069,3.9045,3.9078,3.9129,3.9129,3.917,3.9232,3.9232,3.9259,3.9298,3.9414,3.9502,3.9587,3.9751,3.9678,3.9472,3.9537,3.9026,3.8172,3.7114,3.6239,3.5495,2.8803,0.0,0.0,0.0,0.0,0.0,0.0,0.0,0.0,0.0,3.0209,0.0,3.1622,0.0,3.1284,0.0,3.048,2.9951,2.9774,2.9404,0.0,2.9485,2.9909,0.0,0.0,0.0,0.0,0.0,0.0,3.0292,3.1024,3.1495,3.179,3.2,0.0,3.2322,3.2417,0.0,3.2632,0.0,0.0,3.3143,0.0,0.0,3.3037,3.2895,0.0,3.281,3.281,3.2739,3.2303,3.1799,3.1791,3.1352,3.0825,3.0708,3.068,3.0688,3.0668,3.0732,0.0,3.1278,3.1625,0.0,3.2437,0.0,0.0,0.0,0.0,0.0,0.0,0.0,0.0,0.0,0.0,0.0,0.0,3.7721,0.0,0.0,0.0,0.0,0.0,0.0,3.935,3.9647,3.9682,3.9712,0.0,0.0,3.9526,3.9489,3.9389,3.9337,3.9318,3.9253,3.9304,3.9451,3.9395,3.9427,3.9514,3.9514,3.9539,3.9575,3.9682,3.9781,3.9826,3.9996,4.0077,4.0077,4.0147,3.9823,3.9214,3.8192,3.7336,3.6587,0.0,0.0,0.0,0.0,2.8896,0.0,0.0,0.0,2.9142,0.0,3.0225,3.0674,3.1799,3.1949,3.1873,3.1715,3.127,0.0,3.0305,3.0066,0.0,0.0,3.0532,3.0499,3.011,0.0,0.0,0.0,0.0,0.0,3.1629,3.1803,3.2036,3.2218,3.2322,0.0,3.2417,3.2632,3.2846,3.3094,3.3452,3.3709,3.3896,3.3896,0.0,3.3312,3.3108,3.3058,3.3023,3.2783,3.2332,3.1723,3.1324,3.0731,3.0169,3.0128,3.0111,3.0233,3.0672,3.0821,3.0969,3.1408,0.0,0.0,0.0,0.0,3.3229,0.0,0.0,0.0,0.0,0.0,0.0,0.0,0.0,0.0,0.0,0.0,0.0,0.0,0.0,0.0,0.0,3.9142,3.9389,3.9587,3.9781,3.99,0.0,0.0,0.0,3.9815,3.9701,3.9592,3.9536,3.9513,3.9656,3.9898,3.9773,3.9792,3.9911,3.9911,3.9911,3.9911,3.9975,4.0007,4.0017,4.0157,4.0206,4.0206,4.0291,4.0301,4.0177,3.9176,3.8375,3.7745,2.9255,2.9852,3.0216,0.0,2.9863,2.9554,0.0,0.0,0.0,0.0,3.0189,3.047,3.1094,3.1345,3.1446,3.1419,3.1088,0.0,0.0,0.0,0.0,3.1226,3.1657,3.1779,3.1559,3.1656,0.0,3.1267,0.0,0.0,3.1853,3.2036,3.2146,3.2218,0.0,0.0,3.2632,3.3016,3.3347,3.3675,3.3779,3.3862,0.0,0.0,3.3827,3.3744,3.3709,3.3675,3.3589,3.3038,3.2458,3.1834,3.1225,3.0633,3.0125,3.0232,3.0357,3.0552,3.0851,3.1117,3.1408,3.1783,3.2051,3.2287,0.0,0.0,0.0,0.0,0.0,0.0,0.0,0.0,0.0,0.0,0.0,0.0,0.0,0.0,0.0,0.0,0.0,0.0,0.0,3.9087,3.935,3.9658,3.9815,0.0,0.0,0.0,0.0,4.0026,3.9943,3.9892,3.9873,3.9826,3.9856,3.997,3.9933,3.9965,4.0046,4.0046,4.0046,4.0046,4.0108,4.0157,4.0166,4.0244,4.0263,4.0291,4.0301,4.0301,4.0186,3.9289,3.8831,3.8573,2.9943,0.0,0.0,3.1359,0.0,0.0,2.9817,0.0,0.0,3.031,3.0366,0.0,3.1495,3.179,3.1924,3.1926,3.1877,0.0,3.1914,0.0,0.0,3.25,3.2609,3.2642,3.2495,3.2304,0.0,3.1785,0.0,0.0,3.2036,3.2146,3.2218,3.2218,0.0,3.2596,3.2739,3.3241,3.364,3.3985,3.3985,0.0,0.0,3.4122,3.4122,3.4122,3.4122,3.402,3.3796,3.3139,3.2497,3.1868,3.1208,3.0642,3.0219,3.0387,3.0583,3.0851,3.1204,3.1495,3.1824,3.2163,3.237,3.2563,3.2753,3.3081,3.3346,0.0,0.0,0.0,0.0,0.0,0.0,0.0,0.0,0.0,0.0,0.0,0.0,0.0,0.0,0.0,0.0,0.0,3.9298,0.0,0.0,0.0,0.0,0.0,0.0,4.0147,4.0077,4.0057,4.0087,4.0026,4.0007,4.0049,4.0068,4.0118,4.0195,4.0195,4.0195,4.0195,4.0234,4.0244,4.0253,4.0272,4.0301,4.0301,4.0301,4.0301,4.0244,3.9747,3.9565,3.9508,0.0,0.0,0.0,0.0,0.0,0.0,0.0,3.0193,0.0,3.072,0.0,3.1217,3.2335,3.2661,3.2827,3.2763,0.0,3.2996,3.2771,3.2872,3.3132,3.3579,3.3336,3.3129,3.2974,3.2471,0.0,0.0,0.0,0.0,3.2218,3.2218,3.2218,3.2241,0.0,0.0,0.0,3.3417,3.3833,0.0,3.4128,3.423,3.4414,3.4414,3.4414,3.4448,3.4448,3.4259,3.3851,3.3107,3.2524,3.1951,3.1203,3.0711,3.0477,3.0657,3.0911,3.1234,3.1667,3.1938,3.2206,3.2574,3.2683,3.2792,3.3096,3.3282,3.345,3.3694,3.405,0.0,0.0,0.0,0.0,0.0,0.0,0.0,0.0,0.0,0.0,0.0,0.0,0.0,0.0,0.0,0.0,0.0,0.0,0.0,0.0,0.0,0.0,0.0,4.0137,0.0,4.0196,0.0,4.0128,4.0129,4.0186,4.0244,4.0301,4.0301,4.0301,4.0301,4.0301,4.0301,4.0301,4.0301,4.0301,4.0301,4.0301,4.031,4.0291,4.0291,4.0291,4.0291,0.0,0.0,0.0,0.0,0.0,3.3232,3.2562,3.1857,3.1463,3.1713,3.1769,3.1982,3.2597,3.286,3.3028,3.3162,3.2971,0.0,0.0,0.0,0.0,3.3092,3.3238,3.313,3.2771,3.288,3.2654,0.0,0.0,0.0,3.2218,3.2218,3.2277,0.0,0.0,0.0,3.3709,3.3813,0.0,3.4346,3.4346,3.438,3.4414,3.4414,3.4481,3.4664,3.4664,3.4481,3.4139,3.2966,3.2553,3.2375,3.1211,3.0969,3.1161,3.1292,3.1567,3.1896,3.2203,3.2511,3.2788,3.2962,3.3187,3.3372,3.3424,3.3633,3.3848,3.4,3.425,3.4497,3.4643,0.0,0.0,0.0,0.0,0.0,0.0,0.0,0.0,0.0,0.0,0.0,0.0,0.0,0.0,0.0,0.0,0.0,0.0,0.0,0.0,0.0,0.0,0.0,0.0,0.0,0.0,4.0272,4.0272,4.0291,4.0301,4.0301,4.0301,4.0301,4.0301,4.0301,4.0301,4.0301,4.0301,4.0301,4.0301,4.0291,4.0289,4.0289,4.0289,4.0308,0.0,0.0,0.0,0.0,0.0,0.0,0.0,3.3445,0.0,3.2575,3.2605,3.2764,3.2938,3.3139,3.3232,3.3142,3.3073,3.3171,3.3397,3.312,3.3119,3.3457,3.3279,0.0,3.2901,3.2715,3.2504,3.2218,0.0,0.0,0.0,0.0,0.0,3.2417,0.0,3.3347,0.0,0.0,0.0,3.4414,3.4515,3.4563,3.4582,3.475,3.4883,3.4949,3.5019,3.4779,3.4221,3.3138,3.2847,3.2753,3.1531,3.1394,3.1697,3.1809,3.2064,3.237,3.2687,3.292,3.315,3.3346,3.3503,3.3633,3.3694,3.3848,3.405,3.4176,3.4423,3.4667,3.4875,3.5095,0.0,0.0,0.0,0.0,0.0,0.0,0.0,0.0,0.0,0.0,0.0,0.0,0.0,0.0,0.0,0.0,0.0,0.0,0.0,0.0,0.0,0.0,0.0,0.0,0.0,4.0292,4.0291,4.0301,4.0301,4.0301,4.0301,4.0301,4.0301,4.0301,4.0301,4.0301,4.0301,4.0309,4.0309,4.0316,4.0358,4.0358,4.0358,4.0349,0.0,3.4209,0.0,0.0,3.4645,0.0,3.4523,3.4429,3.4058,3.3271,3.3314,3.3373,3.3268,3.3405,3.3436,3.3263,3.3298,3.3386,3.3578,3.3443,3.3414,3.3552,3.3193,3.2935,3.2935,3.2522,3.2314,0.0,0.0,0.0,0.0,0.0,0.0,0.0,0.0,0.0,0.0,0.0,3.4264,3.4481,3.4731,3.4817,3.4883,3.518,3.5362,3.5459,3.5576,3.5219,3.4571,3.3694,3.3288,3.296,3.1999,3.1894,3.2191,3.2385,3.259,3.2861,3.316,3.3293,3.3424,3.3658,3.372,3.3771,3.3899,3.405,3.4201,3.4349,3.4594,3.4875,3.5088,3.5327,0.0,0.0,0.0,0.0,0.0,0.0,0.0,0.0,0.0,0.0,0.0,0.0,0.0,0.0,0.0,0.0,0.0,0.0,0.0,0.0,0.0,0.0,4.0077,0.0,4.0205,0.0,4.0282,4.0301,4.0301,4.0301,4.0301,4.0301,4.0301,4.0301,4.0301,4.0301,4.0318,4.0325,4.0342,4.0392,4.0446,4.0454,4.0462,4.0465,0.0,0.0,0.0,0.0,0.0,0.0,0.0,3.4109,3.4091,3.3778,3.3722,3.3713,3.3591,3.3577,3.373,3.4061,3.3605,3.3379,3.3592,3.291,3.2523,3.2559,3.2504,3.2463,3.2463,3.2588,3.2632,0.0,0.0,0.0,0.0,0.0,0.0,0.0,0.0,0.0,0.0,3.4312,3.4481,3.4698,3.5016,3.5216,3.535,3.5591,3.5911,3.6274,3.6305,3.606,3.5666,3.4953,3.3911,3.2863,3.2461,3.2504,3.2776,3.3091,3.3293,3.345,3.3591,3.3642,3.3684,3.3694,3.3797,3.3924,3.405,3.4201,3.4349,3.4594,3.4875,3.5105,3.5245,3.5549,3.5822,0.0,0.0,0.0,0.0,0.0,0.0,0.0,0.0,0.0,0.0,0.0,0.0,0.0,0.0,0.0,0.0,0.0,0.0,4.1002,0.0,4.0673,4.0026,4.0077,0.0,4.0215,4.0263,4.0301,4.0301,4.0301,4.0301,4.0301,4.0301,4.0301,4.031,4.0299,4.0334,4.0405,4.0468,4.0527,4.06,4.0647,4.068,4.068,0.0,0.0,0.0,0.0,0.0,0.0,0.0,3.4327,3.4197,3.3731,3.3977,3.4054,3.366,3.3605,3.3516,3.3331,3.3092,3.2954,3.304,3.277,3.2596,3.2596,3.2596,3.2596,3.2596,3.2668,3.2704,0.0,0.0,0.0,0.0,0.0,0.0,0.0,0.0,3.4142,3.4312,3.4716,3.4968,3.5169,3.5606,3.5879,3.6039,3.6461,3.6723,3.6906,3.6982,3.6383,3.5571,3.5373,3.4538,3.3501,3.3053,3.3065,3.3261,3.3461,3.3581,3.3658,3.3771,3.3873,3.3949,3.405,3.4151,3.4275,3.4325,3.4497,3.4691,3.4804,3.5071,3.535,3.5549,3.5822,3.6088,0.0,0.0,0.0,0.0,0.0,0.0,0.0,0.0,0.0,0.0,0.0,0.0,0.0,0.0,0.0,0.0,0.0,0.0,4.1732,0.0,4.146,4.0673,4.0772,4.0591,4.0147,4.0215,4.0263,4.0301,4.0301,4.0301,4.029,4.029,4.0327,4.0354,4.0368,4.0417,4.0527,4.0542,4.0628,4.0726,4.0752,4.0758,4.0758,3.3435,0.0,3.3779,0.0,3.4002,3.409,3.4127,3.4201,3.4085,3.374,3.4046,3.4071,3.3422,3.3344,3.3187,3.2816,3.281,3.281,3.286,3.281,3.281,3.281,3.281,0.0,3.2895,3.2952,3.3058,3.3094,3.3094,0.0,0.0,0.0,0.0,0.0,3.4346,3.4601,3.4721,3.5264,3.5559,3.5753,3.629,3.66,3.6799,3.7238,3.7506,3.7623,3.774,3.6905,3.5794,3.5904,3.5128,3.4054,3.362,3.3581,3.3694,3.3848,3.3899,3.3949,3.405,3.4151,3.425,3.4325,3.4448,3.457,3.4594,3.4828,3.5041,3.5142,3.5379,3.565,3.5888,3.6148,3.6381,0.0,0.0,0.0,0.0,0.0,0.0,0.0,4.1161,4.2434,4.2731,0.0,0.0,0.0,0.0,0.0,0.0,0.0,0.0,0.0,0.0,0.0,0.0,4.1343,4.1003,4.0447,4.0281,4.0215,4.0263,4.0291,4.0308,4.0332,4.0332,4.0377,4.0436,4.0446,4.0527,4.0626,4.0655,4.0719,4.0823,4.0834,4.084,4.084,3.2717,3.2731,3.2731,3.2717,3.2909,3.3086,3.3269,3.348,3.3668,3.3862,3.3911,3.3619,3.2789,3.2704,3.2775,3.2988,3.2988,3.3072,3.3276,3.3108,3.2988,0.0,0.0,3.3108,3.329,3.3612,3.3874,3.4094,0.0,0.0,3.4094,0.0,3.421,3.4414,3.4735,3.507,3.5432,3.5975,3.6258,3.643,3.6967,3.7358,3.7608,3.7828,3.8173,3.8567,3.8567,3.778,3.6675,3.6692,3.5709,3.4415,3.4025,3.3975,3.4126,3.425,3.4399,3.4497,3.4497,3.4497,3.4497,3.4497,3.4594,3.4715,3.4859,3.5088,3.5389,3.5717,3.591,3.6062,3.6259,3.6523,3.6705,3.6788,0.0,0.0,0.0,0.0,0.0,0.0,4.1038,4.2313,4.2844,0.0,0.0,0.0,0.0,0.0,0.0,0.0,0.0,4.3407,4.3388,0.0,4.2288,4.1563,4.1233,4.1279,4.0547,4.0196,4.0206,4.0262,4.0341,4.0406,4.0406,4.0434,4.0511,4.0574,4.0636,4.07,4.0765,4.0842,4.0907,4.0898,4.0907,4.0907,3.2881,3.3002,3.3157,3.3312,3.3486,3.364,3.3709,3.3744,3.3827,3.3896,3.3896,3.3813,3.3556,3.3521,3.3556,0.0,3.3626,3.364,0.0,3.3716,3.3736,3.3736,3.3874,3.3991,3.404,3.4235,3.4375,3.4442,0.0,0.0,0.0,3.4773,3.4938,3.5088,3.5477,3.5816,3.6102,3.6508,3.6875,3.7237,3.7637,3.8001,3.8315,3.8455,3.8595,3.875,3.875,3.7861,3.6718,3.6718,3.5709,3.4472,3.4349,3.4349,3.4374,3.4423,3.4472,3.4521,3.4618,3.4691,3.4787,3.4899,3.5048,3.5218,3.535,3.5627,3.5898,3.611,3.6255,3.6398,3.6544,3.6667,3.6809,3.6928,0.0,0.0,0.0,0.0,0.0,0.0,0.0,4.2573,0.0,4.3478,0.0,0.0,0.0,0.0,0.0,0.0,0.0,0.0,4.4189,0.0,4.3133,4.2344,4.173,4.1284,4.0538,4.0253,4.0341,4.0408,4.0481,4.0537,4.0579,4.0621,4.0649,4.07,4.0744,4.0765,4.0837,4.0888,4.0893,4.0903,4.0907,4.0907,3.3297,3.3452,3.357,3.3764,3.3868,3.402,3.4171,3.4191,3.4225,3.4278,3.4293,3.4293,3.4293,3.4346,0.0,3.402,3.4054,3.4088,3.4088,3.4216,3.4303,3.4303,3.4486,3.4654,3.4787,0.0,0.0,3.519,3.5335,3.535,3.527,3.5544,3.5705,3.5785,3.6258,3.6569,3.6799,3.7177,3.7578,3.7915,3.823,3.8511,3.8777,3.8832,3.8914,3.8985,3.8985,3.8064,3.6873,3.6898,3.5951,3.4715,3.4787,3.4811,3.4818,3.4691,3.4715,3.4811,3.4913,3.5024,3.5142,3.5327,3.5509,3.5672,3.5888,3.6088,3.6301,3.6447,3.6547,3.6647,3.6786,3.6849,3.6891,3.6987,0.0,3.7009,0.0,0.0,0.0,0.0,0.0,0.0,0.0,4.3647,0.0,0.0,0.0,0.0,0.0,0.0,0.0,4.4501,4.4584,0.0,4.3983,4.3232,4.2496,4.1812,4.0769,4.0341,4.0477,4.0542,4.06,4.0668,4.0726,4.0745,4.0787,4.0823,4.0832,4.0839,4.0873,4.0893,4.0907,4.0907,4.0907,4.0907,3.3896,3.3965,0.0,0.0,3.4162,0.0,3.4683,3.4765,3.4783,3.4935,3.4968,3.4968,3.4968,3.5133,3.5001,3.4317,0.0,0.0,0.0,3.4624,3.4714,3.4714,3.4942,0.0,3.5497,3.5705,3.5975,3.629,3.629,3.618,3.6008,3.6321,3.6492,3.6523,3.7028,3.7328,3.7506,3.7943,3.8246,3.8448,3.8694,3.8887,3.9023,3.9023,3.9148,3.9299,3.9299,3.8404,3.7194,3.7311,3.6378,3.5218,3.5308,3.5373,3.5379,3.5024,3.5111,3.536,3.5402,3.5447,3.5498,3.5783,3.5937,3.6127,3.6461,3.6544,3.6585,3.6788,3.6811,3.6849,3.6987,3.7007,3.7007,3.7007,3.7007,3.7029,3.7108,0.0,0.0,0.0,0.0,0.0,0.0,4.383,4.4082,0.0,0.0,0.0,0.0,0.0,4.4515,4.4515,4.4565,4.4672,4.4808,4.409,4.336,4.2629,4.1135,4.0485,4.0621,4.0674,4.0745,4.0806,4.0806,4.084,4.0907,4.0907,4.0903,4.0907,4.0907,4.0907,4.0907,4.0907,4.0907,4.0907,0.0,0.0,3.4563,3.4702,3.4835,3.5001,3.5187,3.5219,3.5252,3.5285,3.5429,3.5494,3.5494,3.5864,3.607,3.5864,3.5576,3.5397,3.5397,3.5769,3.5976,3.5976,3.6275,3.6461,3.6554,3.6738,3.6937,3.7118,3.7118,3.7103,3.7042,3.7133,3.7254,3.7419,3.7623,3.7902,3.8177,3.8387,3.8639,3.886,3.8914,3.905,3.9245,3.9245,3.9272,3.9299,3.9422,3.8866,3.8036,3.7727,3.7002,3.6192,3.5791,3.5761,3.5761,3.5402,3.547,3.5694,3.5844,3.5915,3.5968,3.6135,3.636,3.6582,3.6708,3.6809,3.6908,3.693,3.695,3.6968,3.6989,3.7007,3.7009,3.7069,3.7069,3.7127,3.7299,0.0,0.0,0.0,4.205,4.3374,4.3767,4.3955,4.4155,0.0,0.0,0.0,0.0,0.0,4.4578,4.4578,4.4646,4.4776,4.4943,4.4216,4.3224,4.1995,4.1012,4.0622,4.0745,4.0761,4.0815,4.0886,4.0888,4.0888,4.0898,4.0898,4.0903,4.0907,4.0907,4.0907,4.0907,4.0907,4.0907,4.0907,3.4839,3.5019,3.5198,3.5379,3.5606,3.5784,3.5959,3.6039,3.6087,3.6087,3.6196,3.6259,3.6259,3.6554,3.6784,3.6784,3.6461,3.6259,3.6259,3.6585,3.6784,3.6784,3.7012,3.7163,3.7268,3.7373,3.7492,3.7639,3.7639,3.7653,3.7725,3.7799,3.796,3.8119,3.8258,3.8399,3.86,3.8722,3.886,3.8996,3.9094,3.9202,3.9299,3.9352,3.9379,3.9422,3.9616,3.9234,3.8606,3.8084,3.7481,3.6809,3.6219,3.611,3.6191,3.5958,3.5958,3.6067,3.6191,3.6255,3.6322,3.6489,3.667,3.6846,3.6888,3.6948,3.7007,3.7007,3.7007,3.7007,3.7007,3.7029,3.7087,3.7184,3.7279,3.7411,3.7595,3.9211,0.0,4.0737,4.2436,4.3681,4.3974,4.4143,4.4277,4.4397,0.0,0.0,4.4537,4.4605,4.4646,4.4646,4.4757,4.4919,4.5098,4.446,4.378,4.3069,4.1861,4.1336,4.1421,4.1027,4.0873,4.0903,4.0903,4.0907,4.0907,4.0907,4.0907,4.0907,4.0907,4.0907,4.0907,4.0907,4.0907,4.0907,3.5561,3.5769,3.5943,3.6148,3.6352,3.66,3.6769,3.6891,3.6966,3.6966,3.7027,3.7041,3.7041,3.7252,3.7417,3.7417,3.7266,3.7131,3.7057,3.7282,3.7417,3.7417,3.7535,3.7682,3.7876,3.7876,3.7918,3.8033,3.8033,3.8103,3.8201,3.8375,3.8516,3.8639,3.8777,3.8832,3.8832,3.8969,3.9067,3.905,3.9245,3.9325,3.9352,3.9501,3.9563,3.9616,3.9884,3.9665,3.9176,3.8623,3.8048,3.7403,3.6757,3.6551,3.6564,3.6568,3.6509,3.6447,3.6506,3.6564,3.6626,3.6788,3.6928,3.7007,3.7007,3.7007,3.7007,3.7007,3.7007,3.7009,3.7009,3.7087,3.7185,3.7334,3.7539,3.7721,3.7951,0.0,4.0874,4.1123,4.2802,4.3989,4.414,4.4292,4.4411,4.4426,4.4468,0.0,0.0,4.4712,4.4745,4.4764,4.4943,4.5102,4.5293,4.4848,4.4631,4.4608,4.3133,4.2352,4.2179,4.1422,4.1024,4.0907,4.0907,4.0907,4.0907,4.0907,4.0907,4.0907,4.0907,4.0907,4.0907,4.0907,4.0907,4.0907,3.6492,3.6616,3.6784,3.6967,3.7043,3.7118,3.7268,3.7328,3.7312,3.7312,3.7578,3.7754,3.7754,3.8144,3.8371,3.8371,3.8455,3.827,3.7783,3.8144,3.8371,3.8371,3.8511,3.8611,3.8639,3.8639,3.8639,3.8667,3.8667,3.8667,3.8678,3.8722,3.875,3.8777,3.8914,3.8969,3.8969,3.9175,3.9245,3.9272,3.9405,3.9475,3.9501,3.9746,3.9926,4.0037,4.0313,4.0383,4.0288,3.9802,3.9173,3.8456,3.791,3.7292,3.6788,3.6952,3.6974,3.6952,3.6791,3.6849,3.6928,3.6968,3.697,3.7007,3.7007,3.7007,3.7007,3.7007,3.7048,3.7089,3.7089,3.7223,3.7411,3.7613,3.781,3.8018,3.8303,0.0,4.1201,4.1425,4.2987,4.414,4.4321,4.4383,4.444,4.4565,4.4578,4.4632,4.4757,4.4902,4.5007,4.5115,4.5148,4.5333,4.57,4.567,4.5351,4.4674,4.4184,4.3345,4.2204,4.2053,4.1607,4.0907,4.0907,4.0907,4.0907,4.0907,4.0907,4.0907,4.0907,4.0907,4.0907,4.0907,4.0907,4.0907,3.6995,3.7208,3.7387,3.7565,3.7727,3.7902,3.803,3.8116,3.8157,3.8157,3.8286,3.8371,3.8371,3.8567,3.8722,3.8722,3.8832,3.8805,3.8511,3.8639,3.8722,3.8722,3.8777,3.8805,3.8805,3.8805,3.8805,3.8805,3.8805,3.8832,3.8914,3.8914,3.8996,3.9175,3.9228,3.9309,3.9372,3.9468,3.9537,3.9537,3.9668,3.9772,3.9858,4.0113,4.0345,4.0507,4.0789,4.1001,4.1041,4.0472,4.0092,3.9757,3.9071,3.8337,3.7721,3.7819,3.7558,3.7184,3.7087,3.7068,3.705,3.705,3.7029,3.7007,3.7007,3.7029,3.7068,3.7143,3.7279,3.7374,3.743,3.7613,3.7809,3.7948,3.82,0.0,0.0,4.0569,4.1675,4.224,4.3457,4.4306,4.444,4.444,4.4482,4.4592,4.4632,4.4738,4.4895,4.5042,4.5188,4.5352,4.5438,4.5588,4.5845,4.588,4.5723,4.5398,4.4845,4.4229,4.3569,4.2641,4.1981,4.1568,4.1102,4.0907,4.0907,4.0907,4.0907,4.0907,4.0907,4.0907,4.0907,4.0907,4.0907,4.0907,3.7496,3.7772,3.7947,3.8087,3.8303,3.8516,3.8639,3.875,3.8805,3.8805,3.8832,3.886,3.886,3.8914,3.8942,3.8942,3.9077,3.9158,3.9158,3.9077,3.8996,3.8969,3.8996,3.9023,3.9023,3.9023,3.9023,3.9023,3.9023,3.905,3.9158,3.9158,3.9309,3.959,3.959,3.9668,3.9807,3.9807,3.9807,3.9858,3.9986,4.0138,4.0279,4.0566,4.0789,4.103,4.1255,4.1498,4.1604,4.1092,4.0859,4.0678,4.0078,3.9352,3.875,3.8787,3.8259,3.7622,3.7369,3.7222,3.7147,3.7166,3.7145,3.7106,3.7126,3.7185,3.728,3.7373,3.7558,3.7739,3.7809,3.8034,3.8232,3.833,0.0,0.0,0.0,4.1258,4.2296,4.2969,4.3863,4.444,4.4501,4.4496,4.457,4.4646,4.4706,4.4858,4.5072,4.5199,4.5362,4.5556,4.5665,4.5791,4.5912,4.5925,4.5947,4.5982,4.5375,4.4986,4.4753,4.3413,4.2699,4.2442,4.1587,4.1199,4.1199,4.0985,4.0907,4.0907,4.0907,4.0907,4.0907,4.0907,4.0907,4.0907,3.8161,3.8448,3.8588,3.8722,3.875,3.8777,3.8777,3.8805,3.8805,3.8805,3.8914,3.8996,3.8996,3.9255,3.9432,3.9432,3.9573,3.9651,3.9651,3.9651,3.9573,3.9458,3.959,3.9635,3.9635,3.9635,3.9635,3.9635,3.9635,3.9651,3.9651,3.9651,3.9729,3.9875,3.9875,3.9935,4.007,4.007,4.0138,4.028,4.0412,4.0573,4.0778,4.1053,4.13,4.156,4.1714,4.1841,4.1966,4.1913,4.1421,4.0804,4.0713,4.0167,3.9532,3.9667,3.927,3.856,3.7567,3.7297,3.7297,3.7373,3.7355,3.7411,3.7522,3.7613,3.7667,3.7667,3.7879,3.8066,3.8148,3.8394,3.8615,3.873,0.0,0.0,4.0444,4.1983,4.3114,4.317,4.3971,4.4501,4.4501,4.457,4.4646,4.4789,4.4895,4.5084,4.5272,4.541,4.5573,4.5778,4.5793,4.5834,4.5905,4.596,4.6008,4.6002,4.5944,4.5511,4.4792,4.4676,4.4171,4.3355,4.2481,4.2097,4.2039,4.1238,4.0907,4.0907,4.0907,4.0907,4.0907,4.0907,4.0907,4.0907,3.8427,3.8766,3.8903,3.9067,3.9175,3.9255,3.9362,3.9345,3.9345,3.9345,3.9398,3.9425,3.9425,3.9625,3.9746,3.9746,3.9858,3.9961,3.9961,4.0037,3.9977,3.9746,3.9884,3.9961,3.9961,3.9961,3.9961,3.9961,3.9961,3.9961,3.9944,4.0037,4.0138,4.0288,4.032,4.0427,4.0607,4.0607,4.0638,4.0758,4.0884,4.1071,4.1323,4.1498,4.1719,4.1934,4.2058,4.2202,4.232,4.2346,4.2172,4.1922,4.1922,4.1427,4.077,4.0417,4.013,3.9878,3.9518,3.8564,3.7685,3.7703,3.7703,3.7721,3.7773,3.7896,3.8051,3.8168,3.8346,3.8517,3.8673,3.9294,3.9791,3.9848,0.0,4.1502,4.209,4.2805,4.3441,4.3947,4.4341,4.4551,4.4551,4.4659,4.477,4.4907,4.5053,4.521,4.541,4.5593,4.5731,4.5854,4.5861,4.5893,4.596,4.5991,4.5989,4.6002,4.6002,4.5846,4.553,4.5025,4.4617,4.4268,4.3374,4.3005,4.2947,4.2068,4.1708,4.1669,4.1157,4.0952,4.0967,4.0958,4.128,4.1708,3.8766,3.9131,3.9282,3.9458,3.9616,3.972,3.9807,3.9833,3.9833,3.9833,3.9833,3.9833,3.9884,4.0011,4.0087,4.0138,4.0246,4.0345,4.0345,4.0461,4.0412,4.0121,4.0271,4.0345,4.0345,4.0345,4.0345,4.0345,4.0345,4.0345,4.0345,4.0436,4.0583,4.0717,4.0789,4.0907,4.1129,4.1129,4.1157,4.1255,4.1346,4.1565,4.1845,4.1931,4.2082,4.2269,4.2369,4.2447,4.2546,4.2629,4.2668,4.2668,4.2688,4.2388,4.1922,4.1269,4.1104,4.1066,4.0913,3.9953,3.8944,3.8589,3.8315,3.8145,3.8196,3.8328,3.8562,3.8961,3.915,3.9386,3.9793,4.0458,4.0947,4.096,4.1734,4.2551,4.3151,4.3492,4.3876,4.4467,4.4592,4.4646,4.4699,4.4827,4.4955,4.5076,4.522,4.5381,4.5584,4.5731,4.5852,4.5893,4.5925,4.596,4.6008,4.5989,4.6,4.6002,4.6002,4.6002,4.5982,4.5433,4.5181,4.5122,4.4278,4.3909,4.3836,4.2994,4.2641,4.2572,4.2031,4.1824,4.1824,4.1813,4.2171,4.2649,3.9325,3.9599,3.9755,3.9901,4.0011,4.0113,4.0113,4.0113,4.0113,4.0113,4.0113,4.0163,4.0288,4.0412,4.0541,4.0604,4.0782,4.0894,4.0894,4.1023,4.0942,4.0628,4.0806,4.0894,4.0894,4.0894,4.0894,4.0894,4.0894,4.0894,4.0894,4.0894,4.0995,4.1192,4.1209,4.1346,4.1604,4.1604,4.167,4.1801,4.1801,4.1995,4.2308,4.2308,4.243,4.2609,4.2609,4.2609,4.2629,4.2764,4.2803,4.2822,4.2881,4.2957,4.2905,4.2298,4.2162,4.2079,4.1388,4.136,4.1237,4.0092,3.9265,3.8766,3.8896,3.8964,3.9244,4.004,4.0374,4.078,4.1647,4.1851,4.1938,4.1991,4.275,4.3313,4.3313,4.4008,4.4528,4.4592,4.4659,4.4745,4.4883,4.5014,4.5162,4.5292,4.5429,4.5584,4.58,4.5859,4.5893,4.5911,4.596,4.5989,4.6002,4.6002,4.6002,4.6002,4.6002,4.6002,4.6002,4.6002,4.6002,4.5963,4.5153,4.4812,4.4739,4.3931,4.361,4.3611,4.3607,4.3596,4.3596,4.3596,4.3604,4.3608,3.9902,4.0163,4.0296,4.0377,4.0541,4.0655,4.0655,4.0655,4.0655,4.0655,4.0655,4.068,4.0704,4.084,4.0935,4.0959,4.1041,4.1157,4.1244,4.129,4.1312,4.1318,4.118,4.1094,4.1094,4.1094,4.1094,4.1094,4.1094,4.1157,4.1244,4.1358,4.1453,4.1648,4.1732,4.1815,4.188,4.188,4.1927,4.2019,4.2121,4.2264,4.2445,4.249,4.2627,4.2745,4.2786,4.288,4.2974,4.3105,4.3142,4.3196,4.339,4.3546,4.361,4.3467,4.3458,4.3434,4.3287,4.2895,4.2296,4.1255,4.0893,4.081,4.0857,4.0914,4.1055,4.1325,4.1436,4.1571,4.1882,4.2466,4.2892,4.2919,4.3613,4.4153,4.4207,4.4414,4.4605,4.4738,4.4833,4.4936,4.5026,4.5199,4.5361,4.5504,4.5627,4.5758,4.5859,4.5886,4.5925,4.596,4.5991,4.5989,4.6002,4.6002,4.6002,4.6002,4.6002,4.6002,4.6002,4.6002,4.6032,4.6071,4.5822,4.5713,4.5648,4.4848,4.4507,4.4452,4.3897,4.3666,4.3666,4.362,4.3999,4.4514,4.0424,4.0648,4.0752,4.0782,4.0924,4.1018,4.1018,4.1018,4.1018,4.1018,4.1018,4.1059,4.1082,4.1169,4.1238,4.1284,4.1318,4.1408,4.156,4.156,4.1604,4.1754,4.1604,4.1498,4.1453,4.1453,4.1475,4.1515,4.1515,4.156,4.1644,4.171,4.1819,4.1931,4.2055,4.2136,4.2195,4.224,4.2246,4.231,4.2389,4.251,4.2667,4.2707,4.2824,4.2994,4.305,4.316,4.3304,4.3408,4.3511,4.3612,4.3793,4.3908,4.3989,4.4082,4.4147,4.4173,4.4218,4.3903,4.3465,4.2831,4.2244,4.1829,4.1829,4.1838,4.1986,4.2364,4.2439,4.2565,4.2924,4.3412,4.3777,4.3804,4.4218,4.4565,4.4672,4.4712,4.4776,4.4895,4.5049,4.5164,4.5243,4.54,4.5538,4.5662,4.5773,4.5852,4.59,4.5925,4.5956,4.5997,4.6008,4.6,4.6002,4.6002,4.6002,4.6002,4.6002,4.6002,4.6002,4.6032,4.6052,4.6095,4.6138,4.6137,4.6095,4.564,4.5447,4.5401,4.4918,4.4724,4.4724,4.4683,4.4991,4.5454,4.0942,4.1029,4.1117,4.114,4.1198,4.1232,4.1232,4.1232,4.1232,4.1232,4.1232,4.1277,4.1386,4.1426,4.1493,4.1604,4.1626,4.1692,4.1819,4.1819,4.1862,4.1984,4.2005,4.1966,4.1845,4.1841,4.1862,4.2005,4.2005,4.2005,4.2026,4.2026,4.2072,4.2145,4.2287,4.2407,4.2544,4.2589,4.2629,4.2629,4.2649,4.2747,4.292,4.2939,4.3105,4.3338,4.3355,4.3495,4.3647,4.3712,4.3876,4.4051,4.4109,4.414,4.4155,4.4281,4.4373,4.4411,4.4411,4.444,4.4501,4.4501,4.3356,4.223,4.223,4.223,4.2455,4.3238,4.342,4.3646,4.4364,4.4528,4.4556,4.4605,4.4632,4.4685,4.4808,4.4883,4.4979,4.5106,4.525,4.539,4.5513,4.5571,4.568,4.5795,4.5866,4.5906,4.5906,4.5968,4.5997,4.5997,4.6005,4.6002,4.6002,4.6002,4.6002,4.6002,4.6002,4.6007,4.6012,4.6076,4.6104,4.6111,4.617,4.6209,4.6214,4.6278,4.6307,4.6308,4.6307,4.6306,4.6306,4.6306,4.6307,4.6308,4.1267,4.1312,4.1375,4.1471,4.1515,4.1498,4.1498,4.1498,4.1498,4.1498,4.1498,4.152,4.156,4.1648,4.1714,4.1758,4.1841,4.1941,4.1945,4.1962,4.1984,4.2005,4.2055,4.2121,4.2184,4.2051,4.1984,4.2005,4.2005,4.203,4.2079,4.2202,4.2328,4.251,4.2629,4.2727,4.2805,4.2824,4.2825,4.2843,4.2955,4.3049,4.3142,4.3304,4.3461,4.3629,4.3732,4.383,4.3923,4.4002,4.414,4.4325,4.4321,4.4368,4.4411,4.4458,4.4473,4.4487,4.4487,4.4501,4.4501,4.4501,4.4219,4.3956,4.3956,4.3956,4.4013,4.4214,4.4274,4.4371,4.456,4.4672,4.4751,4.4745,4.4833,4.4931,4.5014,4.5098,4.5169,4.5321,4.5457,4.5566,4.5651,4.5769,4.5859,4.5873,4.5893,4.5911,4.5974,4.5991,4.6008,4.5991,4.5997,4.6002,4.6002,4.6002,4.6032,4.6071,4.6071,4.6071,4.6087,4.6095,4.6126,4.617,4.6182,4.6228,4.6284,4.6289,4.6306,4.6299,4.6297,4.6297,4.6297,4.6297,4.6301,4.6304,4.1493,4.1493,4.1515,4.1582,4.1648,4.1692,4.1692,4.1754,4.1776,4.1776,4.1776,4.1776,4.1776,4.1841,4.1905,4.1952,4.2012,4.2118,4.2264,4.2284,4.2325,4.243,4.2472,4.2534,4.2632,4.2532,4.245,4.2366,4.2409,4.2452,4.2474,4.2534,4.267,4.2805,4.2937,4.305,4.3142,4.3214,4.3249,4.3285,4.3357,4.3444,4.3566,4.3651,4.3763,4.3889,4.3955,4.4082,4.4203,4.4277,4.4368,4.4458,4.4458,4.4468,4.4501,4.4501,4.4501,4.4501,4.4501,4.4501,4.4515,4.4537,4.4556,4.4537,4.4515,4.451,4.4556,4.4556,4.4632,4.4712,4.4751,4.4821,4.4907,4.4967,4.5042,4.5132,4.5218,4.5331,4.5429,4.5484,4.5618,4.5719,4.5783,4.586,4.5906,4.5906,4.5937,4.596,4.5997,4.6008,4.6005,4.6002,4.6002,4.6007,4.5998,4.6042,4.6071,4.6107,4.6093,4.6102,4.6107,4.6125,4.6178,4.6195,4.6233,4.6266,4.6308,4.6305,4.6297,4.6306,4.6306,4.6306,4.6306,4.6306,4.629,4.6293,4.1688,4.1688,4.1688,4.1688,4.1758,4.1845,4.1845,4.197,4.2072,4.2072,4.2094,4.2094,4.2094,4.2115,4.216,4.2228,4.2249,4.2374,4.265,4.2689,4.2767,4.2939,4.2976,4.2995,4.3069,4.3124,4.305,4.2879,4.2919,4.2939,4.2939,4.2976,4.3032,4.3105,4.325,4.3391,4.3508,4.3629,4.3714,4.3744,4.3744,4.3812,4.3945,4.3961,4.4036,4.4155,4.417,4.4277,4.4426,4.4487,4.4501,4.4501,4.4501,4.4501,4.4501,4.4501,4.4515,4.4528,4.4528,4.4524,4.4565,4.4619,4.4659,4.4659,4.4592,4.4605,4.4646,4.4659,4.4776,4.487,4.4943,4.5026,4.5106,4.5235,4.5251,4.5303,4.541,4.5549,4.5627,4.564,4.5739,4.5831,4.588,4.5918,4.5917,4.5917,4.5966,4.6003,4.6003,4.6011,4.6026,4.6026,4.6017,4.6013,4.6012,4.606,4.6103,4.6131,4.6114,4.6114,4.6147,4.6192,4.622,4.6221,4.6287,4.6308,4.63,4.6294,4.6306,4.63,4.63,4.63,4.63,4.63,4.63,4.63,4.1962,4.1962,4.1962,4.1962,4.2012,4.2061,4.2061,4.2231,4.2335,4.2335,4.2452,4.251,4.251,4.2554,4.2671,4.2787,4.2826,4.2901,4.2939,4.305,4.3123,4.316,4.3285,4.3336,4.3354,4.3631,4.3565,4.316,4.3142,4.316,4.316,4.3267,4.3407,4.3546,4.3716,4.3846,4.3923,4.3939,4.3939,4.3974,4.3974,4.4002,4.4094,4.4207,4.4281,4.4368,4.4426,4.4454,4.4487,4.4501,4.4501,4.4501,4.4501,4.4501,4.4501,4.4501,4.4537,4.4578,4.4578,4.4672,4.4757,4.4757,4.4858,4.4931,4.4931,4.4846,4.4815,4.4919,4.5022,4.5084,4.5156,4.5262,4.5371,4.5448,4.5521,4.5543,4.5571,4.5692,4.5765,4.5773,4.5838,4.588,4.5899,4.5955,4.5991,4.5991,4.6,4.5997,4.5997,4.6042,4.6095,4.6095,4.6098,4.6099,4.608,4.6098,4.6125,4.6184,4.6193,4.6228,4.6276,4.6277,4.6286,4.6289,4.6306,4.6301,4.6294,4.6306,4.6302,4.63,4.63,4.63,4.63,4.63,4.63,4.63,4.2325,4.2346,4.2346,4.2346,4.2452,4.2554,4.2554,4.2729,4.2863,4.2863,4.29,4.2938,4.2938,4.2975,4.3032,4.316,4.3213,4.3302,4.3495,4.3565,4.3599,4.3666,4.3695,4.3742,4.3791,4.3939,4.3958,4.3814,4.3697,4.3666,4.3647,4.3712,4.3793,4.3873,4.3971,4.4097,4.4218,4.4218,4.4252,4.4281,4.4281,4.431,4.4321,4.4383,4.443,4.4473,4.4501,4.4501,4.4501,4.4501,4.4501,4.4515,4.4537,4.457,4.4565,4.4646,4.4699,4.4738,4.4796,4.4858,4.4919,4.4991,4.5065,4.5124,4.5208,4.5208,4.5186,4.5113,4.5178,4.5301,4.54,4.5465,4.5528,4.559,4.5676,4.5715,4.5715,4.5783,4.5859,4.586,4.5925,4.5962,4.5955,4.5983,4.6,4.6,4.6026,4.6061,4.6061,4.608,4.6106,4.6099,4.6146,4.6151,4.615,4.6153,4.6193,4.6252,4.6263,4.6266,4.6305,4.6308,4.6308,4.6301,4.6299,4.6294,4.6306,4.6302,4.63,4.63,4.63,4.63,4.63,4.63,4.63,4.63]}]]